[[{"header":{"parameterUnit":"m.s-1","parameterCategory":1,"la1":30.6,"la2":29.2853,"lo1":-89.7004,"lo2":-87.6739,"dy":0.0162,"dx":0.0183,"nx":112,"ny":82,"refTime":"2023-11-02T18:00:00:Z","depth":0,"parameterNumber":2,"parameterNumberName":"U-component_of_WINDS"},"data":[0.0,0.0,0.0,0.0,0.0,0.0,0.0,0.0,0.0,0.0,0.0,0.0,0.0,0.0,0.0,0.0,0.0,0.0,0.0,0.0,0.0,0.0,0.0,0.0,0.0,0.0,0.0,0.0,0.0,0.0,0.0,0.0,0.0,0.0,0.0,0.0,0.0,0.0,0.0,0.0,0.0,0.0,0.0,0.0,0.0,0.0,0.0,0.0,0.0,0.0,0.0,0.0,0.0,0.0,0.0,0.0,0.0,0.0,0.0,0.0,0.0,0.0,0.0,0.0,0.0,0.0,0.0,0.0,0.0,0.0,0.0,0.0,0.0,0.0,0.0,0.0,0.0,0.0,0.0,0.0,0.0,0.0,0.0,0.0,0.0,0.0,0.0,0.0,0.0,0.0,2.6552,2.6937,2.829,2.9116,2.8953,2.8079,2.6885,2.5343,0.0,0.0,0.0,0.0,0.0,0.0,0.0,0.0,0.0,0.0,0.0,0.0,0.0,0.0,0.0,0.0,0.0,0.0,0.0,0.0,0.0,0.0,0.0,0.0,0.0,0.0,0.0,0.0,0.0,0.0,0.0,0.0,0.0,0.0,0.0,0.0,0.0,0.0,0.0,0.0,0.0,0.0,0.0,0.0,0.0,0.0,0.0,0.0,0.0,0.0,0.0,0.0,0.0,0.0,0.0,0.0,0.0,0.0,0.0,0.0,0.0,0.0,0.0,0.0,0.0,0.0,0.0,0.0,0.0,0.0,0.0,0.0,0.0,0.0,0.0,0.0,0.0,0.0,0.0,0.0,0.0,0.0,0.0,0.0,0.0,0.0,0.0,0.0,0.0,0.0,0.0,0.0,0.0,0.0,0.0,0.0,0.0,0.0,0.0,0.0,0.0,0.0,0.0,0.0,2.6361,2.8418,2.9464,2.9649,2.8742,2.7254,2.5846,2.4629,0.0,0.0,0.0,0.0,0.0,0.0,0.0,0.0,0.0,0.0,0.0,0.0,0.0,0.0,0.0,0.0,0.0,0.0,0.0,0.0,0.0,0.0,0.0,0.0,0.0,0.0,0.0,0.0,0.0,0.0,0.0,0.0,0.0,0.0,0.0,0.0,0.0,0.0,0.0,0.0,0.0,0.0,0.0,0.0,0.0,0.0,0.0,0.0,0.0,0.0,0.0,0.0,0.0,0.0,0.0,0.0,0.0,0.0,0.0,0.0,0.0,0.0,0.0,0.0,0.0,0.0,0.0,0.0,0.0,0.0,0.0,0.0,0.0,0.0,0.0,0.0,0.0,0.0,0.0,0.0,0.0,0.0,0.0,0.0,0.0,0.0,0.0,0.0,0.0,0.0,0.0,0.0,0.0,0.0,0.0,0.0,0.0,0.0,0.0,0.0,0.0,0.0,0.0,2.6471,2.7297,2.884,2.9726,2.9813,2.8894,2.7186,2.5924,2.5356,2.4619,0.0,0.0,0.0,0.0,0.0,0.0,0.0,0.0,0.0,0.0,0.0,0.0,0.0,0.0,0.0,0.0,0.0,0.0,0.0,0.0,0.0,0.0,0.0,0.0,0.0,0.0,0.0,0.0,0.0,0.0,0.0,0.0,0.0,0.0,0.0,0.0,0.0,0.0,0.0,0.0,0.0,0.0,0.0,0.0,0.0,0.0,0.0,0.0,0.0,0.0,0.0,0.0,0.0,0.0,0.0,0.0,0.0,0.0,0.0,0.0,0.0,0.0,0.0,0.0,0.0,0.0,0.0,0.0,0.0,0.0,0.0,0.0,0.0,0.0,0.0,0.0,0.0,0.0,0.0,0.0,0.0,0.0,0.0,0.0,0.0,0.0,0.0,0.0,0.0,0.0,0.0,0.0,0.0,0.0,0.0,0.0,0.0,0.0,0.0,0.0,0.0,0.0,2.7809,2.8256,2.873,2.9588,2.9716,2.8748,2.7013,2.5907,2.5759,2.406,0.0,0.0,0.0,0.0,0.0,0.0,0.0,0.0,0.0,0.0,0.0,0.0,0.0,0.0,0.0,0.0,0.0,0.0,0.0,0.0,0.0,0.0,0.0,0.0,0.0,0.0,0.0,0.0,0.0,0.0,0.0,0.0,0.0,0.0,0.0,0.0,0.0,0.0,0.0,0.0,0.0,0.0,0.0,0.0,0.0,0.0,0.0,0.0,0.0,0.0,0.0,0.0,0.0,0.0,0.0,0.0,0.0,0.0,0.0,0.0,0.0,0.0,0.0,0.0,0.0,0.0,0.0,0.0,0.0,0.0,0.0,0.0,0.0,0.0,0.0,0.0,0.0,0.0,0.0,0.0,0.0,0.0,0.0,0.0,0.0,0.0,0.0,0.0,0.0,0.0,0.0,0.0,0.0,0.0,0.0,0.0,0.0,0.0,0.0,0.0,0.0,0.0,2.7793,2.8718,2.8224,2.9153,2.926,2.7827,2.6212,2.5118,2.4731,2.3249,0.0,0.0,0.0,0.0,0.0,0.0,0.0,0.0,0.0,0.0,0.0,0.0,0.0,0.0,0.0,0.0,0.0,0.0,0.0,0.0,0.0,0.0,0.0,0.0,0.0,0.0,0.0,0.0,0.0,0.0,0.0,0.0,0.0,0.0,0.0,0.0,0.0,0.0,0.0,0.0,0.0,0.0,0.0,0.0,0.0,0.0,0.0,0.0,0.0,0.0,0.0,0.0,0.0,0.0,0.0,0.0,0.0,0.0,0.0,0.0,0.0,0.0,0.0,0.0,0.0,0.0,0.0,0.0,0.0,0.0,0.0,0.0,0.0,0.0,0.0,0.0,0.0,0.0,0.0,0.0,0.0,0.0,0.0,0.0,0.0,0.0,0.0,0.0,0.0,0.0,0.0,0.0,0.0,0.0,0.0,0.0,0.0,0.0,0.0,0.0,0.0,0.0,2.8261,2.9243,2.8767,2.9551,2.9291,2.7279,2.5932,2.491,2.4271,0.0,0.0,0.0,0.0,0.0,0.0,0.0,0.0,0.0,0.0,0.0,0.0,0.0,0.0,0.0,0.0,0.0,0.0,0.0,0.0,0.0,0.0,0.0,0.0,0.0,0.0,0.0,0.0,0.0,0.0,0.0,0.0,0.0,0.0,0.0,0.0,0.0,0.0,0.0,0.0,0.0,0.0,0.0,0.0,0.0,0.0,0.0,0.0,0.0,0.0,0.0,0.0,0.0,0.0,0.0,0.0,0.0,0.0,0.0,0.0,0.0,0.0,0.0,0.0,0.0,0.0,0.0,0.0,0.0,0.0,0.0,0.0,0.0,0.0,0.0,0.0,0.0,0.0,0.0,0.0,0.0,0.0,0.0,0.0,0.0,0.0,0.0,0.0,0.0,0.0,0.0,0.0,0.0,0.0,0.0,0.0,0.0,0.0,0.0,0.0,0.0,0.0,2.663,2.8357,2.9322,2.8883,2.9379,2.8843,2.6636,2.5578,2.4673,2.386,0.0,0.0,0.0,0.0,0.0,0.0,0.0,0.0,0.0,0.0,0.0,0.0,0.0,0.0,0.0,0.0,0.0,0.0,0.0,0.0,0.0,0.0,0.0,0.0,0.0,0.0,0.0,0.0,0.0,0.0,0.0,0.0,0.0,0.0,0.0,0.0,0.0,0.0,0.0,0.0,0.0,0.0,0.0,0.0,0.0,0.0,0.0,0.0,0.0,0.0,0.0,0.0,0.0,0.0,0.0,0.0,0.0,0.0,0.0,0.0,0.0,0.0,0.0,0.0,0.0,0.0,0.0,0.0,0.0,0.0,0.0,0.0,0.0,0.0,0.0,0.0,0.0,0.0,0.0,0.0,0.0,0.0,0.0,0.0,0.0,0.0,0.0,0.0,0.0,0.0,0.0,0.0,0.0,0.0,0.0,0.0,0.0,0.0,0.0,0.0,0.0,0.0,2.6447,2.799,2.8832,2.8353,2.8423,2.7734,2.5847,2.5015,2.4245,0.0,0.0,0.0,0.0,0.0,0.0,0.0,0.0,0.0,0.0,0.0,0.0,0.0,0.0,0.0,0.0,0.0,0.0,0.0,0.0,0.0,0.0,0.0,0.0,0.0,0.0,0.0,0.0,0.0,0.0,0.0,0.0,0.0,0.0,0.0,0.0,0.0,0.0,0.0,0.0,0.0,0.0,0.0,0.0,0.0,0.0,0.0,0.0,0.0,0.0,0.0,0.0,0.0,0.0,0.0,0.0,0.0,0.0,0.0,0.0,0.0,0.0,0.0,0.0,0.0,0.0,0.0,0.0,0.0,0.0,0.0,0.0,0.0,0.0,0.0,0.0,0.0,0.0,0.0,0.0,0.0,0.0,0.0,0.0,0.0,0.0,0.0,0.0,0.0,0.0,0.0,0.0,0.0,0.0,0.0,0.0,0.0,0.0,0.0,0.0,0.0,0.0,0.0,2.7502,2.8752,2.9326,2.8904,2.8895,2.7827,2.5096,2.464,2.3981,2.2709,0.0,0.0,0.0,0.0,0.0,0.0,0.0,0.0,0.0,0.0,0.0,0.0,0.0,0.0,0.0,0.0,0.0,0.0,0.0,0.0,0.0,0.0,0.0,0.0,0.0,0.0,0.0,0.0,0.0,0.0,0.0,0.0,0.0,0.0,0.0,0.0,0.0,0.0,0.0,0.0,0.0,0.0,0.0,0.0,0.0,0.0,0.0,0.0,0.0,0.0,0.0,0.0,0.0,0.0,0.0,0.0,0.0,0.0,0.0,0.0,0.0,0.0,0.0,0.0,0.0,0.0,0.0,0.0,0.0,0.0,0.0,0.0,0.0,0.0,0.0,0.0,0.0,0.0,0.0,0.0,0.0,0.0,0.0,0.0,0.0,0.0,0.0,0.0,0.0,0.0,0.0,0.0,0.0,0.0,0.0,0.0,0.0,0.0,0.0,0.0,0.0,0.0,2.7894,2.8896,2.9445,2.953,2.9246,2.8064,2.5591,2.4829,2.4,2.281,0.0,0.0,0.0,0.0,0.0,0.0,0.0,0.0,0.0,0.0,0.0,0.0,0.0,0.0,0.0,0.0,0.0,0.0,0.0,0.0,0.0,0.0,0.0,0.0,0.0,0.0,0.0,0.0,0.0,0.0,0.0,0.0,0.0,0.0,0.0,0.0,0.0,0.0,0.0,0.0,0.0,0.0,0.0,0.0,0.0,0.0,0.0,0.0,0.0,0.0,0.0,0.0,0.0,0.0,0.0,0.0,0.0,0.0,0.0,0.0,0.0,0.0,0.0,0.0,0.0,0.0,0.0,0.0,0.0,0.0,0.0,0.0,0.0,0.0,0.0,0.0,0.0,0.0,0.0,0.0,0.0,0.0,0.0,0.0,0.0,0.0,0.0,0.0,0.0,0.0,0.0,0.0,0.0,0.0,0.0,0.0,0.0,0.0,0.0,0.0,0.0,0.0,2.799,2.8702,2.9325,3.0196,2.9513,2.8383,2.6835,2.5405,2.4288,2.3552,0.0,0.0,0.0,0.0,0.0,0.0,0.0,0.0,0.0,0.0,0.0,0.0,0.0,0.0,0.0,0.0,0.0,0.0,0.0,0.0,0.0,0.0,0.0,0.0,0.0,0.0,0.0,0.0,0.0,0.0,0.0,0.0,0.0,0.0,0.0,0.0,0.0,0.0,0.0,0.0,0.0,0.0,0.0,0.0,0.0,0.0,0.0,0.0,0.0,0.0,0.0,0.0,0.0,0.0,0.0,0.0,0.0,0.0,0.0,0.0,2.704,0.0,0.0,0.0,0.0,0.0,0.0,0.0,0.0,0.0,0.0,0.0,0.0,0.0,0.0,0.0,0.0,0.0,0.0,0.0,0.0,0.0,0.0,0.0,0.0,0.0,0.0,0.0,0.0,0.0,0.0,0.0,0.0,0.0,0.0,0.0,0.0,0.0,0.0,0.0,0.0,0.0,2.9376,2.9311,2.951,3.083,2.9798,2.8383,2.6835,2.5879,2.505,2.4305,2.4118,0.0,0.0,0.0,0.0,0.0,0.0,0.0,0.0,0.0,0.0,0.0,0.0,0.0,0.0,0.0,0.0,0.0,0.0,0.0,0.0,0.0,0.0,0.0,0.0,0.0,0.0,0.0,0.0,0.0,0.0,0.0,0.0,0.0,0.0,0.0,0.0,0.0,0.0,0.0,0.0,0.0,0.0,0.0,0.0,0.0,0.0,0.0,0.0,0.0,0.0,0.0,0.0,0.0,0.0,0.0,0.0,0.0,0.0,0.0,0.0,2.7167,0.0,0.0,0.0,0.0,0.0,0.0,0.0,0.0,0.0,0.0,0.0,0.0,0.0,0.0,0.0,0.0,0.0,0.0,0.0,0.0,0.0,0.0,0.0,0.0,0.0,0.0,0.0,0.0,0.0,0.0,0.0,0.0,0.0,0.0,0.0,0.0,0.0,0.0,0.0,0.0,3.0295,3.001,3.01,3.1572,3.0083,2.8688,2.7876,2.6454,2.5431,2.5058,2.4694,0.0,0.0,0.0,0.0,0.0,0.0,0.0,0.0,0.0,0.0,0.0,0.0,0.0,0.0,0.0,0.0,0.0,0.0,0.0,0.0,0.0,0.0,0.0,0.0,0.0,0.0,0.0,0.0,0.0,0.0,0.0,0.0,0.0,0.0,0.0,0.0,0.0,0.0,0.0,0.0,0.0,0.0,0.0,0.0,0.0,0.0,0.0,0.0,0.0,0.0,0.0,0.0,0.0,2.961,2.9894,2.9894,2.9894,3.0265,3.0791,2.8886,2.7903,2.7669,2.7548,0.0,0.0,0.0,0.0,0.0,0.0,0.0,0.0,0.0,0.0,0.0,0.0,0.0,0.0,0.0,0.0,0.0,0.0,0.0,0.0,0.0,0.0,0.0,0.0,2.658,2.6416,0.0,0.0,0.0,0.0,0.0,0.0,0.0,0.0,0.0,0.0,0.0,0.0,3.0845,3.0784,3.1004,3.2361,3.0635,2.9281,2.9027,2.7148,2.5922,2.5803,2.5211,2.488,0.0,0.0,0.0,0.0,0.0,0.0,0.0,0.0,0.0,0.0,0.0,0.0,0.0,0.0,0.0,0.0,0.0,0.0,0.0,0.0,0.0,0.0,0.0,0.0,0.0,0.0,0.0,0.0,0.0,0.0,0.0,0.0,2.5119,2.586,0.0,0.0,0.0,0.0,0.0,0.0,0.0,0.0,0.0,0.0,0.0,0.0,0.0,2.9437,3.0239,3.0895,3.1257,3.1351,3.1455,3.1489,3.1489,3.1489,3.1541,3.1627,3.1217,0.0,2.9161,2.8523,0.0,0.0,0.0,0.0,0.0,0.0,0.0,0.0,0.0,0.0,0.0,0.0,0.0,0.0,0.0,0.0,0.0,0.0,0.0,0.0,0.0,0.0,2.8023,2.8776,2.887,2.875,0.0,2.7182,2.6096,2.6835,2.6956,0.0,0.0,0.0,0.0,0.0,0.0,0.0,3.0997,3.1674,3.2334,3.3169,3.185,3.0388,2.9111,2.8086,2.7241,2.659,2.6463,2.6412,2.6412,2.6412,0.0,0.0,0.0,0.0,0.0,0.0,0.0,0.0,0.0,0.0,0.0,0.0,0.0,0.0,0.0,0.0,0.0,0.0,0.0,0.0,0.0,0.0,0.0,0.0,0.0,0.0,0.0,0.0,0.0,2.5515,2.6402,2.6747,2.6377,2.6274,0.0,0.0,0.0,0.0,0.0,0.0,0.0,0.0,0.0,3.0886,3.1248,3.18,3.2603,3.3267,3.3645,3.3714,3.4048,3.4265,3.4335,3.4335,3.4305,3.4228,3.3731,3.2885,3.1743,3.0219,2.9145,2.8483,0.0,0.0,0.0,0.0,2.8132,2.8279,2.7528,2.718,0.0,2.667,0.0,0.0,0.0,0.0,0.0,0.0,0.0,0.0,0.0,0.0,3.0029,3.0395,3.0111,2.9888,3.0279,2.8987,2.7844,0.0,2.7553,2.7086,2.7606,0.0,0.0,0.0,0.0,3.0446,3.2757,3.2977,3.3203,3.3931,3.2324,3.0946,3.0287,2.9144,2.8146,2.7376,2.7325,2.7122,2.6716,2.67,2.67,0.0,0.0,0.0,0.0,0.0,0.0,0.0,0.0,0.0,0.0,0.0,0.0,0.0,0.0,0.0,0.0,0.0,0.0,0.0,0.0,0.0,0.0,0.0,0.0,0.0,0.0,0.0,0.0,2.673,2.7506,2.7324,2.7101,2.7136,0.0,0.0,0.0,0.0,0.0,0.0,3.0325,3.0911,3.1909,3.339,3.3621,3.4103,3.4857,3.553,3.5891,3.5965,3.6425,3.6693,3.679,3.679,3.6747,3.6682,3.6039,3.5279,3.4345,3.2002,3.0592,2.9916,2.997,2.9988,2.9979,2.9933,3.0018,3.0126,2.9776,2.9424,2.9058,2.8872,0.0,2.7123,2.724,0.0,0.0,0.0,0.0,2.9887,3.0664,3.1234,3.1716,3.2082,3.1569,3.122,3.1957,3.1109,3.0111,0.0,2.8628,2.8023,2.9159,0.0,0.0,0.0,0.0,3.1816,3.4184,3.4184,3.41,3.4466,3.3028,3.1826,3.1251,3.0185,2.9059,2.7874,2.7807,2.7553,2.6996,2.6801,2.6793,2.6979,0.0,0.0,0.0,0.0,0.0,0.0,0.0,0.0,0.0,0.0,0.0,0.0,0.0,0.0,0.0,0.0,0.0,0.0,0.0,0.0,0.0,0.0,0.0,0.0,0.0,0.0,0.0,0.0,0.0,2.7385,2.8506,0.0,0.0,0.0,0.0,3.0533,3.1205,3.1955,3.2697,3.2649,3.3301,3.4847,3.5567,3.6261,3.6932,3.7803,3.8174,3.8054,3.8077,3.8094,3.8105,3.8105,3.8094,3.8082,3.7927,3.7427,3.6514,3.367,3.201,3.1301,3.1301,3.1301,3.1301,3.1301,3.1694,3.2142,3.1436,3.1574,3.1972,3.1278,3.098,3.0949,3.1,3.0971,0.0,0.0,3.1099,3.1297,3.2159,3.2323,3.2645,3.4177,3.3869,3.344,3.4178,3.3738,3.2794,0.0,3.0562,3.0034,3.0059,0.0,3.1031,3.1183,3.2357,3.3541,3.4398,3.507,3.5239,3.4573,3.4398,3.3484,3.1386,3.1133,3.0159,2.7942,2.7807,2.7781,2.7756,2.7072,2.7029,2.7739,2.7063,0.0,0.0,0.0,0.0,0.0,0.0,0.0,0.0,0.0,0.0,0.0,0.0,0.0,0.0,0.0,0.0,0.0,0.0,0.0,0.0,0.0,0.0,0.0,0.0,0.0,0.0,0.0,0.0,3.017,3.1533,0.0,3.1369,3.2258,3.2634,3.203,3.3157,3.413,3.4795,3.5277,3.6247,3.7775,3.855,3.904,3.9301,3.9988,4.0107,3.9677,4.0075,4.0071,3.9694,4.0166,3.981,3.8869,3.928,3.9016,3.818,3.7147,3.5733,3.4234,3.429,3.4294,3.4284,3.4255,3.4372,3.4544,3.4187,3.3918,3.3586,3.2865,3.2628,3.2611,3.2642,3.297,3.3231,3.2777,3.3681,3.4764,3.4538,3.5204,3.6056,3.6621,3.6163,3.5667,3.5921,3.5368,3.4664,3.4155,3.2713,3.1697,3.2154,3.2046,3.2385,3.3818,3.4478,3.5103,3.587,3.6208,3.6062,3.5289,3.4776,3.3992,3.273,3.2182,3.1166,2.9388,2.8839,2.8349,2.7824,2.7097,2.7046,2.779,2.683,2.6557,0.0,0.0,0.0,0.0,0.0,0.0,0.0,0.0,0.0,0.0,0.0,0.0,0.0,0.0,0.0,0.0,0.0,0.0,0.0,0.0,0.0,0.0,0.0,0.0,0.0,0.0,3.2033,3.2516,3.3931,3.4552,3.3749,3.4638,3.4974,3.4288,3.5419,3.6422,3.7046,3.778,3.8758,4.0032,4.0791,4.1154,4.1112,4.1554,4.1418,4.0737,4.1142,4.1125,4.0754,4.1235,4.1031,4.0264,4.0769,4.065,4.0117,4.0117,3.9274,3.7905,3.6956,3.6571,3.6576,3.6525,3.6672,3.6864,3.6778,3.6253,3.5571,3.5081,3.4917,3.4917,3.4917,3.5267,3.5554,3.5064,3.6011,3.7054,3.6507,3.7133,3.7973,3.821,3.7702,3.7241,3.7494,3.6924,3.6389,3.6389,3.4979,3.389,3.4106,3.4167,3.4686,3.6152,3.6389,3.6659,3.7444,3.7325,3.6868,3.6084,3.5582,3.477,3.3497,3.296,3.1935,3.0217,2.9634,2.9127,2.8601,2.7875,2.7824,2.8568,2.7423,2.6949,2.7121,0.0,0.0,0.0,0.0,0.0,0.0,0.0,0.0,0.0,0.0,0.0,0.0,0.0,0.0,0.0,0.0,0.0,0.0,0.0,0.0,0.0,0.0,0.0,3.0809,3.2775,3.4207,3.4241,3.5559,3.618,3.5404,3.6749,3.7591,3.7407,3.8105,3.8814,3.9455,4.0043,4.0696,4.141,4.2132,4.244,4.23,4.244,4.2083,4.1225,4.1271,4.1271,4.1238,4.1271,4.1644,4.23,4.232,4.2333,4.2333,4.2333,4.2333,4.2063,3.914,3.7995,3.7995,3.799,3.8413,3.9022,3.9022,3.8565,3.7961,3.7961,3.7961,3.7961,3.7961,3.7961,3.7973,3.7927,3.7944,3.7973,3.7927,3.7944,3.8147,3.8853,3.8481,3.8159,3.8853,3.8464,3.7973,3.7922,3.7359,3.6648,3.5814,3.693,3.7927,3.7927,3.7944,0.0,3.8916,3.8379,3.7652,3.6902,3.6829,3.5904,3.3632,3.3429,3.2483,3.0267,3.0115,3.0098,3.0098,2.939,2.9313,3.001,2.89,2.7879,2.7003,0.0,0.0,0.0,0.0,0.0,0.0,0.0,0.0,0.0,0.0,0.0,0.0,0.0,0.0,0.0,0.0,0.0,0.0,0.0,0.0,0.0,3.2396,3.3776,3.3241,3.5131,3.676,3.7295,3.9084,3.9818,3.8583,4.0176,4.0815,3.9701,4.0714,4.1401,4.1503,4.1654,4.1844,4.2048,4.278,4.2871,4.2317,4.2871,4.277,4.1999,4.2527,4.2523,4.2016,4.2544,4.2611,4.2333,4.2878,4.3102,4.3102,4.3102,4.3102,4.2916,4.1035,4.0278,4.024,3.9694,3.9609,3.9795,3.9795,3.966,3.9491,3.9491,3.9491,3.9491,3.9491,3.9491,3.9389,3.8853,3.9073,3.9372,3.8848,3.9102,3.9542,3.9745,3.9643,3.9406,3.9068,3.9254,3.9186,3.8108,3.8611,3.878,3.7488,3.8058,3.87,3.87,3.9153,0.0,3.9051,3.8819,3.8413,3.7686,3.7601,3.6671,3.4387,3.4201,3.3254,3.1038,3.0395,3.0098,3.0098,2.939,2.88,2.8371,2.8225,2.7877,0.0,0.0,0.0,0.0,0.0,0.0,0.0,0.0,0.0,0.0,0.0,0.0,0.0,0.0,0.0,0.0,0.0,0.0,0.0,0.0,0.0,0.0,3.4553,3.6261,3.6795,3.7707,3.8739,3.9806,4.0994,4.1527,4.1001,4.2013,4.2326,4.1409,4.2065,4.2572,4.2743,4.3078,4.3416,4.3707,4.4451,4.4621,4.4195,4.4299,4.3995,4.3264,4.3355,4.3338,4.3264,4.3355,4.3524,4.3724,4.3859,4.391,4.391,4.391,4.391,0.0,0.0,0.0,0.0,0.0,4.0557,4.0523,4.0214,4.0096,4.0146,4.0455,4.0557,4.0557,4.0557,4.0557,4.0405,3.966,3.9762,4.0011,3.9559,3.9791,4.0096,4.0096,4.0096,3.9982,3.9542,3.9808,3.9859,3.9,3.9508,0.0,3.8966,3.9186,3.9457,3.9457,3.9842,3.996,3.9525,3.9457,3.9186,3.8447,3.8079,3.7099,3.5131,3.4387,0.0,0.0,0.0,3.0189,2.9972,2.9556,0.0,0.0,0.0,2.843,2.8242,0.0,0.0,0.0,2.8196,2.8396,0.0,0.0,0.0,0.0,0.0,0.0,0.0,0.0,0.0,0.0,0.0,0.0,0.0,0.0,0.0,0.0,3.6741,3.8443,4.0621,4.0374,4.0448,4.1753,4.1881,4.2078,4.2642,4.2906,4.296,4.2757,4.29,4.3206,4.3744,0.0,0.0,0.0,0.0,4.6752,4.6682,4.6109,4.5449,4.4719,4.4079,4.4164,4.4821,4.4113,4.4522,4.5788,4.5125,4.4838,4.4838,4.4838,4.4787,4.4567,4.3027,4.2371,4.2215,4.1474,4.1255,4.1221,4.0472,0.0,0.0,4.1102,4.1322,4.1322,4.1322,4.1322,4.1187,4.0523,4.035,4.0333,4.0248,4.0299,4.0316,4.0146,4.0163,4.0197,4.013,4.0045,4.002,4.0083,4.0062,4.002,4.0083,4.0096,4.0096,4.0096,4.0096,4.0096,4.0096,4.0096,3.9859,3.9203,0.0,0.0,3.587,3.4529,3.3389,3.2479,3.1278,3.0371,2.9815,2.9819,2.9645,2.9224,2.9233,2.9334,2.9507,2.9507,2.9861,3.0494,2.983,2.9833,0.0,0.0,0.0,0.0,0.0,0.0,0.0,0.0,0.0,0.0,0.0,0.0,0.0,0.0,0.0,3.7239,3.8979,4.0563,4.2095,4.2594,4.2739,4.2548,4.3078,4.3253,4.2744,4.4167,4.4871,4.4313,4.5329,4.602,4.6143,4.6278,4.6445,4.6583,4.6733,4.6498,4.5923,4.6363,4.621,4.55,0.0,0.0,4.6377,4.621,4.631,4.6583,4.6445,4.6377,4.6377,4.6377,4.6007,4.5331,4.3795,4.2828,4.2215,4.1474,4.1576,4.1978,4.1238,4.1373,4.1894,4.2046,4.2097,4.2097,4.2097,4.2097,0.0,4.191,4.1877,4.1741,4.1136,4.1424,4.1572,4.0371,4.0557,4.0815,4.0231,3.9722,3.9526,4.0007,3.9709,3.9523,4.002,4.0096,4.0096,4.0096,4.0096,4.0096,4.0096,4.0096,4.0045,3.991,3.9757,3.8831,3.675,3.631,3.5295,3.3322,3.2053,3.0914,2.9848,2.9959,2.9994,2.9911,3.0071,3.0166,3.0202,3.0202,3.0553,3.1195,3.0522,3.0279,0.0,0.0,0.0,0.0,0.0,0.0,0.0,0.0,0.0,0.0,0.0,3.3068,3.4144,0.0,3.7325,3.9539,4.1178,4.2501,4.3547,4.4364,4.4565,4.3802,4.4344,4.4793,4.4762,4.5671,4.6104,4.5772,4.6406,4.6955,4.7344,4.7361,4.753,4.7885,4.7902,4.7716,4.7361,4.7361,4.7175,4.6805,4.6802,4.6989,4.7361,4.7361,4.7361,4.7361,4.7361,4.7141,4.68,4.68,4.6583,4.6143,4.4995,4.4096,4.3366,4.2591,4.2527,4.276,4.2016,4.1982,4.2367,4.2726,4.2861,4.2861,4.2861,4.2861,4.2777,4.2388,4.23,4.2117,4.139,4.1243,4.1027,3.9908,3.9698,3.973,3.9659,3.9405,3.9378,3.9982,3.9867,3.9657,3.9657,3.9657,3.9747,4.0045,4.0096,4.0096,4.0096,4.0096,4.0096,4.0096,3.9762,3.8974,3.7576,3.616,3.4607,3.2861,3.1874,3.0963,3.0125,3.02,3.0251,3.0251,3.0279,3.0477,3.0801,3.0735,3.1031,3.17,3.1352,3.128,0.0,0.0,0.0,0.0,0.0,0.0,0.0,3.0818,3.2366,3.3277,3.4154,3.536,3.7337,3.8427,3.9734,4.1848,4.3235,4.4306,4.5012,4.5875,4.6173,4.5419,4.5704,4.6172,4.675,4.6921,4.7005,4.7005,4.7141,4.7496,4.809,4.8107,4.8394,4.8984,4.9001,4.8934,4.8798,4.8343,4.8039,4.7904,4.7445,4.7547,4.8107,4.8107,4.8107,4.8107,4.8107,4.7784,4.724,4.724,4.7141,4.6955,4.6363,4.5686,4.4888,4.3795,4.3507,4.3524,4.2777,4.2621,4.2841,4.3436,4.3626,4.3626,4.3626,4.3526,4.3294,4.2702,4.253,4.2348,4.161,4.1298,4.0903,4.001,3.9429,3.9154,3.9376,3.9229,3.9179,3.9661,3.9744,3.9627,3.9259,3.9299,3.9457,3.9705,3.9744,3.9744,3.9744,3.985,3.9876,3.9773,3.9316,3.8732,3.7995,3.5717,3.3816,3.259,3.1883,3.123,3.0612,3.0586,3.0586,3.056,3.0591,3.0846,3.1369,3.1247,3.1465,3.1996,3.1996,3.2122,2.5954,2.761,2.9258,2.9274,3.069,3.2442,0.0,3.4412,3.4974,3.6315,3.7229,3.8225,3.9604,4.1044,4.2509,4.4027,4.5046,4.5858,4.6474,4.7221,4.7661,4.7547,4.714,4.683,4.68,4.738,4.7785,4.7785,4.8377,4.8798,4.8883,4.8883,4.8917,4.9001,4.9001,4.8682,4.8039,4.858,4.8546,4.7904,4.8479,4.8798,4.8883,4.8883,4.8883,4.8883,4.8883,4.8832,4.8748,4.8748,4.8376,4.7768,4.7684,4.7194,4.631,4.4184,4.3859,4.4347,4.3541,4.3741,4.4361,4.4432,4.4465,4.4465,4.4465,4.4016,4.3468,4.3385,4.3368,4.3202,4.246,4.3193,4.3756,4.2307,4.1947,4.1623,4.0431,3.9291,3.8487,3.8506,3.8488,3.8657,3.9125,3.9644,3.9653,3.864,3.8488,3.8488,3.8488,3.8974,3.9095,3.856,3.8921,3.8662,3.7416,3.6405,3.5302,3.4051,3.3327,3.246,3.1316,3.1287,3.1236,3.1102,3.1685,3.1952,3.1903,3.1904,3.1935,3.1996,3.1996,3.2025,2.8094,2.9167,3.0108,3.0456,3.2535,3.4608,3.5073,3.6279,3.7643,3.8786,3.9938,4.115,4.2512,4.3318,4.4234,4.5647,4.6542,4.7149,4.7394,4.8073,4.8377,4.7954,4.8049,4.8316,4.8678,4.9001,4.9373,4.9798,4.9307,4.9187,4.961,4.9238,4.9001,4.9001,4.9001,4.8849,4.8529,4.8849,4.8849,4.8529,4.8849,4.9001,4.9018,4.9441,4.9644,4.961,4.9187,4.9001,4.9001,4.9001,4.8832,4.8496,4.8073,4.7718,4.721,4.5401,4.4959,4.5128,4.435,4.433,4.4615,4.4615,4.4888,4.5162,4.4719,4.467,4.4689,4.4267,4.3825,4.3332,4.2591,4.2611,4.2534,4.1448,4.1245,4.1222,4.0986,4.0514,4.0246,4.0583,4.0626,4.0356,3.9458,3.9531,3.9147,3.7493,3.8153,3.8821,3.8821,3.8739,3.8574,3.8337,3.821,3.7928,3.7368,3.6355,3.5519,3.4993,3.392,3.3067,3.2471,3.2074,3.179,3.1669,3.1859,3.2107,3.2414,3.2342,3.2494,3.287,3.287,3.287,2.9183,3.0295,3.1341,3.2041,3.4714,3.7041,3.6733,3.8212,4.0025,4.1297,4.2058,4.298,4.4604,4.5111,4.5617,4.6629,4.7597,4.8208,4.8208,4.8648,4.8798,4.8276,4.8665,4.9289,5.0032,5.01,5.0405,5.1133,5.0203,4.9847,5.0371,4.9695,4.9306,4.9306,4.912,4.9001,4.9001,4.9001,4.9001,4.9001,4.9001,4.9001,4.9018,4.9543,4.9812,4.9763,4.9238,4.9001,4.9001,4.9001,4.9001,4.8951,4.8411,4.8084,4.7747,4.647,4.5881,4.5602,4.4855,4.4606,4.4601,4.4601,4.4957,4.5342,4.4997,4.5006,4.5039,4.4723,4.4081,4.332,4.2616,4.2245,4.1857,4.1142,4.0877,4.0843,4.1112,4.1151,4.1158,4.1234,4.168,4.1543,3.9955,3.9666,3.917,3.7749,3.8211,3.8645,3.8477,3.8067,3.7867,3.8039,3.7519,3.7148,3.7148,3.632,3.5783,3.5783,3.4659,3.3939,3.3853,3.318,3.2757,3.2557,3.2457,3.2582,3.2931,3.2826,3.3036,3.3499,3.3499,3.3499,2.8238,3.0761,3.3599,3.4791,3.7551,3.9998,4.0041,4.0716,4.1932,4.4035,4.3422,4.3141,4.5281,4.6244,4.675,4.68,4.802,4.8968,4.8968,4.8984,4.9001,4.8968,4.8984,4.9289,5.0032,5.01,5.0405,5.1133,5.1167,5.115,5.1167,5.0473,5.0066,5.0066,4.9373,4.9001,4.9001,4.9001,4.9001,4.9001,4.9001,4.9001,4.9001,4.9018,4.9035,4.9035,4.9018,4.9001,4.9001,4.9001,4.9001,4.9001,4.8984,4.8527,4.7818,4.7056,4.6299,4.5602,4.4855,4.4607,4.4591,4.4591,4.4619,4.4756,4.5462,4.4716,4.3798,4.4486,4.4123,4.3347,4.2675,4.2967,4.3269,4.2596,4.1933,4.1289,4.0657,4.0531,4.0149,3.8861,4.0131,4.1203,4.0503,4.0322,4.0249,4.0191,3.8633,3.7238,3.6662,3.6569,3.6785,3.7372,3.6892,3.6538,3.6538,3.6492,3.6461,3.6461,3.583,3.5429,3.5429,3.4783,3.4281,3.3954,3.3939,3.3774,3.3485,3.3469,3.3469,3.3499,3.3499,3.3499,3.0718,3.3331,3.5791,3.7432,3.9708,4.171,4.2253,4.2986,4.3739,4.4508,4.3827,4.332,4.4041,4.437,4.4877,4.5906,4.731,4.8445,4.8934,4.9001,4.8832,4.8326,4.8698,4.9103,4.9357,4.9373,5.0084,5.1809,5.1014,5.0676,5.1167,5.049,5.01,5.01,4.9847,4.9965,5.044,4.9965,4.9729,4.9712,4.9238,4.9001,4.9001,4.9001,4.9001,4.9001,4.9001,4.9001,4.9001,4.9001,4.9001,4.9001,4.9001,4.8845,4.8541,4.7786,4.706,4.6324,4.559,4.5658,4.6055,4.6055,4.6067,4.601,4.577,4.5373,4.4933,4.4707,4.4123,4.352,4.3287,4.3068,4.2863,4.2618,4.2332,4.2042,4.1866,4.1792,4.1639,4.123,4.1685,4.1785,4.0671,4.0076,3.9321,3.798,3.7558,3.7178,3.6585,3.6507,3.6585,3.6785,3.6616,3.6507,3.6507,3.6507,3.6507,3.6507,3.5753,3.5263,3.5171,3.441,3.3879,3.3683,3.3667,3.3832,3.4158,3.4158,3.4398,3.4831,3.4831,3.4831,3.3226,3.552,3.7492,3.9761,4.1521,4.2836,4.3376,4.4059,4.4688,4.4985,4.4169,4.349,4.3792,4.3386,4.3423,4.4674,4.5452,4.6433,4.8003,4.7986,4.7953,4.8259,4.8714,4.9001,4.9001,4.9001,4.9813,5.1775,5.1268,5.1099,5.1573,5.0896,5.049,5.049,4.9982,4.9932,5.0406,4.9949,4.9712,4.9695,4.9221,4.9001,4.9001,4.9001,4.9001,4.8986,4.8719,4.8609,4.8593,4.8322,4.821,4.821,4.821,4.8048,4.7753,4.7291,4.6799,4.6338,4.5873,4.5835,4.6019,4.6019,4.6012,4.5966,4.5748,4.5514,4.5272,4.5042,4.45,4.3901,4.3658,4.3275,4.2892,4.265,4.2534,4.2414,4.2219,4.2333,4.2341,4.1869,4.2173,4.2155,4.1038,4.0293,3.9267,3.748,3.7546,3.7483,3.6615,3.6507,3.6507,3.6507,3.6507,3.6507,3.6507,3.6507,3.6507,3.6507,3.5968,3.5584,3.5445,3.488,3.4499,3.4297,3.4297,3.446,3.4862,3.4862,3.507,3.5504,3.5504,3.5504,3.5406,3.7231,3.8807,4.1647,4.2922,4.3482,4.3591,4.4126,4.4795,4.5503,4.4387,4.349,4.4178,4.3179,4.2489,4.322,4.2895,4.3569,4.6498,4.6346,4.6686,4.8815,4.9086,4.912,4.912,4.912,4.9679,5.11,0.0,5.2198,5.2249,5.1539,5.1133,5.1133,4.9796,4.9069,4.912,4.9086,4.9035,4.9001,4.9001,4.9001,4.9001,4.9001,4.9001,4.8955,4.8258,4.7967,4.7901,4.7204,4.6914,4.6897,4.6863,4.6429,4.5805,4.5769,4.5733,4.5705,4.5702,4.5274,4.4713,4.4713,4.47,4.4799,4.5494,4.5182,4.4751,4.5452,4.5138,4.4438,4.3805,4.3633,4.3443,4.2765,4.2574,4.2361,4.1678,4.2039,4.2095,4.0768,4.1525,4.2173,4.1511,4.0876,4.002,3.8699,3.8491,3.8031,3.6722,3.6538,3.6553,3.6507,3.6507,3.6507,3.6507,3.6507,3.6507,3.6507,3.6492,3.6398,3.6211,3.6179,3.6022,3.5704,3.5688,3.5637,3.5504,3.5504,3.5504,3.5504,3.5504,3.5504,3.547,3.8462,4.1391,4.1661,4.3026,4.4427,4.4997,4.4855,4.4651,4.484,4.3217,4.1491,4.0578,4.1001,4.1728,4.2455,4.4299,4.6295,4.8173,4.8748,4.9203,4.9746,5.0288,5.0643,5.0643,5.0643,5.0795,0.0,5.0862,5.0896,5.1438,5.0777,5.0371,5.0371,5.0032,5.0084,5.0626,5.0084,4.9543,4.9001,4.9001,4.9001,4.9001,4.9001,4.9001,4.8986,4.8798,4.8719,4.8703,4.853,4.8434,4.8386,4.7819,4.7489,4.7272,4.6709,4.6165,4.5704,4.5697,4.5942,4.6242,4.6242,4.5877,4.5458,4.5642,4.5183,4.4648,4.4821,4.4752,4.4572,4.4384,4.3975,4.3425,4.2761,4.2142,4.1541,4.0903,4.0882,4.0868,4.055,4.0783,4.08,4.0134,3.9885,3.9462,3.8632,3.8491,3.82,3.7353,3.7246,3.7046,3.6538,3.6507,3.6507,3.6507,3.6507,3.6507,3.6507,3.6367,3.6211,3.6068,3.591,3.5735,3.5539,3.5554,3.5538,3.5504,3.5504,3.5504,3.5504,3.5504,3.5504,3.8285,4.0707,4.2969,4.3271,4.371,4.4099,4.4198,4.3648,4.3109,4.3115,4.1589,4.007,3.9576,3.9884,4.0476,4.1217,4.3027,4.5213,4.7682,4.8391,4.9011,4.9954,5.1023,5.1425,5.0726,5.1292,5.1674,5.1674,5.1302,5.1251,5.1658,5.1285,5.1065,5.1065,5.0438,5.0135,5.022,4.983,4.9407,4.9001,4.9001,4.9001,4.9001,4.9001,4.8829,4.8497,0.0,4.7852,4.7522,4.7204,4.7069,4.7035,4.6622,4.645,4.6413,4.5987,4.557,4.5234,4.5234,4.529,4.5447,4.5746,4.5551,4.5234,4.5234,4.4933,4.4591,4.4591,4.4591,4.4529,4.4237,4.3867,4.3421,4.2756,4.2271,4.1745,4.1117,4.1171,4.1389,4.1408,4.0922,4.0474,4.043,4.0153,3.9814,3.943,3.9384,3.9138,3.8461,3.8107,3.7692,3.7015,3.6938,3.6815,3.6538,3.6507,3.646,3.6367,3.6258,3.6101,3.5879,3.5752,3.5637,3.5504,3.5504,3.5504,3.5504,3.5504,3.5504,3.5504,3.5504,3.5504,4.1659,4.28,4.3621,4.506,4.4338,4.3107,4.2442,4.1576,4.0916,4.0916,3.9732,3.8899,3.9537,3.9305,3.9305,4.0235,4.1098,4.2912,4.6583,4.7259,4.8078,4.9942,5.1514,5.1933,5.059,5.1665,5.2469,5.2469,5.2353,5.2302,5.23,5.2215,5.2114,5.2012,5.0776,4.9746,4.9018,4.9001,4.9001,4.9001,4.8892,4.8845,4.8845,4.8751,4.837,4.7704,4.6987,4.6302,4.5663,4.4926,4.4679,4.4738,4.4551,4.4545,4.4603,4.449,4.4468,4.4468,4.4575,4.4221,4.384,4.4406,4.4483,4.4344,4.4437,4.4468,4.4468,4.4468,4.4529,4.4452,4.3759,4.367,4.3528,4.2786,4.2602,4.2448,4.1863,4.2186,4.2602,4.2602,4.1614,4.0984,4.1632,4.1199,4.0722,4.052,4.0489,4.023,3.9461,3.8938,3.8322,3.7537,3.746,3.7167,3.6491,3.6429,3.6352,3.6179,3.6179,3.6022,3.572,3.5704,3.5637,3.5504,3.5504,3.5504,3.5504,3.5504,3.5504,3.5504,3.5504,3.5504,4.0724,4.1739,4.2871,4.3745,4.3259,4.2527,4.2348,4.0794,3.9377,3.9377,3.8205,3.7207,3.7354,3.8256,3.9643,4.1606,4.3095,4.5091,4.8189,4.9678,5.0561,5.0938,5.2352,5.3197,5.291,5.3129,5.3298,5.3298,5.2685,5.2298,5.2301,5.1708,5.11,5.049,5.0235,4.9746,4.9018,4.9001,4.9001,4.8986,4.837,4.8096,4.808,4.7456,4.7102,4.695,4.6264,0.0,4.5719,4.5054,4.5083,4.5479,4.4316,4.4179,4.4609,4.4003,4.3759,4.3855,4.4406,4.4514,4.4452,4.456,4.3852,4.3048,4.3605,4.3759,4.3759,4.3759,4.416,4.4452,4.3759,4.4006,4.4113,4.2894,4.2602,4.2571,4.2463,4.2525,4.2602,4.2602,4.2399,4.2294,4.2399,4.2325,4.183,4.0691,4.0489,4.0061,3.883,3.9061,3.8795,3.7407,3.7237,3.6928,3.6145,3.6084,3.6068,3.6037,3.6037,3.5926,3.5704,3.5704,3.5637,3.5504,3.5504,3.5504,3.5504,3.5504,3.5504,3.5504,3.5504,3.5504,4.1543,4.2614,4.3589,4.3545,4.2698,4.1549,4.0298,3.8647,3.728,3.6886,3.6176,3.5757,3.6288,3.7513,3.8903,4.0354,4.186,4.4009,4.7378,4.8783,4.9731,5.0452,5.2285,5.3161,5.2344,5.3007,5.3314,5.2903,5.2903,5.2736,5.2316,5.1948,5.1413,5.0643,5.0275,4.9542,4.8398,4.8034,4.7869,4.7869,4.785,4.7861,4.7844,4.7484,4.7117,4.6727,4.641,0.0,4.5139,4.4826,4.4685,4.4553,4.3539,4.3317,4.3559,4.321,4.3079,4.3128,4.3448,4.3325,4.3113,4.3448,4.3587,4.3713,4.4021,4.4113,4.4113,4.4113,4.4098,4.4009,4.3667,4.3313,4.2882,4.2232,4.1784,4.1614,4.2001,4.1786,4.1814,4.291,4.2556,4.2294,4.3005,4.2833,4.2368,4.1691,4.1291,4.083,4.0201,4.0061,3.9335,3.7549,3.7621,3.7326,3.6192,3.6037,3.5957,3.5847,3.5847,3.5767,3.5589,3.5604,3.557,3.5504,3.5504,3.5504,3.5504,3.5504,3.5504,3.5504,3.5504,3.5504,4.1992,4.2954,4.359,4.2987,4.2012,4.0558,3.8112,3.6601,3.5498,3.4748,3.4448,3.4645,3.5719,3.6733,3.7821,3.9051,4.0218,4.228,4.6035,4.7474,4.8519,4.9561,5.1937,5.2869,5.1257,5.2397,5.2989,5.2343,5.273,5.2852,5.2572,5.2378,5.1925,5.1129,5.0281,4.9176,4.7809,4.7278,4.694,4.681,4.7474,4.7689,4.7561,4.7544,4.7222,4.668,4.6523,0.0,0.0,4.4298,4.3867,4.3297,4.2479,4.2245,4.2402,4.2402,4.2402,4.2417,4.2556,4.2263,4.1909,4.2432,4.311,4.3759,4.3913,4.3959,4.3959,4.3959,4.3682,4.3344,4.3205,4.2512,4.1786,4.1632,4.1261,4.1076,4.1509,4.1261,4.143,4.3066,4.2525,4.214,4.3205,4.3082,4.2725,4.2432,4.2012,4.1656,4.1331,4.0756,3.9665,3.7778,3.7971,3.7643,3.6175,3.5957,3.583,3.5671,3.5654,3.5605,3.5504,3.5504,3.5504,3.5504,3.5504,3.5504,3.5504,3.5504,3.5504,3.5504,3.5504,3.5504,4.0288,4.0736,4.0848,4.0785,4.0617,3.9773,3.7063,3.5734,3.4861,3.4062,3.3819,3.4155,3.5408,3.5729,3.6727,3.9542,4.0113,4.1509,4.5272,4.7603,4.892,4.898,5.1673,5.2869,5.1257,5.1897,5.2378,5.2307,5.168,5.1933,5.3314,5.2695,5.1925,5.1129,4.9739,4.863,4.7809,4.7745,4.739,4.681,4.7412,4.7396,4.6811,4.6733,4.6673,4.6583,4.5966,4.5264,0.0,4.3279,4.2756,4.2571,4.1214,4.1091,4.1694,4.1694,4.1694,4.1786,4.2402,4.2571,4.2525,4.2586,4.1814,4.0999,4.1678,4.1878,4.1878,4.1878,4.2279,4.2556,4.194,4.214,4.2355,4.174,4.2017,4.2263,4.1724,4.2032,4.2463,4.2663,4.2602,4.2556,4.2679,4.3159,4.3097,4.1878,4.1996,4.1762,4.0488,4.0101,3.9419,3.8007,3.7965,3.7348,3.5707,3.5553,3.5537,3.5521,3.5521,3.5521,3.5504,3.5504,3.5504,3.5504,3.5504,3.5504,3.5504,3.5504,3.5504,3.5504,3.5504,3.5504,3.9609,4.0785,4.1446,4.0166,3.9244,3.7992,3.5486,3.4044,3.3055,3.2325,3.2992,3.3799,3.4097,3.4669,3.5678,3.7364,3.7277,3.844,4.244,4.3506,4.4778,4.7229,4.9091,5.0238,5.0368,5.1105,5.157,5.157,5.084,5.0878,5.2005,5.1292,5.0712,5.0405,4.9381,4.8469,4.7682,4.7274,4.6947,4.668,4.7341,4.7511,4.7227,4.7205,4.7204,4.7157,4.648,4.5592,0.0,4.359,4.2743,4.1909,4.0891,4.0691,4.0937,4.0937,4.0937,4.0984,4.1245,4.1337,4.1337,4.1337,4.0968,4.0705,4.1863,4.2202,4.2202,4.2202,4.2109,4.2125,4.2666,4.2694,4.2325,4.1199,4.1137,4.1261,4.0999,4.1153,4.1461,4.1925,4.2001,4.2125,4.254,4.2817,4.2765,4.2119,4.1847,4.1448,4.0771,4.0256,3.9546,3.8489,3.8398,3.7818,3.6358,3.6154,3.6088,3.6088,3.5729,3.5504,3.5504,3.5504,3.5504,3.5504,3.5504,3.5504,3.5504,3.5504,3.5504,3.5504,3.5504,3.5504,3.8102,3.9797,4.0923,3.9015,3.7864,3.6564,3.4091,3.2835,3.1992,3.1287,3.2543,3.3725,3.3492,3.4194,3.5005,3.5655,3.5524,3.6531,3.9901,4.0621,4.1894,4.4786,4.6457,4.7743,4.8564,4.9917,5.0748,5.0748,5.0206,5.0163,5.071,4.9951,4.963,4.9888,4.8958,4.8163,4.7604,4.7127,4.6803,4.6603,4.7481,4.7788,4.7619,4.7819,4.7788,4.7573,4.688,0.0,0.0,4.3744,4.2758,4.1801,4.0876,4.0489,4.0489,4.0489,4.0489,4.0489,4.0489,4.0489,4.0489,4.0489,4.0489,4.0691,4.1676,4.1984,4.1984,4.1984,4.1648,4.154,4.2712,4.2494,4.1737,4.0753,4.0489,4.0489,4.0489,4.0489,4.0661,4.1168,4.1278,4.1414,4.1891,4.2153,4.2273,4.2116,4.1759,4.1449,4.1304,4.0601,3.9795,3.8993,3.8915,3.8299,3.6763,3.6543,3.6419,3.6224,3.5759,3.5504,3.5504,3.5504,3.5504,3.5504,3.5504,3.5504,3.5504,3.5504,3.5504,3.5504,3.5504,3.5504,3.5283,3.6954,3.8226,3.6879,3.6512,3.5791,3.3039,3.2396,3.2174,3.1357,3.2691,3.3995,3.3998,3.4431,3.4884,3.5161,3.5759,3.6715,3.8219,4.0246,4.1597,4.1658,4.4244,4.5929,4.5673,4.824,4.9908,4.9908,4.9908,0.0,4.9908,4.9097,4.9,4.9868,4.8408,4.7604,4.7604,4.7588,4.7265,4.6619,4.7958,4.825,4.7635,4.8276,4.8235,4.7573,4.688,0.0,0.0,4.3433,4.2602,4.2445,4.1061,4.0489,4.0489,4.0489,4.0489,4.0489,4.0489,4.0489,4.0489,4.0489,4.0489,4.0489,4.0522,4.052,4.052,4.052,4.0522,4.0691,4.1432,4.1061,4.0522,4.0489,4.0489,4.0489,4.0489,4.0489,4.0489,4.0505,4.0505,4.0505,4.052,4.1122,4.1617,4.1617,4.183,4.1984,4.1984,4.1061,4.0142,3.9451,3.9391,3.8616,3.6673,3.6508,3.6224,3.5549,3.5504,3.5504,3.5504,3.5504,3.5504,3.5504,3.5504,3.5504,3.5504,3.5504,3.5504,3.5504,3.5504,3.5504,3.3854,3.4873,3.5542,3.4611,3.3691,3.2668,3.1329,3.103,3.096,3.0709,3.215,3.3342,3.2962,3.3342,3.389,3.4439,3.4802,3.5627,3.7338,3.9075,4.0846,4.269,4.579,4.7738,4.766,4.848,4.9,4.9,4.9,4.9,4.9,4.8749,4.8728,4.9,4.8548,4.8276,4.8276,4.8276,4.8189,4.7953,4.8399,4.8476,4.8296,4.8035,4.7558,4.685,4.573,0.0,0.0,4.2371,4.1614,4.1122,4.0659,4.0814,4.1184,4.0691,4.0814,4.1186,4.0659,4.0489,4.0489,4.0489,4.0489,4.0489,4.0489,4.0489,4.0489,4.0489,4.0861,4.1184,4.0922,4.1045,4.1107,4.0612,4.0489,4.0489,4.0489,4.0489,4.0489,4.0489,4.0489,4.0489,4.0489,4.0691,4.0773,4.0527,4.0568,4.0543,4.0257,3.9931,3.9631,3.9421,3.9406,3.8958,3.7901,3.7375,3.703,3.6821,3.5967,3.5504,3.5504,3.5504,3.5714,3.6163,3.6178,3.6178,3.6178,3.6178,3.5953,3.5504,3.5504,3.5504,3.2028,3.2967,3.3597,3.3136,3.2013,3.092,3.0494,3.0202,3.0094,3.034,3.1691,3.2743,3.2446,3.2841,3.3274,3.3486,3.4071,3.5078,3.6714,3.8418,4.0492,4.3225,4.5854,4.7573,4.7835,4.8291,4.8599,4.8599,4.8599,4.8599,4.8599,4.8599,4.8599,4.8599,4.8599,4.8599,4.8599,4.8599,4.8599,4.8599,4.8337,4.8214,4.8204,4.7265,4.6619,4.6142,4.4806,0.0,0.0,4.2355,4.1863,4.1632,4.1107,4.1199,4.1509,4.0768,4.0799,4.1107,4.0676,4.0489,4.0489,4.0489,4.0489,4.0489,4.0489,4.0489,4.0568,4.0845,4.1045,4.1137,4.0968,4.1045,4.1061,4.0614,4.0489,4.0489,4.0489,4.047,4.0436,4.0436,4.0366,4.0314,4.0314,4.0314,4.0244,4.0031,3.9943,3.9801,3.9553,3.946,3.9406,3.9406,3.9406,3.9227,3.8811,3.8153,3.7674,3.7419,3.6671,3.6222,3.6222,3.6222,3.6312,3.6508,3.6508,3.6389,3.6118,3.6118,3.5908,3.5504,3.5504,3.5504,0.0,3.1168,3.2119,3.2119,3.1168,3.0263,3.0263,2.9802,0.0,3.0202,3.1293,3.2204,3.2369,3.2801,3.3036,3.2679,3.3674,3.4983,3.6384,3.8431,4.0786,4.3421,4.496,4.5988,4.648,4.7788,4.8599,4.8599,4.8599,4.8599,4.8599,4.8599,4.8599,4.8599,4.8599,4.8599,4.8599,4.8599,4.8599,4.8583,4.7927,4.7604,4.7558,4.6157,4.5499,0.0,0.0,0.0,0.0,4.3017,4.2863,4.3251,4.2081,4.1601,4.1509,4.0768,4.052,4.0584,4.0522,4.0489,4.0489,4.0489,4.0489,4.0489,4.0489,4.0489,4.0645,4.134,4.103,4.0676,4.1337,4.0997,4.0472,4.047,4.0455,4.0455,4.0455,4.0366,4.0277,4.0277,4.0119,4.0011,4.0011,4.0041,4.0071,4.0054,3.9942,3.9817,3.9772,3.9592,3.9451,3.9406,3.9406,3.9406,3.9406,3.8796,3.8108,3.7449,3.7387,3.7389,3.7345,3.7345,3.7105,3.6643,3.6598,3.6267,3.5714,3.5624,3.5594,3.5639,3.5639,3.5639,2.8784,0.0,2.935,2.935,2.9092,2.8876,0.0,2.9138,2.9433,2.9599,3.067,3.1743,3.2302,3.2506,3.3058,3.452,3.4628,3.5137,3.6999,4.0372,4.3267,4.4929,4.6757,4.7357,4.5957,4.7511,4.8599,4.8599,4.8599,4.8599,4.8599,4.8599,4.8599,4.8599,4.8599,4.8599,4.8599,4.8599,4.8599,4.8583,4.7927,4.7604,4.7542,4.5684,4.456,0.0,0.0,0.0,4.1476,4.174,4.1601,4.1245,4.1509,4.1601,4.1509,4.0768,4.0861,4.1263,4.0707,4.0489,4.0489,4.0489,4.0489,4.0472,4.0383,4.0418,4.0536,4.0707,4.0628,4.0518,4.0598,4.0486,4.0296,4.0154,4.0119,4.0119,4.0119,4.0084,4.0066,4.0066,4.0031,4.0011,4.0011,4.0436,4.07,4.0559,4.0939,4.0997,4.0324,4.0176,3.9978,3.9451,3.9406,3.9406,3.9406,3.8796,3.8108,3.7449,3.7387,3.7195,3.6733,3.6701,3.7107,3.7945,3.7449,3.736,3.7721,3.6748,3.6492,3.6956,3.6956,3.6956,2.8411,2.8411,2.8411,2.8411,2.8411,2.8411,2.8411,2.8676,2.9122,2.9725,3.043,3.1336,3.2613,3.2859,3.3351,3.4798,3.5245,3.6353,3.9,4.154,4.3882,4.5838,4.6742,4.7157,0.0,4.7973,4.8599,4.8599,4.8599,4.8599,4.8599,4.8599,4.8599,4.8599,4.8599,4.8599,4.8599,4.8599,4.8445,4.8122,4.7465,4.6973,4.6619,4.4914,4.3947,0.0,0.0,0.0,4.1491,4.1876,4.1814,4.1476,4.1571,4.1601,4.1509,4.0768,4.0753,4.103,4.0645,4.0489,4.0489,4.0489,4.0489,4.0489,4.0418,4.0401,4.0383,4.0296,4.0261,4.0244,4.0172,4.0154,4.0137,4.0028,4.0011,4.0011,4.0011,3.9925,3.9947,4.0265,4.0254,4.0182,4.0182,4.0739,4.1038,4.0626,4.1134,4.1291,4.0505,4.0397,4.0142,3.9466,3.9406,3.9406,3.9406,3.908,3.8706,3.8329,3.8315,3.8165,3.7838,3.7838,3.7868,3.7943,3.7584,3.7449,3.7541,3.7105,3.709,3.7387,3.7387,3.7387,2.8369,2.8461,2.8535,2.8427,2.8488,2.8535,2.8415,2.8411,2.8753,2.9999,3.0325,3.0971,3.2906,3.3336,3.366,3.452,3.5953,3.8154,4.1571,4.2633,4.3895,4.6172,4.6223,4.6603,4.8019,4.8414,4.8599,4.8599,4.8527,4.8476,4.8583,4.8419,4.8337,4.843,4.8337,4.8291,4.8291,4.8491,4.8245,4.7588,4.6927,4.6188,4.5407,4.4052,4.339,4.327,0.0,0.0,4.2276,4.2402,4.2368,4.223,4.1786,4.1524,4.137,4.0737,4.0489,4.047,4.047,4.047,4.0472,4.0489,4.0489,4.0505,4.0487,4.0366,4.0207,4.0013,3.9978,3.9978,3.996,3.9943,3.9958,3.9922,3.9922,3.9922,3.9922,3.9768,3.9841,4.0519,4.0526,4.0427,4.0531,4.1119,4.1358,4.0786,4.1283,4.1463,4.0786,4.0715,4.0412,3.9631,3.9556,3.9511,3.9406,3.9406,3.9406,3.9406,3.9406,3.9346,3.9257,3.9346,3.8808,3.7584,3.7464,3.721,3.6793,3.721,3.7464,3.7569,3.7656,3.7701,2.8258,2.8815,2.9107,2.855,2.883,2.9107,2.8535,2.8411,2.8615,2.9399,3.0002,3.0845,3.229,3.3013,3.3829,3.5137,3.7415,4.0214,4.3667,4.4729,4.528,4.5715,4.7173,4.7588,4.6188,4.7604,4.8599,4.8599,4.806,4.8004,4.8568,4.7527,4.7173,4.7742,4.7204,4.6911,4.6911,4.8014,4.8245,4.7588,4.6927,4.5942,4.4714,4.3356,4.2448,4.1863,0.0,4.0812,4.0876,4.1509,4.1384,4.0876,4.1401,4.1232,4.0661,4.0536,4.0436,4.0331,4.0331,4.0331,4.0364,4.047,4.0489,4.0472,4.0366,4.0207,3.9996,3.9803,3.9872,3.996,3.9785,3.975,3.9696,3.9532,3.9496,3.9496,3.9496,3.9478,3.964,4.0317,4.0415,4.0576,4.1149,4.1792,4.2216,4.2111,4.2626,4.2791,4.2167,4.2096,4.1613,4.0382,4.0247,4.0023,3.9451,3.9406,3.9406,3.9406,3.9406,3.9137,3.8571,3.9092,3.9032,3.8257,3.7689,3.7629,3.811,3.7629,3.7689,3.8257,3.8841,3.9092,2.778,2.8599,2.9322,2.9015,2.9433,2.9769,2.9092,2.923,2.9769,3.0812,3.1274,3.2013,3.3751,3.4614,3.5891,3.8385,4.0139,4.1986,4.4283,4.4545,4.4929,4.6003,0.0,4.7034,4.7204,4.8045,4.8599,4.8599,4.7989,4.7742,4.805,4.7127,4.6742,4.705,4.6757,4.6603,4.6603,4.7219,4.7188,4.6511,4.5853,4.5006,4.404,4.3048,4.2232,4.1586,0.0,4.0876,4.052,4.0876,4.0814,4.0536,4.0789,4.0692,4.0383,4.0261,4.0189,4.0137,4.0137,4.0207,4.0296,4.0366,4.0383,4.0383,4.0329,4.0069,3.9821,3.9732,3.9679,3.9658,3.9553,3.9535,3.9517,3.9409,3.9406,3.9406,3.9406,3.9675,4.0142,4.0801,4.1239,4.1568,4.1901,4.2481,4.2776,4.2455,4.291,4.307,4.2485,4.2396,4.1901,4.0531,4.0397,4.0127,3.9466,3.9406,3.9406,3.9406,3.9406,3.9257,3.896,3.9227,3.9077,3.8424,3.8452,3.8452,3.8409,3.8452,3.8629,3.896,3.9257,3.9406,2.7349,2.8381,2.9369,2.9199,2.9664,3.0109,2.9907,3.0138,3.0817,3.2321,3.2628,3.3181,3.4937,3.6076,3.78,4.1063,4.2294,4.3402,4.5068,4.4868,4.5176,4.6865,4.6619,4.6911,4.8445,4.8599,4.8599,4.8599,4.7814,4.7434,4.7588,4.6665,4.6188,4.6357,4.6203,4.6126,4.6126,4.6126,4.5942,4.5588,4.5083,4.4391,4.3578,4.291,4.2232,4.1586,4.1381,4.0979,4.0489,4.0418,4.0418,4.0453,4.0294,4.0242,4.0207,3.9996,3.9925,3.9925,3.9925,4.0031,4.0172,4.0207,4.0242,4.0242,4.0242,3.998,3.9699,3.9699,3.9553,3.9406,3.9406,3.9406,3.9406,3.9406,3.9526,3.9631,3.9631,4.0172,4.0831,4.1493,4.2051,4.244,4.2586,4.3,4.3145,4.269,4.3015,4.313,4.2676,4.2601,4.2167,4.098,4.0879,4.0531,3.969,3.9631,3.9571,3.9406,3.9406,3.9406,3.9406,3.9406,3.9152,3.8631,3.8973,3.8916,3.8409,3.8916,3.9167,3.9167,3.9331,3.9406,2.7211,2.8381,2.9245,2.8642,2.8984,2.9784,3.0979,3.0812,3.0955,3.2921,3.3336,3.3583,3.4428,3.6138,3.8338,4.114,4.2681,4.4421,4.7019,4.7342,4.7604,4.8353,4.8399,4.843,4.8583,4.8599,4.8599,4.8599,4.7404,4.6942,4.7573,4.5772,4.5022,4.5653,4.5068,4.4745,4.4745,4.4745,4.5037,4.5607,4.5561,4.4852,4.3578,4.291,4.2232,4.1555,4.0751,4.0429,4.0472,4.0172,4.0154,4.0279,4.0101,4.0013,4.0011,3.9803,3.9732,3.9732,3.9732,3.9732,3.9785,3.996,4.0013,4.0013,4.0013,3.9872,3.9699,3.9699,3.9553,3.9406,3.9406,3.9406,3.9406,3.9406,3.9888,4.0337,4.0337,4.0846,4.1523,4.2201,4.2366,4.2571,4.3145,4.326,4.329,4.325,4.326,4.3275,4.325,4.325,4.2965,4.2336,4.2261,4.1733,4.0442,4.0337,4.0068,3.9436,3.9406,3.9406,3.9406,3.9406,3.9376,3.9331,3.8766,3.8454,3.8409,3.8454,3.8484,3.8482,3.9107,3.9406,2.6688,2.8057,2.9338,2.9092,2.9538,3.0261,3.1195,3.1844,3.2722,3.4368,3.5368,3.6292,3.74,3.8954,4.0801,4.3097,4.4591,4.6095,4.7973,4.8214,4.8327,4.8568,4.8599,4.8599,4.8599,4.8599,4.8414,4.8019,4.7127,4.6526,4.6357,4.5237,4.4714,4.4976,4.4729,4.4591,4.4591,4.4591,4.4729,4.4976,4.456,4.3867,4.2956,4.2279,4.1601,4.0891,4.0489,4.0329,4.0349,4.0101,4.0031,4.0084,3.9892,3.9747,3.9622,3.9535,3.9517,3.9517,3.9517,3.9607,3.9699,3.9785,3.9803,3.9803,3.9803,3.9661,3.9517,3.9517,3.9445,3.9406,3.9406,3.9406,3.9511,3.9915,4.0217,4.0502,4.092,4.1553,4.2111,4.2351,4.2705,4.3025,4.3245,4.329,4.329,4.329,4.329,4.329,4.329,4.329,4.307,4.247,4.2036,4.1568,4.1074,4.1029,4.0726,4.0068,3.9631,3.9406,3.9406,3.9406,3.9406,3.9406,3.9152,3.9017,3.9017,3.9017,3.9017,3.9017,3.9272,3.9406,2.6391,2.7703,2.9138,2.9353,2.9894,3.0753,3.2073,3.3089,3.4259,3.6061,3.7169,3.8231,3.9568,4.0599,4.1986,4.4237,4.573,4.7065,4.8399,4.8599,4.8599,4.8599,4.8599,4.8599,4.8599,4.8399,4.8076,4.7635,4.6713,4.6001,4.554,4.4822,4.4454,4.4496,4.4454,4.4346,4.4188,4.4132,4.4024,4.3866,4.3334,4.2993,4.2787,4.1912,4.1201,4.0637,4.0265,4.0139,4.0189,3.9925,3.9801,3.9801,3.9661,3.9517,3.9406,3.9406,3.9406,3.9406,3.9406,3.9481,3.9607,3.9607,3.9607,3.9607,3.9607,3.9517,3.9451,3.9645,3.9556,3.9496,3.9915,3.987,3.9825,4.0292,4.0711,4.1164,4.1613,4.2226,4.269,4.269,4.301,4.329,4.329,4.329,4.329,4.329,4.329,4.329,4.329,4.329,4.3145,4.2735,4.2267,4.1908,4.1733,4.1718,4.1433,4.0756,4.0292,3.9825,3.9421,3.9406,3.9406,3.9406,3.9406,3.9496,3.9705,3.9705,3.981,4.0019,4.0019,4.0019,2.6391,2.738,2.8569,2.9245,2.991,3.1153,3.389,3.4505,3.526,3.7954,3.8522,3.8938,4.0259,4.052,4.1414,4.416,4.573,4.7065,4.8383,4.8583,4.8583,4.8583,4.8583,4.8583,4.8583,4.7968,4.7568,4.7568,4.6159,4.5295,4.5295,4.4473,4.4104,4.4301,4.4089,4.3769,4.3307,4.3084,4.2765,4.2297,4.2095,4.243,4.323,4.19,4.1181,4.0952,4.0072,3.9803,3.9975,3.9568,3.9406,3.9406,3.9406,3.9406,3.9406,3.9406,3.9406,3.9406,3.9406,3.9406,3.9406,3.9406,3.9406,3.9406,3.9406,3.9406,3.9556,4.0217,3.9933,3.972,4.1059,4.0905,4.0427,4.0427,4.1433,4.2396,4.241,4.288,4.329,4.329,4.329,4.329,4.329,4.329,4.329,4.329,4.329,4.329,4.329,4.329,4.329,4.329,4.329,4.3055,4.247,4.241,4.2126,4.1448,4.1403,4.0786,3.9466,3.9406,3.9406,3.9406,3.9406,3.9735,4.0397,4.0412,4.0741,4.1403,4.1403,4.1403,2.653,2.7719,2.9261,2.9953,3.1322,3.2982,3.4783,3.4844,3.5383,3.8538,4.0001,4.0955,4.1814,4.2355,4.3097,4.4391,4.533,4.6188,4.7065,4.7482,4.7564,4.723,4.7354,4.7521,4.7666,4.6951,4.6468,4.6468,4.56,4.4895,4.4424,4.4152,4.4026,4.4104,4.3571,4.3221,4.3099,4.2568,4.2234,4.2077,4.155,4.1502,4.1869,4.1327,4.0793,4.0266,3.9861,3.9732,3.9768,3.9499,3.9406,3.9406,3.9406,3.9406,3.9406,3.9406,3.9406,3.9406,3.9406,3.9406,3.9406,3.9406,3.9406,3.9406,3.9406,3.972,4.0142,4.0352,4.0591,4.0909,4.1298,4.1598,4.1807,4.1807,4.2111,4.2511,4.294,4.3175,4.329,4.329,4.329,4.329,4.329,4.329,4.329,4.329,4.329,4.329,4.329,4.329,4.329,4.329,4.329,4.3235,4.304,4.3025,4.2761,4.2156,4.1658,4.1014,4.0142,4.0113,3.987,3.9406,3.9855,4.0202,4.0397,4.0861,4.1209,4.1403,4.1403,4.1403,2.6915,2.8073,2.9615,3.0553,3.2336,3.4351,3.6261,3.7031,3.8047,4.0601,4.1586,4.2279,4.3217,4.3297,4.3605,4.4806,4.5345,4.5818,4.6496,4.6761,4.6803,4.651,4.6549,4.665,4.6773,4.6077,4.5601,4.5601,4.4899,4.4314,4.3901,4.3778,4.3637,4.3492,4.3007,4.2538,4.2103,4.1601,4.1269,4.107,4.0604,4.0462,4.0659,4.0534,4.0214,3.9747,3.9625,3.9589,3.9571,3.9445,3.9406,3.9406,3.9406,3.9406,3.9406,3.9406,3.9406,3.9406,3.9406,3.9571,3.9795,3.9795,3.9993,4.0202,4.0202,4.0292,4.0502,4.1025,4.1104,4.1175,4.1953,4.2286,4.2396,4.2396,4.2571,4.2865,4.322,4.329,4.329,4.329,4.329,4.329,4.329,4.329,4.329,4.329,4.329,4.329,4.329,4.329,4.329,4.329,4.329,4.329,4.329,4.329,4.3145,4.2776,4.2372,4.1863,4.1224,4.0681,4.0217,3.9813,4.0457,4.0939,4.1209,4.1598,4.1927,4.2162,4.2162,4.2162,2.7488,2.8461,2.983,3.1241,3.3227,3.5568,3.8262,4.0339,4.2017,4.3174,4.3079,4.3156,4.4375,4.3587,4.3371,4.5184,4.5476,4.5691,4.6267,4.6226,4.6121,4.6096,4.594,4.5865,4.5865,4.5258,4.4874,4.4934,4.4151,4.367,4.367,4.3423,4.3104,4.2687,4.2428,4.1783,4.0691,4.0429,4.0099,3.9679,3.9481,3.9499,3.9679,3.9679,3.9571,3.9406,3.9406,3.9406,3.9406,3.9406,3.9406,3.9406,3.9406,3.9406,3.9406,3.9406,3.9406,3.9406,3.9466,3.984,4.0337,4.0442,4.0846,4.1328,4.1388,4.1029,4.0831,4.2066,4.1568,4.1085,4.2846,4.2895,4.2485,4.2485,4.2895,4.329,4.329,4.329,4.329,4.329,4.329,4.329,4.329,4.329,4.329,4.329,4.329,4.329,4.329,4.329,4.329,4.329,4.329,4.329,4.329,4.329,4.329,4.329,4.3265,4.297,4.2425,4.1179,4.0457,4.0397,4.1014,4.1628,4.2306,4.2366,4.272,4.329,4.329,4.329,2.8169,2.9169,3.063,3.2505,3.5322,3.8354,4.1093,4.2045,4.2325,4.2078,4.3156,4.4252,4.4545,4.436,4.4257,4.4534,4.4573,4.4561,4.4558,4.4798,4.4855,4.4532,4.4609,4.4729,4.4891,4.4148,4.3883,4.4408,4.3783,4.3384,4.3384,4.3329,4.303,4.2484,4.1901,4.1242,4.0471,3.9906,3.9559,0.0,3.9409,3.9409,3.9463,3.9463,3.9442,3.9406,3.9406,3.9406,3.9406,3.9406,3.9406,3.9406,3.9406,3.9406,3.9406,3.9406,3.9406,3.9481,4.0008,3.993,3.978,4.0831,4.0939,4.0711,4.1239,4.1658,4.2036,4.2321,4.2521,4.2766,4.3185,4.3205,4.3115,4.3115,4.322,4.329,4.329,4.329,4.329,4.329,4.329,4.329,4.329,4.329,4.329,4.329,4.329,4.329,4.329,4.329,4.329,4.329,4.329,4.329,4.329,4.329,4.329,4.329,4.2865,4.2526,4.241,4.1613,4.0954,4.0412,4.0531,4.0954,4.1613,4.2141,4.272,4.329,4.329,4.329,2.8784,2.963,3.1109,3.4137,3.6953,3.9614,4.2063,4.2602,4.2694,4.2989,4.3867,4.4591,4.4591,4.4515,4.4416,4.432,4.4224,4.4108,4.4007,4.4099,4.4091,4.3877,4.3843,4.3858,4.3978,4.3564,4.3439,4.3803,4.3504,4.329,4.329,4.3025,4.2566,4.1927,4.1268,4.0591,3.9933,3.9571,3.9406,3.9406,3.9406,3.9406,3.9406,3.9406,3.9406,3.9406,3.9406,3.9406,3.9406,3.9406,3.9406,3.9406,3.9406,3.9406,3.9406,3.9406,3.9601,3.987,3.99,4.0113,4.0472,4.1179,4.1164,4.1055,4.2028,4.2137,4.2047,4.2656,4.2851,4.294,4.3215,4.329,4.329,4.329,4.329,4.329,4.329,4.329,4.329,4.329,4.329,4.329,4.329,4.329,4.329,4.329,4.329,4.329,4.329,4.329,4.329,4.329,4.329,4.329,4.329,4.329,4.329,4.329,4.3015,4.2821,4.2821,4.2226,4.1703,4.1358,4.1639,4.1949,4.2312,4.2656,4.3,4.329,4.329,4.329,2.9215,3.0061,3.1707,3.5676,3.7923,3.9691,4.1768,4.2337,4.2771,4.4006,4.4437,4.4591,4.4591,4.4435,4.4281,4.4243,4.3978,4.3793,4.3875,4.3663,4.3515,4.3616,4.3443,4.329,4.329,4.329,4.329,4.329,4.329,4.3265,4.3145,4.2571,4.1912,4.1254,4.0457,3.9798,3.9227,3.9227,3.9227,3.9227,3.9346,3.9406,3.9406,3.9406,3.9406,3.9406,3.9406,3.9406,3.9406,3.9406,3.9406,3.9406,3.9406,3.9406,3.9406,3.9526,3.9915,4.0352,4.0038,4.0561,4.1418,4.1523,4.1493,4.1613,4.2651,4.2327,4.1792,4.2846,4.2865,4.2676,4.3175,4.329,4.329,4.329,4.329,4.329,4.329,4.329,4.329,4.329,4.329,4.329,4.329,4.329,4.329,4.329,4.329,4.329,4.329,4.329,4.329,4.329,4.329,4.329,4.329,4.329,4.329,4.329,4.329,4.329,4.329,4.2821,4.2556,4.2556,4.2836,4.3025,4.3145,4.3145,4.3205,4.329,4.329,4.329,2.9215,3.0751,3.2982,3.6492,3.7569,3.8308,4.0322,4.1261,4.1955,4.2709,4.379,4.4591,4.4591,4.4435,4.4243,4.4065,4.3386,4.3008,4.3334,4.2929,4.2759,4.3289,4.3309,4.329,4.329,4.329,4.329,4.329,4.329,4.307,4.2541,4.1882,4.1224,4.0546,3.932,3.8616,3.8527,3.8527,3.8527,3.8542,3.9107,3.9406,3.9406,3.9406,3.9406,3.9406,3.9406,3.9406,3.9406,3.9406,3.9406,3.9406,3.9406,3.9406,3.9466,4.0053,4.0322,4.0546,4.1628,4.1733,4.1493,4.2081,4.1867,4.1433,4.1613,4.1942,4.2306,4.2466,4.2836,4.3205,4.3275,4.329,4.329,4.329,4.329,4.329,4.329,4.329,4.329,4.329,4.329,4.329,4.329,4.329,4.329,4.329,4.329,4.329,4.329,4.329,4.329,4.329,4.329,4.329,4.329,4.329,4.329,4.329,4.329,4.329,4.329,4.322,4.319,4.319,4.2177,4.1942,4.2511,4.2511,4.2776,4.329,4.329,4.329,2.9676,3.143,3.3413,3.5352,3.6953,3.8367,3.9511,4.0629,4.1592,4.2139,4.2734,4.3414,4.4278,4.4262,4.3928,4.3367,4.2857,4.2458,4.2271,4.1669,4.1523,4.2162,4.1889,4.1814,4.2207,4.2237,4.2237,4.2237,4.2237,4.2117,4.1852,4.1209,4.0531,3.9855,3.8901,3.8212,3.7838,3.7838,3.7838,3.7853,3.8527,3.8841,3.8856,3.9227,3.9406,3.9406,3.9406,3.9406,3.9406,3.9406,3.9406,3.9406,3.9406,3.9406,3.9481,4.0157,4.0397,4.0531,4.1493,4.1403,4.0954,4.1613,4.1134,4.0427,4.1179,4.1343,4.1433,4.2186,4.2586,4.2865,4.322,4.329,4.329,4.329,4.329,4.329,4.329,4.329,4.329,4.329,4.329,4.329,4.329,4.329,4.329,4.329,4.329,4.329,4.329,4.329,4.329,4.329,4.329,4.329,4.329,4.329,4.329,4.329,4.329,4.329,4.329,4.329,4.329,4.329,4.2756,4.2611,4.2895,4.2895,4.3025,4.329,4.329,4.329,3.0033,3.1507,3.2936,3.4182,3.5968,3.7642,3.8506,3.9618,4.0662,4.1353,4.162,4.2188,4.364,4.3768,4.3401,4.2583,4.2136,4.1718,4.1224,4.0412,4.0127,4.0801,4.0442,4.0412,4.1089,4.1149,4.1224,4.1388,4.1403,4.1328,4.1149,4.0337,3.9664,3.9152,3.8182,3.7494,3.718,3.718,3.7255,3.7419,3.7913,3.8138,3.8167,3.8841,3.9137,3.9152,3.9331,3.9406,3.9406,3.9406,3.9406,3.9406,3.9406,3.9406,3.9496,4.0352,4.0546,4.0516,4.1358,4.1224,4.0711,4.1044,4.0576,4.0068,4.0891,4.1025,4.1119,4.2126,4.2515,4.2735,4.319,4.329,4.329,4.329,4.329,4.329,4.329,4.329,4.329,4.329,4.329,4.329,4.329,4.329,4.329,4.329,4.329,4.329,4.329,4.329,4.329,4.329,4.329,4.329,4.329,4.329,4.329,4.329,4.329,4.329,4.329,4.329,4.329,4.329,4.329,4.329,4.329,4.329,4.329,4.329,4.329,4.329,3.0033,3.0479,3.1199,3.3828,3.4464,3.4927,3.6868,3.7746,3.8542,3.9829,4.0618,4.1413,4.2557,4.276,4.2534,4.1859,4.1055,4.0487,4.0457,3.932,3.8751,3.9421,3.9466,3.9705,4.0382,4.0442,4.0711,4.1343,4.1403,4.1134,4.0487,3.92,3.8482,3.8437,3.6626,3.5938,3.6553,3.6553,3.6821,3.7387,3.7449,3.7464,3.7462,3.8138,3.8437,3.8482,3.9107,3.9406,3.9406,3.9406,3.9406,3.9406,3.9406,3.9406,3.9556,4.0879,4.0954,4.0591,4.1882,4.1897,4.1254,4.0651,4.0831,4.1194,4.0621,4.1313,4.2306,4.2381,4.2806,4.3245,4.329,4.329,4.329,4.329,4.329,4.329,4.329,4.329,4.329,4.329,4.329,4.329,4.329,4.329,4.329,4.329,4.329,4.329,4.329,4.329,4.329,4.329,4.329,4.329,4.329,4.329,4.329,4.329,4.329,4.329,4.329,4.329,4.329,4.329,4.329,4.329,4.329,4.329,4.329,4.329,4.329,4.329,2.9507,3.0063,3.0711,3.2041,3.3303,3.4332,3.485,3.5802,3.6917,3.8093,3.8527,3.9081,4.0342,4.1385,4.1803,4.101,4.0242,3.9451,3.8601,3.7719,3.7404,3.803,3.7778,3.7793,3.8422,3.8464,3.8751,3.9409,3.9472,3.9382,3.9125,3.8664,3.8035,3.7212,3.6508,3.6043,3.5863,3.5863,3.5968,3.6193,3.6611,3.6821,3.6836,3.7464,3.7988,3.8424,3.8646,3.9005,3.9406,3.9406,3.9406,3.9406,3.9406,3.9406,3.9511,4.0427,4.0337,3.9963,4.1283,4.1044,4.0157,4.0337,4.0277,4.0157,4.0337,4.0726,4.1298,4.2171,4.2556,4.2806,4.3205,4.329,4.329,4.329,4.329,4.329,4.329,4.329,4.329,4.329,4.329,4.329,4.329,4.329,4.329,4.329,4.329,4.329,4.329,4.329,4.329,4.329,4.329,4.3469,4.3908,4.3564,4.3668,4.4541,4.4177,4.4132,4.4571,4.4566,4.4371,4.3953,4.3938,4.3728,4.329,4.329,4.329,4.329,4.329,4.329,2.9215,2.9684,3.0186,3.0995,3.215,3.3179,3.3608,3.4391,3.5367,3.6508,3.6941,3.7509,3.8826,3.9712,4.0202,4.0086,3.969,3.8928,3.7582,3.7045,3.6791,3.6776,3.6611,3.6673,3.706,3.7285,3.7584,3.8018,3.8482,0.0,3.8078,3.8063,3.7479,3.6193,3.6148,3.5953,3.5504,3.5504,3.5504,3.5504,3.5953,3.6148,3.6193,3.703,3.7539,3.7811,3.8452,3.899,3.9406,3.9406,3.9406,3.9406,3.9406,3.9406,3.9481,4.0157,3.9993,3.9556,4.0666,4.0337,3.9466,3.9915,4.0068,4.0157,4.0591,4.104,4.1564,4.2466,4.2705,4.2776,4.3205,4.329,4.329,4.329,4.329,4.329,4.329,4.329,4.329,4.329,4.329,4.329,4.329,4.329,4.329,4.329,4.329,4.329,4.329,4.3504,4.3564,4.3319,4.3698,4.4057,4.4282,4.4102,4.4341,4.5229,4.4885,4.484,4.5274,4.5289,4.499,4.4311,4.4296,4.3967,4.329,4.329,4.329,4.329,4.329,4.329,0.0,0.0,0.0,3.08,3.0961,3.127,3.3156,3.3501,3.3799,3.516,3.5953,3.6808,3.808,3.7778,3.7778,3.9077,3.9316,3.8868,3.7522,3.7327,3.6896,3.5654,3.6073,3.6493,3.6523,3.7045,3.7389,3.7387,3.8584,3.8748,3.7432,3.7342,3.6774,3.5549,3.5504,3.5504,3.5504,3.5489,3.5489,3.5504,3.5489,3.5489,3.5533,3.6774,3.7045,3.6613,3.8512,3.9331,3.9346,3.9391,3.9406,3.9406,3.9406,3.9406,3.9481,4.0127,3.9945,3.9496,4.0142,3.993,3.9406,3.9406,4.0292,4.1373,4.1388,4.2282,4.3275,4.329,4.329,4.329,4.329,4.329,4.329,4.329,4.329,4.329,4.329,4.329,4.329,4.329,4.329,4.329,4.329,4.329,4.329,4.329,4.329,4.329,4.329,4.3893,4.4042,4.3364,4.4476,4.502,4.4371,4.4915,4.5289,4.5349,4.5334,4.5334,4.5349,4.5349,4.505,4.4371,4.4356,4.4027,4.3349,4.3319,4.3305,4.3319,4.3349,4.3349,2.8363,0.0,0.0,0.0,0.0,0.0,3.119,3.1359,3.1854,3.3679,3.4203,3.4726,3.6058,3.6148,3.6163,3.6522,3.7342,3.7492,3.6222,3.6028,3.5893,3.5533,3.5669,3.6148,3.706,3.6911,3.6926,0.0,3.7345,3.7135,3.6761,3.6282,3.5847,3.5519,3.5504,3.5504,3.5504,3.5011,3.5011,3.5489,3.5012,3.5026,3.5519,3.5847,3.6193,3.6538,3.706,3.7554,3.8015,3.9002,3.9406,3.9406,3.9406,3.9406,3.9421,3.9616,3.9556,3.9436,3.9616,3.9556,3.9406,3.9406,3.9993,4.0775,4.1254,4.1987,4.275,4.319,4.329,4.329,4.329,4.329,4.329,4.329,4.329,4.329,4.329,4.329,4.329,4.329,4.329,4.329,4.329,4.329,4.329,4.329,4.329,4.329,4.329,4.3893,4.4042,4.3364,4.4072,4.4706,4.5005,4.4751,4.52,4.6651,4.6285,4.6241,4.6726,4.6756,4.6441,4.5762,4.5747,4.5418,4.4751,4.3773,4.3564,4.4042,4.4506,4.4751,0.0,0.0,0.0,2.8774,0.0,0.0,2.9996,3.0118,3.0522,3.1943,3.2482,3.308,3.4427,3.4666,3.4861,3.5415,3.5893,3.5923,3.5191,3.5325,3.5295,3.4741,3.4906,3.537,3.6118,3.6118,3.6222,3.6582,3.6776,3.6641,3.6103,3.5175,3.4786,3.507,3.507,3.522,3.5504,3.4832,3.4697,3.507,3.4682,3.4697,3.51,3.5654,3.5968,3.6103,3.6641,3.7075,3.7477,3.8556,3.899,3.899,3.899,3.9152,3.9406,3.9406,3.9406,3.9406,3.9406,3.9586,3.9765,3.9496,4.0232,4.1254,4.1373,4.2047,4.2851,4.3205,4.329,4.329,4.329,4.329,4.329,4.329,4.329,4.329,4.329,4.329,4.329,4.329,4.329,4.329,4.329,4.329,4.329,4.329,4.329,4.3394,4.3683,4.4296,4.4571,4.4177,4.4969,4.5603,4.5723,4.5618,4.6052,4.7234,4.6929,4.6884,4.7294,4.7309,4.6973,4.6315,4.63,4.5956,4.5289,4.4526,4.4326,4.4736,4.511,4.5289,0.0,0.0,0.0,2.8401,2.8695,0.0,2.946,2.9713,2.9967,3.0507,3.1091,3.1854,3.3066,3.3275,3.3664,3.486,3.4563,3.4218,3.4384,3.4891,3.4846,3.3634,3.4024,3.4443,3.4592,3.507,3.5385,3.5385,3.6372,3.646,3.534,3.4143,3.3784,3.4368,3.4383,3.4682,3.528,3.4622,3.4338,3.4503,3.4413,3.4458,3.4637,3.585,3.6058,3.5564,3.6701,3.7195,3.724,3.7898,3.832,3.8497,3.8497,3.8886,3.9406,3.9406,3.9406,3.9406,3.9406,3.9825,4.0292,3.9616,4.0756,4.2276,4.1598,4.2297,4.329,4.329,4.329,4.329,4.329,4.329,4.329,4.329,4.329,4.329,4.329,4.329,4.329,4.329,4.329,4.329,4.329,4.3349,4.3379,4.3305,4.3444,4.3713,4.4222,4.496,4.5379,4.5304,4.6441,4.6943,4.6345,4.6839,4.7234,4.7309,4.7309,4.7309,4.7309,4.7309,4.7018,4.642,4.6405,4.6127,4.5514,4.5364,4.5334,4.5409,4.5484,4.5514,0.0,0.0,0.0,0.0,2.8672,0.0,2.9574,3.0387,3.1152,3.1271,3.1406,3.1585,3.1839,3.1884,3.1974,3.2243,3.2168,3.2467,3.3529,3.3799,3.3784,3.3529,3.362,3.4113,3.5205,3.4937,3.4697,3.4697,3.4443,3.4143,3.3903,3.3634,3.3559,3.3694,3.3709,3.3769,3.3888,3.323,3.3425,3.4503,3.3949,3.4262,3.531,3.5579,3.5624,3.5519,3.5774,3.5878,3.5923,3.6582,3.7793,3.9197,3.9197,3.9287,3.9406,3.9406,3.9406,3.9406,3.9406,3.9825,4.0292,3.9616,4.0756,4.2276,4.1598,4.2297,4.329,4.329,4.329,4.329,4.329,4.329,4.329,4.329,4.329,4.329,4.329,4.329,4.329,4.329,4.329,4.329,4.329,4.3758,4.3923,4.3384,4.4207,4.4766,4.4341,4.5358,4.5897,4.5349,4.6022,4.6435,4.6315,4.642,4.6719,4.7279,4.7309,4.7309,4.7309,4.7309,4.7249,4.7115,4.7115,4.7055,4.692,4.5828,4.5589,4.6121,4.6666,4.692,0.0,0.0,0.0,2.7613,2.814,0.0,0.0,2.9599,3.023,3.087,3.1002,3.1002,3.1002,3.1271,3.1391,3.1061,3.1271,3.1735,3.2407,3.2497,3.2497,3.2497,3.2497,3.2901,3.3903,3.3694,3.3649,3.3979,3.338,3.3006,3.3006,3.2677,3.2662,3.2991,3.3006,3.3155,3.3499,3.2841,3.3006,3.3994,3.3649,3.4023,3.5012,3.5355,3.5504,3.5504,3.5504,3.5863,3.646,3.6806,3.7719,3.8901,3.8901,3.9107,3.9406,3.9406,3.9406,3.9406,3.9406,3.9825,4.0292,3.9616,4.0756,4.2276,4.1598,4.2297,4.329,4.329,4.329,4.329,4.329,4.329,4.329,4.329,4.329,4.329,4.329,4.329,4.329,4.329,4.329,4.329,4.329,4.3579,4.3698,4.3349,4.3878,4.4416,4.4766,4.5394,4.5933,4.6262,4.6606,4.6794,4.6794,4.6794,4.6929,4.7279,4.7309,4.7309,4.7309,4.7309,4.7309,4.7309,4.6958,4.698,4.7309,4.6292,4.6136,4.6809,4.7145,4.7309,0.0,0.0,0.0,0.0,0.0,2.8219,0.0,0.0,0.0,3.0315,3.0503,3.0532,3.0673,3.1036,3.1127,3.0584,3.1062,3.1451,3.1331,3.1421,3.1511,3.1511,3.1511,3.1705,3.2258,3.2318,3.2527,3.308,3.2602,3.2318,3.2318,3.1795,3.175,3.2288,3.2318,3.2572,3.311,3.2572,3.2706,3.3499,3.3499,3.3919,3.4712,3.525,3.5504,3.5519,3.5639,3.6282,3.7255,3.7494,3.7838,3.8227,3.8482,3.8841,3.9212,3.9346,3.9406,3.9406,3.9406,3.9825,4.0292,3.9616,4.0666,4.2126,4.1718,4.2402,4.329,4.329,4.329,4.329,4.329,4.329,4.329,4.329,4.329,4.329,4.329,4.329,4.329,4.329,4.329,4.329,4.329,4.3409,4.3439,4.3319,4.3638,4.4222,4.517,4.5529,4.6097,4.7189,4.7309,4.7309,4.7309,4.7309,4.7309,4.7309,4.7309,4.7309,4.7309,4.7309,4.7309,4.7309,4.6764,4.6749,4.7309,4.6749,4.6764,4.7309,4.7309,4.7309,0.0,0.0,0.0,0.0,2.8849,0.0,0.0,0.0,3.1033,3.0584,0.0,3.0675,3.1275,0.0,0.0,3.0499,3.1062,3.1286,3.0702,3.1136,3.1511,3.1511,3.1511,3.1525,3.1615,3.1615,3.1645,3.172,3.166,3.1615,3.1615,3.154,3.154,3.1615,3.1615,3.1645,3.1735,3.1645,3.2258,3.3499,3.3499,3.4158,3.5385,3.5474,3.5504,3.5518,3.6118,3.6479,3.6688,3.7808,3.7973,3.7644,3.8808,3.8975,3.8586,3.9167,3.9406,3.9406,3.9406,3.9825,4.0292,3.9616,4.0367,4.1613,4.2126,4.2761,4.329,4.329,4.329,4.329,4.329,4.329,4.329,4.329,4.329,4.329,4.329,4.329,4.329,4.329,4.329,4.329,4.329,4.3788,4.3982,4.3379,4.482,4.5792,4.5349,4.6337,4.713,4.7294,4.7309,4.7309,4.7309,4.7309,4.7309,4.7309,4.7309,4.7309,4.7309,4.7309,4.7309,4.7309,4.7234,4.7234,4.7309,4.7234,4.7234,4.7309,4.7309,4.7309,0.0,0.0,0.0,0.0,0.0,0.0,2.8523,0.0,2.9794,0.0,0.0,0.0,0.0,0.0,0.0,0.0,3.0804,3.1406,3.1122,3.1316,3.1511,3.1511,3.1511,0.0,3.1511,3.1511,3.1511,3.1511,3.1511,3.1511,3.1511,3.1511,3.1511,3.1511,3.1511,3.1511,3.1511,3.1511,3.2168,3.3499,3.3499,3.4203,3.5504,3.5504,3.5504,3.5519,3.5804,3.6342,3.706,3.7599,3.7883,3.8078,3.9032,3.899,3.8484,3.9152,3.9406,3.9406,3.9406,3.9586,3.9825,3.9963,4.0621,4.1523,4.2201,4.2821,4.329,4.329,4.329,4.329,4.329,4.329,4.329,4.329,4.329,4.329,4.329,4.329,4.329,4.329,4.329,4.329,4.329,4.3863,4.4326,4.4431,4.5185,4.5768,4.5873,4.636,4.6869,4.7264,4.7309,4.7309,4.7309,4.7309,4.7309,4.7309,4.7309,4.7309,4.7309,4.7309,4.7309,4.7309,4.7309,4.7309,4.7309,4.7309,4.7309,4.7309,4.7309,4.7309,2.749,0.0,0.0,0.0,0.0,0.0,0.0,0.0,0.0,0.0,0.0,0.0,0.0,0.0,0.0,0.0,0.0,3.116,3.0982,3.1261,3.1511,3.1511,3.1511,0.0,0.0,3.1511,3.1511,3.1511,3.1511,3.1511,3.1511,3.1511,3.1511,3.1511,3.1511,3.1511,3.1511,3.1511,3.2168,3.3499,3.3499,3.4203,3.5504,3.5504,3.5504,3.5519,3.5699,3.6297,3.718,3.7539,3.7853,3.8212,3.9062,3.899,3.8484,3.9152,3.9406,3.9406,3.9406,3.9406,3.9511,4.0187,4.0846,4.1523,4.2201,4.2821,4.329,4.329,4.329,4.329,4.329,4.329,4.329,4.329,4.329,4.329,4.329,4.329,4.329,4.329,4.3439,4.3579,4.3579,4.3833,4.4252,4.493,4.5185,4.5544,4.6211,4.6465,4.6749,4.7249,4.7309,4.7309,4.7309,4.7309,4.7309,4.7309,4.7309,4.7309,4.7309,4.7309,4.7309,4.7309,4.7309,4.7309,4.7309,4.7309,4.7309,4.7309,4.7309,4.7309,0.0,0.0,0.0,2.7794,0.0,0.0,0.0,0.0,2.9205,0.0,0.0,0.0,0.0,0.0,0.0,0.0,0.0,0.0,0.0,3.0674,3.1511,3.1511,3.1511,3.1511,0.0,3.1511,3.1511,3.1511,3.1511,3.1511,3.1511,3.1511,3.1511,3.1511,3.1511,3.1511,3.1511,3.1511,3.2168,3.3499,3.3499,3.4203,3.5504,3.5504,3.5504,3.5549,3.6194,3.6493,3.6628,3.7871,3.8003,3.7552,3.8883,3.899,3.8484,3.9152,3.9406,3.9406,3.9406,3.9406,3.9511,4.0187,4.0846,4.1523,4.2201,4.2821,4.329,4.329,4.329,4.329,4.329,4.329,4.329,4.329,4.329,4.329,4.329,4.329,4.329,4.329,4.3818,4.4267,4.4267,4.3758,4.3564,4.4222,4.4885,4.5544,4.6211,4.6875,4.7279,4.7309,4.7309,4.7309,4.7309,4.7309,4.7309,4.7309,4.7309,4.7309,4.7309,4.7309,4.7309,4.7309,4.7309,4.7309,4.7309,4.7309,4.7309,4.7309,4.7309,4.7309,0.0,0.0,2.8704,2.8686,0.0,0.0,0.0,0.0,0.0,0.0,0.0,0.0,0.0,0.0,0.0,0.0,0.0,0.0,0.0,3.0274,3.0999,3.1452,3.1511,3.1511,3.1511,3.1092,3.1031,3.1466,3.1091,3.1031,3.1481,3.1511,3.1511,3.1511,3.1511,3.1511,3.1511,3.1929,3.2392,3.2841,3.3739,3.4398,3.4862,3.5295,3.5504,3.5519,3.5744,3.6088,3.6568,3.7389,3.7868,3.8153,3.9047,3.9257,3.9077,3.9316,3.9406,3.9406,3.9406,3.9406,3.9436,3.966,4.0187,4.0771,4.1014,4.1852,4.2705,4.2705,4.3,4.329,4.329,4.329,4.329,4.329,4.329,4.329,4.329,4.329,4.329,4.329,4.3848,4.4296,4.4296,4.4481,4.485,4.5523,4.6181,4.6711,4.6935,4.7174,4.7309,4.7309,4.7309,4.7309,4.7309,4.7309,4.7309,4.7309,4.7309,4.7309,4.7309,4.7309,4.7309,4.7309,4.7309,4.7309,4.7309,4.7309,4.7207,4.704,4.704,4.7142,2.7968,2.8246,0.0,2.8887,2.8848,0.0,2.8442,0.0,2.8477,0.0,0.0,0.0,0.0,0.0,0.0,0.0,0.0,0.0,0.0,3.0072,3.0659,3.1087,3.1351,3.1511,3.1511,3.0891,3.0774,3.1451,3.0877,3.0803,3.1466,3.1511,3.1511,3.1511,3.1735,3.1735,3.1511,3.2407,3.2736,3.2512,3.362,3.4263,3.4503,3.4952,3.5265,3.5504,3.5504,3.5744,3.6207,3.706,3.7659,3.8123,3.9047,3.9406,3.9406,3.9406,3.9406,3.9406,3.9406,3.9406,3.9436,3.9675,4.0053,4.0487,4.0969,4.1703,4.244,4.2661,4.3015,4.329,4.329,4.329,4.329,4.329,4.329,4.329,4.329,4.3504,4.3668,4.3668,4.4386,4.494,4.4706,4.5409,4.6082,4.6271,4.6659,4.704,4.7279,4.7309,4.7309,4.7309,4.7309,4.7309,4.7309,4.7309,4.7309,4.7309,4.7309,4.7251,4.7164,4.7251,4.7251,4.7164,4.7251,4.7251,4.7164,4.7164,4.7019,4.68,4.68,4.6902]},{"header":{"parameterUnit":"m.s-1","parameterCategory":1,"la1":30.6,"la2":29.2853,"lo1":-89.7004,"lo2":-87.6739,"dy":0.0162,"dx":0.0183,"nx":112,"ny":82,"refTime":"2023-11-02T18:00:00:Z","depth":0,"parameterNumber":3,"parameterNumberName":"V-component_of_WINDS"},"data":[0.0,0.0,0.0,0.0,0.0,0.0,0.0,0.0,0.0,0.0,0.0,0.0,0.0,0.0,0.0,0.0,0.0,0.0,0.0,0.0,0.0,0.0,0.0,0.0,0.0,0.0,0.0,0.0,0.0,0.0,0.0,0.0,0.0,0.0,0.0,0.0,0.0,0.0,0.0,0.0,0.0,0.0,0.0,0.0,0.0,0.0,0.0,0.0,0.0,0.0,0.0,0.0,0.0,0.0,0.0,0.0,0.0,0.0,0.0,0.0,0.0,0.0,0.0,0.0,0.0,0.0,0.0,0.0,0.0,0.0,0.0,0.0,0.0,0.0,0.0,0.0,0.0,0.0,0.0,0.0,0.0,0.0,0.0,0.0,0.0,0.0,0.0,0.0,0.0,0.0,0.9681,0.9821,1.0332,1.0687,1.0735,1.0394,1.0019,0.957,0.0,0.0,0.0,0.0,0.0,0.0,0.0,0.0,0.0,0.0,0.0,0.0,0.0,0.0,0.0,0.0,0.0,0.0,0.0,0.0,0.0,0.0,0.0,0.0,0.0,0.0,0.0,0.0,0.0,0.0,0.0,0.0,0.0,0.0,0.0,0.0,0.0,0.0,0.0,0.0,0.0,0.0,0.0,0.0,0.0,0.0,0.0,0.0,0.0,0.0,0.0,0.0,0.0,0.0,0.0,0.0,0.0,0.0,0.0,0.0,0.0,0.0,0.0,0.0,0.0,0.0,0.0,0.0,0.0,0.0,0.0,0.0,0.0,0.0,0.0,0.0,0.0,0.0,0.0,0.0,0.0,0.0,0.0,0.0,0.0,0.0,0.0,0.0,0.0,0.0,0.0,0.0,0.0,0.0,0.0,0.0,0.0,0.0,0.0,0.0,0.0,0.0,0.0,0.0,0.9578,1.0378,1.076,1.1048,1.134,1.0908,1.0739,1.1046,0.0,0.0,0.0,0.0,0.0,0.0,0.0,0.0,0.0,0.0,0.0,0.0,0.0,0.0,0.0,0.0,0.0,0.0,0.0,0.0,0.0,0.0,0.0,0.0,0.0,0.0,0.0,0.0,0.0,0.0,0.0,0.0,0.0,0.0,0.0,0.0,0.0,0.0,0.0,0.0,0.0,0.0,0.0,0.0,0.0,0.0,0.0,0.0,0.0,0.0,0.0,0.0,0.0,0.0,0.0,0.0,0.0,0.0,0.0,0.0,0.0,0.0,0.0,0.0,0.0,0.0,0.0,0.0,0.0,0.0,0.0,0.0,0.0,0.0,0.0,0.0,0.0,0.0,0.0,0.0,0.0,0.0,0.0,0.0,0.0,0.0,0.0,0.0,0.0,0.0,0.0,0.0,0.0,0.0,0.0,0.0,0.0,0.0,0.0,0.0,0.0,0.0,0.0,0.9618,0.9918,1.0533,1.0838,1.0999,1.1001,1.076,1.0705,1.0992,1.0482,0.0,0.0,0.0,0.0,0.0,0.0,0.0,0.0,0.0,0.0,0.0,0.0,0.0,0.0,0.0,0.0,0.0,0.0,0.0,0.0,0.0,0.0,0.0,0.0,0.0,0.0,0.0,0.0,0.0,0.0,0.0,0.0,0.0,0.0,0.0,0.0,0.0,0.0,0.0,0.0,0.0,0.0,0.0,0.0,0.0,0.0,0.0,0.0,0.0,0.0,0.0,0.0,0.0,0.0,0.0,0.0,0.0,0.0,0.0,0.0,0.0,0.0,0.0,0.0,0.0,0.0,0.0,0.0,0.0,0.0,0.0,0.0,0.0,0.0,0.0,0.0,0.0,0.0,0.0,0.0,0.0,0.0,0.0,0.0,0.0,0.0,0.0,0.0,0.0,0.0,0.0,0.0,0.0,0.0,0.0,0.0,0.0,0.0,0.0,0.0,0.0,0.0,1.0225,1.0424,1.0993,1.1155,1.1258,1.1324,1.1137,1.1147,1.1435,1.1347,0.0,0.0,0.0,0.0,0.0,0.0,0.0,0.0,0.0,0.0,0.0,0.0,0.0,0.0,0.0,0.0,0.0,0.0,0.0,0.0,0.0,0.0,0.0,0.0,0.0,0.0,0.0,0.0,0.0,0.0,0.0,0.0,0.0,0.0,0.0,0.0,0.0,0.0,0.0,0.0,0.0,0.0,0.0,0.0,0.0,0.0,0.0,0.0,0.0,0.0,0.0,0.0,0.0,0.0,0.0,0.0,0.0,0.0,0.0,0.0,0.0,0.0,0.0,0.0,0.0,0.0,0.0,0.0,0.0,0.0,0.0,0.0,0.0,0.0,0.0,0.0,0.0,0.0,0.0,0.0,0.0,0.0,0.0,0.0,0.0,0.0,0.0,0.0,0.0,0.0,0.0,0.0,0.0,0.0,0.0,0.0,0.0,0.0,0.0,0.0,0.0,0.0,1.0599,1.1024,1.2235,1.2094,1.2345,1.3385,1.2909,1.2868,1.3638,1.3087,0.0,0.0,0.0,0.0,0.0,0.0,0.0,0.0,0.0,0.0,0.0,0.0,0.0,0.0,0.0,0.0,0.0,0.0,0.0,0.0,0.0,0.0,0.0,0.0,0.0,0.0,0.0,0.0,0.0,0.0,0.0,0.0,0.0,0.0,0.0,0.0,0.0,0.0,0.0,0.0,0.0,0.0,0.0,0.0,0.0,0.0,0.0,0.0,0.0,0.0,0.0,0.0,0.0,0.0,0.0,0.0,0.0,0.0,0.0,0.0,0.0,0.0,0.0,0.0,0.0,0.0,0.0,0.0,0.0,0.0,0.0,0.0,0.0,0.0,0.0,0.0,0.0,0.0,0.0,0.0,0.0,0.0,0.0,0.0,0.0,0.0,0.0,0.0,0.0,0.0,0.0,0.0,0.0,0.0,0.0,0.0,0.0,0.0,0.0,0.0,0.0,0.0,1.1544,1.1927,1.294,1.3099,1.306,1.2902,1.2771,1.2761,1.2888,0.0,0.0,0.0,0.0,0.0,0.0,0.0,0.0,0.0,0.0,0.0,0.0,0.0,0.0,0.0,0.0,0.0,0.0,0.0,0.0,0.0,0.0,0.0,0.0,0.0,0.0,0.0,0.0,0.0,0.0,0.0,0.0,0.0,0.0,0.0,0.0,0.0,0.0,0.0,0.0,0.0,0.0,0.0,0.0,0.0,0.0,0.0,0.0,0.0,0.0,0.0,0.0,0.0,0.0,0.0,0.0,0.0,0.0,0.0,0.0,0.0,0.0,0.0,0.0,0.0,0.0,0.0,0.0,0.0,0.0,0.0,0.0,0.0,0.0,0.0,0.0,0.0,0.0,0.0,0.0,0.0,0.0,0.0,0.0,0.0,0.0,0.0,0.0,0.0,0.0,0.0,0.0,0.0,0.0,0.0,0.0,0.0,0.0,0.0,0.0,0.0,0.0,1.2259,1.2514,1.294,1.3893,1.4033,1.3796,1.3154,1.3085,1.2964,1.2703,0.0,0.0,0.0,0.0,0.0,0.0,0.0,0.0,0.0,0.0,0.0,0.0,0.0,0.0,0.0,0.0,0.0,0.0,0.0,0.0,0.0,0.0,0.0,0.0,0.0,0.0,0.0,0.0,0.0,0.0,0.0,0.0,0.0,0.0,0.0,0.0,0.0,0.0,0.0,0.0,0.0,0.0,0.0,0.0,0.0,0.0,0.0,0.0,0.0,0.0,0.0,0.0,0.0,0.0,0.0,0.0,0.0,0.0,0.0,0.0,0.0,0.0,0.0,0.0,0.0,0.0,0.0,0.0,0.0,0.0,0.0,0.0,0.0,0.0,0.0,0.0,0.0,0.0,0.0,0.0,0.0,0.0,0.0,0.0,0.0,0.0,0.0,0.0,0.0,0.0,0.0,0.0,0.0,0.0,0.0,0.0,0.0,0.0,0.0,0.0,0.0,0.0,1.3007,1.3407,1.4043,1.5195,1.4895,1.4611,1.4605,1.4171,1.3787,0.0,0.0,0.0,0.0,0.0,0.0,0.0,0.0,0.0,0.0,0.0,0.0,0.0,0.0,0.0,0.0,0.0,0.0,0.0,0.0,0.0,0.0,0.0,0.0,0.0,0.0,0.0,0.0,0.0,0.0,0.0,0.0,0.0,0.0,0.0,0.0,0.0,0.0,0.0,0.0,0.0,0.0,0.0,0.0,0.0,0.0,0.0,0.0,0.0,0.0,0.0,0.0,0.0,0.0,0.0,0.0,0.0,0.0,0.0,0.0,0.0,0.0,0.0,0.0,0.0,0.0,0.0,0.0,0.0,0.0,0.0,0.0,0.0,0.0,0.0,0.0,0.0,0.0,0.0,0.0,0.0,0.0,0.0,0.0,0.0,0.0,0.0,0.0,0.0,0.0,0.0,0.0,0.0,0.0,0.0,0.0,0.0,0.0,0.0,0.0,0.0,0.0,0.0,1.4508,1.4729,1.5064,1.598,1.5955,1.5425,1.4344,1.4119,1.3776,1.3128,0.0,0.0,0.0,0.0,0.0,0.0,0.0,0.0,0.0,0.0,0.0,0.0,0.0,0.0,0.0,0.0,0.0,0.0,0.0,0.0,0.0,0.0,0.0,0.0,0.0,0.0,0.0,0.0,0.0,0.0,0.0,0.0,0.0,0.0,0.0,0.0,0.0,0.0,0.0,0.0,0.0,0.0,0.0,0.0,0.0,0.0,0.0,0.0,0.0,0.0,0.0,0.0,0.0,0.0,0.0,0.0,0.0,0.0,0.0,0.0,0.0,0.0,0.0,0.0,0.0,0.0,0.0,0.0,0.0,0.0,0.0,0.0,0.0,0.0,0.0,0.0,0.0,0.0,0.0,0.0,0.0,0.0,0.0,0.0,0.0,0.0,0.0,0.0,0.0,0.0,0.0,0.0,0.0,0.0,0.0,0.0,0.0,0.0,0.0,0.0,0.0,0.0,1.5263,1.5669,1.6008,1.6622,1.6568,1.5999,1.4738,1.4299,1.3821,1.3186,0.0,0.0,0.0,0.0,0.0,0.0,0.0,0.0,0.0,0.0,0.0,0.0,0.0,0.0,0.0,0.0,0.0,0.0,0.0,0.0,0.0,0.0,0.0,0.0,0.0,0.0,0.0,0.0,0.0,0.0,0.0,0.0,0.0,0.0,0.0,0.0,0.0,0.0,0.0,0.0,0.0,0.0,0.0,0.0,0.0,0.0,0.0,0.0,0.0,0.0,0.0,0.0,0.0,0.0,0.0,0.0,0.0,0.0,0.0,0.0,0.0,0.0,0.0,0.0,0.0,0.0,0.0,0.0,0.0,0.0,0.0,0.0,0.0,0.0,0.0,0.0,0.0,0.0,0.0,0.0,0.0,0.0,0.0,0.0,0.0,0.0,0.0,0.0,0.0,0.0,0.0,0.0,0.0,0.0,0.0,0.0,0.0,0.0,0.0,0.0,0.0,0.0,1.5575,1.6301,1.6824,1.715,1.6889,1.6346,1.5474,1.463,1.3987,1.3581,0.0,0.0,0.0,0.0,0.0,0.0,0.0,0.0,0.0,0.0,0.0,0.0,0.0,0.0,0.0,0.0,0.0,0.0,0.0,0.0,0.0,0.0,0.0,0.0,0.0,0.0,0.0,0.0,0.0,0.0,0.0,0.0,0.0,0.0,0.0,0.0,0.0,0.0,0.0,0.0,0.0,0.0,0.0,0.0,0.0,0.0,0.0,0.0,0.0,0.0,0.0,0.0,0.0,0.0,0.0,0.0,0.0,0.0,0.0,0.0,1.3871,0.0,0.0,0.0,0.0,0.0,0.0,0.0,0.0,0.0,0.0,0.0,0.0,0.0,0.0,0.0,0.0,0.0,0.0,0.0,0.0,0.0,0.0,0.0,0.0,0.0,0.0,0.0,0.0,0.0,0.0,0.0,0.0,0.0,0.0,0.0,0.0,0.0,0.0,0.0,0.0,0.0,1.6578,1.6731,1.6973,1.7733,1.7139,1.6346,1.5474,1.4941,1.4463,1.3997,1.389,0.0,0.0,0.0,0.0,0.0,0.0,0.0,0.0,0.0,0.0,0.0,0.0,0.0,0.0,0.0,0.0,0.0,0.0,0.0,0.0,0.0,0.0,0.0,0.0,0.0,0.0,0.0,0.0,0.0,0.0,0.0,0.0,0.0,0.0,0.0,0.0,0.0,0.0,0.0,0.0,0.0,0.0,0.0,0.0,0.0,0.0,0.0,0.0,0.0,0.0,0.0,0.0,0.0,0.0,0.0,0.0,0.0,0.0,0.0,0.0,1.418,0.0,0.0,0.0,0.0,0.0,0.0,0.0,0.0,0.0,0.0,0.0,0.0,0.0,0.0,0.0,0.0,0.0,0.0,0.0,0.0,0.0,0.0,0.0,0.0,0.0,0.0,0.0,0.0,0.0,0.0,0.0,0.0,0.0,0.0,0.0,0.0,0.0,0.0,0.0,0.0,1.7293,1.7239,1.7357,1.8205,1.7347,1.6521,1.6054,1.5273,1.4701,1.4449,1.4221,0.0,0.0,0.0,0.0,0.0,0.0,0.0,0.0,0.0,0.0,0.0,0.0,0.0,0.0,0.0,0.0,0.0,0.0,0.0,0.0,0.0,0.0,0.0,0.0,0.0,0.0,0.0,0.0,0.0,0.0,0.0,0.0,0.0,0.0,0.0,0.0,0.0,0.0,0.0,0.0,0.0,0.0,0.0,0.0,0.0,0.0,0.0,0.0,0.0,0.0,0.0,0.0,0.0,1.5744,1.5916,1.5916,1.5916,1.6092,1.635,1.5399,1.4876,1.4693,1.4628,0.0,0.0,0.0,0.0,0.0,0.0,0.0,0.0,0.0,0.0,0.0,0.0,0.0,0.0,0.0,0.0,0.0,0.0,0.0,0.0,0.0,0.0,0.0,0.0,1.445,1.4343,0.0,0.0,0.0,0.0,0.0,0.0,0.0,0.0,0.0,0.0,0.0,0.0,1.7786,1.7773,1.79,1.8637,1.7642,1.6863,1.6716,1.5674,1.4985,1.4916,1.4537,1.4328,0.0,0.0,0.0,0.0,0.0,0.0,0.0,0.0,0.0,0.0,0.0,0.0,0.0,0.0,0.0,0.0,0.0,0.0,0.0,0.0,0.0,0.0,0.0,0.0,0.0,0.0,0.0,0.0,0.0,0.0,0.0,0.0,1.3373,1.3768,0.0,0.0,0.0,0.0,0.0,0.0,0.0,0.0,0.0,0.0,0.0,0.0,0.0,1.5652,1.6057,1.6405,1.6598,1.667,1.6725,1.6743,1.6743,1.6743,1.6771,1.6817,1.6839,0.0,1.5505,1.5166,0.0,0.0,0.0,0.0,0.0,0.0,0.0,0.0,0.0,0.0,0.0,0.0,0.0,0.0,0.0,0.0,0.0,0.0,0.0,0.0,0.0,0.0,1.5434,1.5685,1.5839,1.5895,0.0,1.4855,1.4114,1.4513,1.4617,0.0,0.0,0.0,0.0,0.0,0.0,0.0,1.7874,1.8264,1.8644,1.915,1.8389,1.7522,1.6765,1.6236,1.5747,1.5352,1.5259,1.523,1.523,1.523,0.0,0.0,0.0,0.0,0.0,0.0,0.0,0.0,0.0,0.0,0.0,0.0,0.0,0.0,0.0,0.0,0.0,0.0,0.0,0.0,0.0,0.0,0.0,0.0,0.0,0.0,0.0,0.0,0.0,1.3585,1.4038,1.4222,1.4043,1.3988,0.0,0.0,0.0,0.0,0.0,0.0,0.0,0.0,0.0,1.6422,1.6615,1.6908,1.7312,1.7851,1.8055,1.7926,1.8295,1.8387,1.8256,1.8256,1.8312,1.8415,1.8267,1.7901,1.7302,1.6344,1.5701,1.5324,0.0,0.0,0.0,0.0,1.5235,1.5414,1.5239,1.5182,0.0,1.4974,0.0,0.0,0.0,0.0,0.0,0.0,0.0,0.0,0.0,0.0,1.6731,1.6957,1.6863,1.6781,1.7044,1.6233,1.5474,0.0,1.5234,1.5111,1.55,0.0,0.0,0.0,0.0,1.7578,1.8888,1.9015,1.917,1.959,1.8662,1.7844,1.7464,1.6826,1.625,1.5825,1.5796,1.5679,1.5405,1.5396,1.5396,0.0,0.0,0.0,0.0,0.0,0.0,0.0,0.0,0.0,0.0,0.0,0.0,0.0,0.0,0.0,0.0,0.0,0.0,0.0,0.0,0.0,0.0,0.0,0.0,0.0,0.0,0.0,0.0,1.4212,1.4625,1.4509,1.4429,1.4447,0.0,0.0,0.0,0.0,0.0,0.0,1.6145,1.65,1.7078,1.787,1.8018,1.8276,1.8729,1.9291,1.9487,1.935,1.9854,1.9974,1.9794,1.9794,1.9874,1.9994,1.9746,1.9505,1.9136,1.7602,1.6762,1.637,1.623,1.6155,1.6171,1.6337,1.6468,1.6635,1.6782,1.669,1.6503,1.6397,0.0,1.5443,1.5314,0.0,0.0,0.0,0.0,1.6823,1.7195,1.7537,1.7875,1.822,1.7975,1.7799,1.8242,1.7758,1.7101,0.0,1.6114,1.5915,1.6603,0.0,0.0,0.0,0.0,1.8369,1.9736,1.9736,1.9687,1.9874,1.9044,1.8352,1.802,1.7405,1.6777,1.6134,1.6095,1.5948,1.5586,1.5454,1.5469,1.5576,0.0,0.0,0.0,0.0,0.0,0.0,0.0,0.0,0.0,0.0,0.0,0.0,0.0,0.0,0.0,0.0,0.0,0.0,0.0,0.0,0.0,0.0,0.0,0.0,0.0,0.0,0.0,0.0,0.0,1.4561,1.5157,0.0,0.0,0.0,0.0,1.6213,1.657,1.6991,1.7385,1.7681,1.8199,1.8994,1.9387,1.9868,2.0472,2.0713,2.0889,2.1067,2.1106,2.1116,2.1095,2.1095,2.1116,2.1136,2.1294,2.1148,2.0659,1.8784,1.7789,1.7417,1.7417,1.7417,1.7417,1.7417,1.7795,1.8232,1.7854,1.8046,1.8412,1.8013,1.7864,1.7801,1.7673,1.7724,0.0,0.0,1.7775,1.7979,1.8241,1.8427,1.8729,1.9435,1.9383,1.9307,1.9708,1.9454,1.8862,0.0,1.7335,1.7079,1.7311,0.0,1.7893,1.7981,1.8682,1.9365,1.9835,2.0273,2.0371,1.9961,1.9835,1.9308,1.8098,1.7952,1.7412,1.6173,1.6095,1.61,1.6065,1.5649,1.5605,1.6056,1.5625,0.0,0.0,0.0,0.0,0.0,0.0,0.0,0.0,0.0,0.0,0.0,0.0,0.0,0.0,0.0,0.0,0.0,0.0,0.0,0.0,0.0,0.0,0.0,0.0,0.0,0.0,0.0,0.0,1.6021,1.6744,0.0,1.6679,1.7129,1.742,1.7346,1.7932,1.8555,1.9089,1.9429,2.0015,2.0804,2.1259,2.1584,2.1757,2.2251,2.2318,2.1965,2.2415,2.2383,2.1975,2.2293,2.2209,2.1851,2.2195,2.2186,2.1877,2.1205,2.0294,1.9295,1.9154,1.9107,1.9126,1.9257,1.9447,1.9619,1.9614,1.9533,1.9366,1.8975,1.8838,1.8828,1.8775,1.8987,1.9162,1.8853,1.9397,2.0021,1.9865,2.0274,2.0791,2.1063,2.08,2.0566,2.0713,2.042,2.0038,1.967,1.8768,1.8185,1.8564,1.8479,1.8674,1.955,1.9931,2.0293,2.0684,2.0879,2.082,2.04,2.0078,1.9601,1.8896,1.8557,1.7971,1.6989,1.665,1.6367,1.6105,1.5644,1.5615,1.6085,1.6022,1.6135,0.0,0.0,0.0,0.0,0.0,0.0,0.0,0.0,0.0,0.0,0.0,0.0,0.0,0.0,0.0,0.0,0.0,0.0,0.0,0.0,0.0,0.0,0.0,0.0,0.0,0.0,1.701,1.7266,1.8018,1.8347,1.7944,1.8393,1.8718,1.8714,1.9331,1.9982,2.0588,2.1077,2.165,2.2333,2.2815,2.3047,2.3083,2.3451,2.3374,2.2872,2.3307,2.3297,2.2882,2.3182,2.3185,2.2955,2.3213,2.3263,2.3132,2.3132,2.2561,2.161,2.0909,2.0638,2.0668,2.0797,2.0933,2.107,2.1181,2.0957,2.0537,2.0254,2.0185,2.0185,2.0185,2.0361,2.0527,2.0244,2.0791,2.1366,2.1104,2.1466,2.1924,2.206,2.1768,2.1474,2.162,2.1318,2.1035,2.1035,2.0195,1.9542,1.9716,1.9727,2.0001,2.0899,2.1035,2.1192,2.1591,2.1523,2.1259,2.0859,2.0518,2.0049,1.9364,1.9005,1.8437,1.7468,1.7109,1.6816,1.6555,1.6094,1.6064,1.6535,1.6702,1.7168,1.7908,0.0,0.0,0.0,0.0,0.0,0.0,0.0,0.0,0.0,0.0,0.0,0.0,0.0,0.0,0.0,0.0,0.0,0.0,0.0,0.0,0.0,0.0,0.0,1.636,1.7404,1.8164,1.8182,1.8907,1.9237,1.8825,1.954,2.0119,2.0337,2.077,2.1266,2.1842,2.2512,2.3025,2.3429,2.3898,2.4226,2.4391,2.4226,2.4022,2.3831,2.3828,2.3828,2.3809,2.3828,2.4043,2.4391,2.4434,2.441,2.441,2.441,2.441,2.4254,2.2598,2.1964,2.1964,2.1934,2.2178,2.2529,2.2529,2.2266,2.1944,2.1944,2.1944,2.1944,2.1944,2.1944,2.1924,2.1925,2.1935,2.1924,2.1925,2.1935,2.2052,2.2432,2.2217,2.2031,2.2432,2.2207,2.1924,2.1894,2.1542,2.1132,2.0703,2.1348,2.1925,2.1925,2.1935,0.0,2.244,2.2158,2.1738,2.1279,2.121,2.0703,1.9442,1.9325,1.8777,1.7497,1.7409,1.7399,1.7399,1.6947,1.6924,1.7435,1.7732,1.8497,1.9754,0.0,0.0,0.0,0.0,0.0,0.0,0.0,0.0,0.0,0.0,0.0,0.0,0.0,0.0,0.0,0.0,0.0,0.0,0.0,0.0,0.0,1.7202,1.7935,1.7651,1.863,1.952,1.9804,2.0973,2.1423,2.0542,2.1786,2.245,2.1922,2.2713,2.3364,2.3661,2.3868,2.4007,2.4124,2.4575,2.469,2.4401,2.469,2.4631,2.4248,2.4584,2.4551,2.4258,2.4593,2.4633,2.441,2.4756,2.4916,2.4916,2.4916,2.4916,2.4809,2.3691,2.3284,2.3232,2.2888,2.284,2.2947,2.2947,2.2869,2.2771,2.2771,2.2771,2.2771,2.2771,2.2771,2.2713,2.2432,2.2559,2.2703,2.2401,2.2547,2.2801,2.2918,2.2859,2.2723,2.2527,2.2635,2.2596,2.2002,2.2264,2.2362,2.1671,2.1973,2.2344,2.2344,2.2576,0.0,2.2518,2.2412,2.2178,2.1758,2.1709,2.1172,1.9853,1.9746,1.9199,1.792,1.7549,1.7399,1.7399,1.6947,1.7219,1.8315,1.9173,2.0046,0.0,0.0,0.0,0.0,0.0,0.0,0.0,0.0,0.0,0.0,0.0,0.0,0.0,0.0,0.0,0.0,0.0,0.0,0.0,0.0,0.0,0.0,1.8469,1.9458,1.9745,2.0234,2.0788,2.1361,2.2287,2.2694,2.2233,2.3109,2.3552,2.319,2.3739,2.427,2.4678,2.484,2.5035,2.5234,2.5664,2.5762,2.5484,2.5576,2.54,2.4947,2.5063,2.5053,2.4947,2.5063,2.516,2.5244,2.5322,2.5352,2.5352,2.5352,2.5352,0.0,0.0,0.0,0.0,0.0,2.3386,2.3367,2.3159,2.3091,2.312,2.3327,2.3386,2.3386,2.3386,2.3386,2.3298,2.2869,2.2927,2.3042,2.281,2.2916,2.3091,2.3091,2.3091,2.3054,2.2801,2.2925,2.2955,2.2488,2.2781,0.0,2.2469,2.2596,2.2752,2.2752,2.2945,2.3013,2.2791,2.2752,2.2596,2.2197,2.2013,2.1446,2.0283,1.9853,0.0,0.0,0.0,1.8206,1.8524,1.8268,0.0,0.0,0.0,2.1109,2.2065,0.0,0.0,0.0,2.2029,2.2185,0.0,0.0,0.0,0.0,0.0,0.0,0.0,0.0,0.0,0.0,0.0,0.0,0.0,0.0,0.0,0.0,1.9845,2.0927,2.2113,2.2036,2.2104,2.2729,2.3066,2.3354,2.3667,2.3875,2.4059,2.4221,2.4364,2.4694,2.5287,0.0,0.0,0.0,0.0,2.6992,2.6918,2.6621,2.624,2.5786,2.5449,2.5498,2.5845,2.5469,2.5737,2.6435,2.602,2.5854,2.5854,2.5854,2.5825,2.5698,2.481,2.4463,2.4342,2.3945,2.3818,2.3799,2.3337,0.0,0.0,2.373,2.3857,2.3857,2.3857,2.3857,2.3779,2.3367,2.3237,2.3227,2.3179,2.3208,2.3218,2.312,2.313,2.3149,2.311,2.3178,2.3222,2.3113,2.3188,2.3222,2.3113,2.3091,2.3091,2.3091,2.3091,2.3091,2.3091,2.3091,2.2955,2.2606,0.0,0.0,2.0762,1.996,1.9277,1.8705,1.8933,1.9395,2.0063,2.0232,2.0589,2.1183,2.1337,2.1955,2.3079,2.3079,2.3356,2.3878,2.3332,2.336,0.0,0.0,0.0,0.0,0.0,0.0,0.0,0.0,0.0,0.0,0.0,0.0,0.0,0.0,0.0,2.0562,2.133,2.2138,2.3244,2.3793,2.3935,2.3554,2.3848,2.3975,2.3724,2.502,2.5678,2.5199,2.594,2.6502,2.6641,2.6719,2.6781,2.6894,2.6947,2.6846,2.6514,2.6768,2.668,2.6269,0.0,0.0,2.6742,2.668,2.6703,2.6894,2.6781,2.6742,2.6742,2.6742,2.6562,2.6172,2.5317,2.4727,2.4342,2.3945,2.4004,2.4206,2.3809,2.3887,2.4157,2.4245,2.4274,2.4274,2.4274,2.4274,0.0,2.4167,2.4147,2.4069,2.375,2.3916,2.3971,2.3279,2.3386,2.3564,2.3169,2.3691,2.4015,2.3244,2.3712,2.3983,2.3222,2.3091,2.3091,2.3091,2.3091,2.3091,2.3091,2.3091,2.3062,2.2984,2.2896,2.2391,2.1191,2.0937,2.0352,1.9238,1.9426,1.9742,2.0085,2.1026,2.1618,2.1732,2.2763,2.341,2.3649,2.3649,2.3898,2.4345,2.3873,2.371,0.0,0.0,0.0,0.0,0.0,0.0,0.0,0.0,0.0,0.0,0.0,1.8095,1.8854,0.0,2.061,2.1973,2.2884,2.368,2.445,2.4909,2.499,2.4593,2.5025,2.5342,2.5357,2.6169,2.6551,2.6227,2.6692,2.7109,2.7334,2.7344,2.7441,2.7646,2.7656,2.7549,2.7344,2.7344,2.7236,2.7057,2.7021,2.7129,2.7344,2.7344,2.7344,2.7344,2.7344,2.7217,2.6986,2.6986,2.6894,2.6641,2.6011,2.5459,2.5006,2.459,2.4584,2.4687,2.4258,2.4238,2.443,2.4668,2.4746,2.4746,2.4746,2.4746,2.4697,2.4473,2.4391,2.4316,2.3896,2.4264,2.4591,2.395,2.4297,2.4616,2.3947,2.4177,2.422,2.3288,2.3484,2.3799,2.3799,2.3799,2.3647,2.3178,2.3091,2.3091,2.3091,2.3091,2.3091,2.3091,2.2927,2.2729,2.2522,2.2295,2.1941,2.1442,2.1272,2.143,2.1937,2.2526,2.2848,2.2848,2.355,2.4026,2.4309,2.4393,2.4711,2.5187,2.4966,2.4742,0.0,0.0,0.0,0.0,0.0,0.0,0.0,1.8449,1.8312,1.8565,1.9078,1.9802,2.091,2.152,2.2224,2.3406,2.4368,2.5131,2.5629,2.5889,2.5957,2.5861,2.6188,2.659,2.6957,2.709,2.7139,2.7139,2.7217,2.7422,2.78,2.7809,2.7976,2.8281,2.8291,2.8252,2.8174,2.7946,2.777,2.7692,2.7393,2.7451,2.7809,2.7809,2.7809,2.7809,2.7809,2.7588,2.724,2.724,2.7217,2.7109,2.6768,2.6377,2.5884,2.5317,2.5151,2.516,2.4697,2.4576,2.4703,2.5078,2.5219,2.5219,2.5219,2.5352,2.5439,2.5059,2.4927,2.4852,2.4449,2.4784,2.5096,2.4609,2.524,2.5701,2.4814,2.4901,2.487,2.3831,2.3616,2.381,2.4413,2.4348,2.4091,2.3681,2.3616,2.3616,2.3616,2.3474,2.343,2.3604,2.3188,2.3215,2.4002,2.3641,2.3486,2.376,2.3271,2.3268,2.3917,2.395,2.395,2.3984,2.4197,2.4536,2.5008,2.5191,2.548,2.591,2.591,2.5723,1.8706,1.8231,1.8304,1.9537,1.9108,1.8848,0.0,2.1036,2.0859,2.0494,2.1766,2.2883,2.2693,2.3281,2.4143,2.5227,2.5648,2.6077,2.6731,2.7195,2.7448,2.7451,2.6943,2.6698,2.6986,2.7389,2.7624,2.7624,2.7966,2.8174,2.8223,2.8223,2.8242,2.8291,2.8291,2.8142,2.777,2.8083,2.8064,2.7692,2.8024,2.8174,2.8223,2.8223,2.8223,2.8223,2.8223,2.8193,2.8144,2.8144,2.793,2.7614,2.7565,2.7282,2.6703,2.5542,2.5322,2.5571,2.517,2.5254,2.5547,2.562,2.564,2.564,2.564,2.6252,2.6964,2.6913,2.6903,2.68,2.6403,2.5953,2.5422,2.4611,2.5485,2.6231,2.5264,2.6378,2.72,2.5759,2.5505,2.5284,2.4627,2.382,2.3767,2.5274,2.5505,2.5505,2.5505,2.4829,2.4637,2.5432,2.4766,2.4482,2.5001,2.4614,2.4462,2.474,2.4241,2.4102,2.4412,2.4417,2.4514,2.4684,2.5175,2.553,2.5777,2.5807,2.5831,2.591,2.591,2.5875,1.9467,1.9697,2.0118,2.023,2.0503,2.1052,2.2264,2.2287,2.2256,2.3047,2.3555,2.3998,2.4452,2.4696,2.5218,2.6288,2.677,2.7085,2.7363,2.779,2.7966,2.7721,2.7636,2.772,2.8069,2.8291,2.8506,2.8787,2.8503,2.8398,2.8643,2.8428,2.8291,2.8291,2.8291,2.8203,2.8054,2.8203,2.8203,2.8054,2.8203,2.8291,2.8301,2.8545,2.8662,2.8643,2.8398,2.8291,2.8291,2.8291,2.8193,2.8034,2.779,2.7585,2.7291,2.6245,2.5957,2.6055,2.5605,2.5562,2.5693,2.5693,2.5884,2.6074,2.5786,2.6182,2.6686,2.6402,2.6757,2.7109,2.6711,2.6788,2.6837,2.6215,2.6498,2.6642,2.5704,2.6153,2.6387,2.5205,2.4987,2.5126,2.5593,2.5336,2.5605,2.7147,2.6038,2.5031,2.5031,2.5158,2.5411,2.5767,2.5955,2.6159,2.6348,2.6353,2.6403,2.6519,2.5735,2.5373,2.5598,2.5313,2.5231,2.5445,2.577,2.6145,2.6542,2.6661,2.6875,2.7186,2.7186,2.7186,1.9917,2.0435,2.1015,2.1233,2.1956,2.2838,2.3656,2.3618,2.3753,2.4937,2.496,2.4971,2.5752,2.5849,2.6105,2.6853,2.748,2.7868,2.7868,2.8122,2.8174,2.7907,2.8132,2.8457,2.885,2.8889,2.9101,2.9559,2.9021,2.8779,2.9082,2.8691,2.8467,2.8467,2.8359,2.8291,2.8291,2.8291,2.8291,2.8291,2.8291,2.8291,2.8301,2.8603,2.8723,2.873,2.8428,2.8291,2.8291,2.8291,2.8291,2.8262,2.7985,2.8042,2.8231,2.7475,2.6858,2.6328,2.5864,2.5981,2.6338,2.6338,2.6847,2.7345,2.6704,2.6842,2.7129,2.6476,2.6749,2.7201,2.7182,2.7434,2.7705,2.7685,2.7832,2.7744,2.6954,2.6787,2.6633,2.6079,2.5323,2.5209,2.6508,2.6379,2.6452,2.7426,2.6231,2.5337,2.5558,2.6163,2.6453,2.6205,2.701,2.7551,2.7551,2.7775,2.7926,2.7926,2.7048,2.6606,2.6747,2.6245,2.6086,2.6335,2.6489,2.6799,2.7297,2.7453,2.772,2.8109,2.8109,2.8109,1.9773,1.9691,2.0039,2.281,2.335,2.3531,2.493,2.5473,2.5696,2.5681,2.6026,2.634,2.6374,2.6699,2.6957,2.6986,2.7725,2.8271,2.8271,2.8281,2.8291,2.8271,2.8281,2.8457,2.885,2.8889,2.9101,2.9559,2.9579,2.9569,2.9579,2.9141,2.8869,2.8869,2.8506,2.8291,2.8291,2.8291,2.8291,2.8291,2.8291,2.8291,2.8291,2.8301,2.831,2.831,2.8301,2.8291,2.8291,2.8291,2.8291,2.8291,2.8281,2.8906,2.9771,2.9368,2.8026,2.6328,2.5864,2.6671,2.7931,2.7931,2.8941,2.9976,2.8858,2.8935,2.9196,2.8136,2.7538,2.7416,2.838,2.7936,2.7466,2.8428,2.9396,2.9964,2.9404,2.9279,2.9405,2.9853,2.7678,2.6092,2.7095,2.6092,2.515,2.5206,2.6304,2.7429,2.8259,2.8411,2.8099,2.7246,2.7926,2.8451,2.8451,2.8478,2.8486,2.8486,2.7962,2.7649,2.7649,2.7145,2.7056,2.7434,2.7453,2.7656,2.8066,2.8084,2.8084,2.8109,2.8109,2.8109,2.1236,2.2009,2.2774,2.3904,2.4873,2.5685,2.6403,2.6926,2.7232,2.7175,2.6301,2.5549,2.5555,2.5649,2.5942,2.6504,2.7314,2.8005,2.8252,2.8291,2.8193,2.7936,2.8151,2.835,2.8496,2.8506,2.8916,2.9912,2.9453,2.9258,2.9579,2.915,2.8889,2.8889,2.8779,2.8848,2.9158,2.8848,2.8711,2.8701,2.8428,2.8291,2.8291,2.8291,2.8291,2.8291,2.8291,2.8291,2.8291,2.8291,2.8291,2.8291,2.8291,2.8521,2.8807,2.8395,2.8277,2.8249,2.7801,2.7502,2.7332,2.7332,2.8368,2.9524,2.8809,2.9466,3.0308,2.9661,2.9867,3.0331,3.0663,3.0227,2.9805,3.0154,2.8992,2.8026,2.8774,2.8189,2.7855,2.897,2.8382,2.792,2.8577,2.7997,2.7406,2.7373,2.7256,2.751,2.8391,2.849,2.8391,2.8099,2.8319,2.849,2.849,2.849,2.849,2.849,2.8122,2.7955,2.8102,2.7709,2.7619,2.7889,2.7908,2.8138,2.8631,2.8631,2.8831,2.9227,2.9227,2.9227,2.2517,2.3122,2.3627,2.4936,2.5694,2.6314,2.7039,2.7198,2.7217,2.7331,2.6147,2.5141,2.5283,2.5049,2.5102,2.5825,2.6275,2.6842,2.7715,2.7705,2.7685,2.7897,2.8125,2.8291,2.8291,2.8291,2.876,2.9893,2.96,2.9502,2.9813,2.9385,2.915,2.915,2.8857,2.8828,2.9139,2.8838,2.8701,2.8691,2.8418,2.8291,2.8291,2.8291,2.8291,2.8318,2.8698,2.8883,2.891,2.9323,2.9471,2.9471,2.9471,2.9697,3.0021,2.9766,3.0102,3.0489,2.9084,2.878,2.9001,2.9001,3.0024,3.1151,3.046,3.0844,3.137,3.0704,3.0871,3.135,3.172,3.1549,3.1378,3.174,3.0374,2.9184,2.9907,2.906,2.8492,2.9556,2.9189,2.8905,2.9577,2.9241,2.8924,2.9053,2.8583,2.831,2.8479,2.849,2.849,2.849,2.849,2.849,2.849,2.849,2.849,2.849,2.8292,2.8273,2.8479,2.8277,2.8281,2.8556,2.8556,2.8787,2.922,2.922,2.9428,2.9792,2.9792,2.9792,2.3685,2.3236,2.2859,2.5898,2.5949,2.5581,2.6877,2.6448,2.5928,2.6304,2.5659,2.5141,2.5474,2.4898,2.4531,2.4984,2.4766,2.5123,2.6846,2.6758,2.6988,2.8184,2.834,2.8359,2.8359,2.8359,2.8718,2.954,0.0,3.0137,3.0166,2.9794,2.9559,2.9559,2.875,2.833,2.8359,2.834,2.831,2.8291,2.8291,2.8291,2.8291,2.8291,2.8291,2.8371,2.9392,2.9828,2.9896,3.0985,3.1421,3.1447,3.1498,3.2134,3.3051,3.3101,3.3151,3.2789,2.9856,3.0466,3.2561,3.2561,3.3531,3.4531,3.3511,3.2978,3.2476,3.1384,3.0806,3.0756,3.1717,3.192,3.2146,3.3075,3.3225,3.3021,3.2563,3.1643,3.1078,3.1602,3.017,2.9154,3.009,2.9801,2.9613,3.0031,3.0107,2.9713,2.8691,2.8546,2.8526,2.849,2.849,2.849,2.849,2.849,2.849,2.849,2.851,2.8598,2.8803,2.8843,2.9008,2.9399,2.9419,2.9541,2.9792,2.9792,2.9792,2.9792,2.9792,2.9792,2.6306,2.6035,2.5645,2.7185,2.7411,2.7158,2.6704,2.7018,2.7128,2.6084,2.4951,2.3955,2.3428,2.3672,2.4092,2.4512,2.5576,2.6728,2.7812,2.8144,2.8372,2.8721,2.907,2.9276,2.9276,2.9276,2.9364,0.0,2.9365,2.9385,2.9735,2.9316,2.9082,2.9082,2.885,2.8916,2.9266,2.8916,2.8603,2.8291,2.8291,2.8291,2.8291,2.8291,2.8291,2.8318,2.8601,2.8698,2.8724,2.9016,2.9138,2.9217,3.0026,3.051,3.0845,3.1691,3.2513,3.3091,3.2295,3.1945,3.1855,3.1855,3.2648,3.356,3.3275,3.3701,3.4182,3.389,3.3723,3.3702,3.398,3.3743,3.3434,3.3334,3.2154,3.1233,3.1778,3.0842,3.0241,3.1468,3.1294,3.0885,3.0761,3.0604,3.0417,3.0149,3.0107,2.9845,2.9184,2.91,2.8943,2.8546,2.849,2.849,2.849,2.849,2.849,2.849,2.8637,2.8803,2.9013,2.9177,2.9392,2.9689,2.9702,2.9721,2.9792,2.9792,2.9792,2.9792,2.9792,2.9792,2.7784,2.7457,2.6915,2.717,2.6982,2.653,2.5711,2.5839,2.5903,2.5049,2.3981,2.3135,2.282,2.3027,2.3369,2.3767,2.481,2.6103,2.7529,2.7903,2.8547,2.9831,2.9905,2.999,3.0367,3.0063,2.9872,2.9872,2.9619,2.959,2.9862,2.9609,2.9482,2.9482,2.9084,2.8945,2.9031,2.8769,2.8525,2.8291,2.8291,2.8291,2.8291,2.8291,2.8548,2.9032,0.0,3.001,3.0494,3.0949,3.1154,3.1206,3.1819,3.2036,3.2123,3.2764,3.3375,3.3893,3.3893,3.336,3.2679,3.2932,3.34,3.3893,3.3893,3.4323,3.4799,3.4799,3.4799,3.4751,3.4523,3.4234,3.3886,3.3404,3.2435,3.1708,3.198,3.1591,3.1402,3.2242,3.2008,3.1693,3.1623,3.1406,3.1141,3.0841,3.0804,3.0612,3.0083,2.9806,2.9448,2.8919,2.8859,2.8763,2.8514,2.849,2.855,2.8637,2.8744,2.8941,2.9216,2.9341,2.9541,2.9792,2.9792,2.9792,2.9792,2.9792,2.9792,2.9792,2.9792,2.9792,2.8799,2.8262,2.7456,2.6941,2.6052,2.5139,2.4535,2.4004,2.3623,2.3623,2.2939,2.243,2.2769,2.2664,2.2664,2.3201,2.3698,2.4775,2.6894,2.7285,2.8285,3.0867,3.0648,3.0553,3.1268,3.0699,3.0293,3.0293,3.0455,3.0425,3.0195,3.0146,3.0088,3.0029,2.9279,2.8721,2.8301,2.8291,2.8291,2.8291,2.8441,2.8521,2.8521,2.8681,2.9244,3.0172,3.11,3.2009,3.2948,3.3816,3.4206,3.429,3.434,3.4412,3.4497,3.4642,3.4703,3.4703,3.4787,3.4511,3.4174,3.4655,3.4715,3.4607,3.4679,3.4703,3.4703,3.4703,3.4751,3.4691,3.415,3.4042,3.397,3.3428,3.3284,3.3164,3.2707,3.2959,3.3284,3.3284,3.2549,3.2056,3.2527,3.2224,3.1851,3.1729,3.1705,3.1466,3.0865,3.0456,2.9974,2.9393,2.9333,2.9136,2.8606,2.859,2.8657,2.8843,2.8843,2.9008,2.938,2.9399,2.9541,2.9792,2.9792,2.9792,2.9792,2.9792,2.9792,2.9792,2.9792,2.9792,3.0792,2.9841,2.8544,2.8886,2.7626,2.5997,2.4697,2.3523,2.2734,2.2734,2.203,2.1454,2.1512,2.2059,2.2859,2.3991,2.4849,2.6001,2.7822,2.8682,2.9339,2.9855,3.0416,3.0829,3.0972,3.0868,3.0771,3.0771,3.1695,3.1657,3.0272,2.9891,2.954,2.915,2.8967,2.8721,2.8301,2.8291,2.8291,2.8318,2.9207,2.9618,2.9644,3.0598,3.1139,3.1297,3.1059,0.0,3.1202,3.0929,3.1093,3.155,3.1977,3.2431,3.2934,3.3803,3.415,3.4186,3.4655,3.4739,3.4691,3.4775,3.4222,3.3633,3.403,3.415,3.415,3.415,3.4462,3.4691,3.415,3.4342,3.4426,3.3513,3.3284,3.326,3.3176,3.3224,3.3284,3.3284,3.3163,3.3044,3.3163,3.3068,3.2718,3.1827,3.1705,3.1334,3.0371,3.0552,3.0447,2.9622,2.9553,2.9407,2.9042,2.8993,2.9013,2.9052,2.9052,2.9157,2.9399,2.9399,2.9541,2.9792,2.9792,2.9792,2.9792,2.9792,2.9792,2.9792,2.9792,2.9792,3.1198,3.0396,2.9332,2.8515,2.7235,2.5649,2.356,2.2822,2.2483,2.2191,2.1283,2.0801,2.1669,2.2015,2.2461,2.3269,2.4137,2.5376,2.7353,2.82,2.9404,3.1526,3.1261,3.1392,3.2589,3.1614,3.117,3.1787,3.1787,3.1687,3.1513,3.1329,3.1006,3.0543,3.0246,3.0211,3.0426,3.0161,3.0021,3.0021,3.0815,3.1193,3.1219,3.1765,3.2307,3.2833,3.2572,0.0,3.2871,3.2605,3.2466,3.2481,3.2475,3.2641,3.2936,3.3457,3.3657,3.3657,3.3945,3.3849,3.3645,3.3945,3.4054,3.4114,3.4354,3.4426,3.4426,3.4426,3.4414,3.4306,3.4078,3.3802,3.3465,3.2996,3.2682,3.2549,3.2815,3.2647,3.2706,3.3525,3.3248,3.3044,3.3561,3.3464,3.3139,3.2609,3.2297,3.1936,3.1408,3.1334,3.0835,2.9568,2.9791,2.9723,2.9015,2.9052,2.915,2.9255,2.9255,2.9353,2.9599,2.9611,2.9682,2.9792,2.9792,2.9792,2.9792,2.9792,2.9792,2.9792,2.9792,2.9792,3.079,3.0322,2.9714,2.8083,2.6894,2.5467,2.2957,2.2622,2.2615,2.1792,2.0826,2.0535,2.1781,2.18,2.1836,2.2518,2.3191,2.4503,2.6981,2.7616,2.9262,3.3155,3.2022,3.1806,3.4168,3.2504,3.1682,3.2628,3.2037,3.1835,3.2295,3.2571,3.2486,3.2027,3.1725,3.1859,3.24,3.1965,3.1699,3.1611,3.2476,3.2853,3.2764,3.3097,3.3722,3.4502,3.4386,0.0,0.0,3.4571,3.4234,3.379,3.3188,3.3043,3.3128,3.3128,3.3128,3.314,3.3248,3.302,3.2743,3.3152,3.3681,3.415,3.427,3.4306,3.4306,3.4306,3.409,3.3826,3.3717,3.3177,3.2647,3.2527,3.2273,3.2128,3.243,3.2273,3.2405,3.3609,3.3224,3.2923,3.3717,3.3621,3.338,3.3152,3.2897,3.2655,3.2436,3.2093,3.1269,2.9782,3.0136,3.0077,2.9098,2.915,2.9307,2.947,2.9489,2.958,2.9792,2.9792,2.9792,2.9792,2.9792,2.9792,2.9792,2.9792,2.9792,2.9792,2.9792,2.9792,2.9744,2.9562,2.944,2.926,2.8177,2.6607,2.4473,2.3792,2.3129,2.1414,2.103,2.0931,2.0779,2.0732,2.1231,2.2801,2.3101,2.439,2.7947,2.8321,2.9467,3.2689,3.1781,3.1806,3.4168,3.3261,3.2571,3.2685,3.3561,3.3204,3.117,3.2094,3.2486,3.2027,3.2533,3.2686,3.24,3.2356,3.2078,3.1611,3.3624,3.4317,3.3893,3.5376,3.6098,3.615,3.5671,3.5206,0.0,3.3813,3.3404,3.326,3.2236,3.214,3.2575,3.2575,3.2575,3.2647,3.3128,3.326,3.3224,3.3272,3.2706,3.2068,3.2563,3.2719,3.2719,3.2719,3.3032,3.3248,3.2767,3.2923,3.3092,3.2611,3.2827,3.302,3.2599,3.2839,3.3176,3.3332,3.3284,3.3248,3.3344,3.3681,3.3633,3.2719,3.3107,3.3182,3.2242,3.2257,3.1921,3.0778,3.0675,3.0413,2.9763,2.9733,2.9753,2.9772,2.9772,2.9772,2.9792,2.9792,2.9792,2.9792,2.9792,2.9792,2.9792,2.9792,2.9792,2.9792,2.9792,2.9792,3.029,3.0352,3.0147,2.9249,2.8057,2.6479,2.402,2.3535,2.328,2.2242,2.1528,2.1429,2.2515,2.1954,2.1623,2.2534,2.3124,2.3991,2.55,2.6791,2.8768,3.1969,3.1918,3.2625,3.5227,3.443,3.373,3.373,3.4819,3.4764,3.3091,3.4151,3.4731,3.4521,3.4457,3.4732,3.5283,3.4981,3.4699,3.4502,3.5674,3.6128,3.5953,3.6591,3.6879,3.6843,3.6314,3.558,0.0,3.4018,3.3357,3.2743,3.1984,3.1827,3.202,3.202,3.202,3.2056,3.226,3.2333,3.2333,3.2333,3.2044,3.1874,3.2707,3.2971,3.2971,3.2971,3.2899,3.2911,3.3297,3.3356,3.3068,3.2224,3.2176,3.2273,3.2068,3.2188,3.2429,3.2755,3.2815,3.2911,3.3236,3.3452,3.3487,3.3204,3.3138,3.3043,3.2795,3.2563,3.2167,3.1517,3.1442,3.1071,3.0171,3.0202,3.0281,3.0281,2.998,2.9792,2.9792,2.9792,2.9792,2.9792,2.9792,2.9792,2.9792,2.9792,2.9792,2.9792,2.9792,2.9792,2.9302,2.9684,2.9835,2.8936,2.7732,2.6231,2.4149,2.3856,2.3781,2.2862,2.2132,2.2085,2.3506,2.2686,2.2006,2.266,2.3401,2.418,2.4933,2.6348,2.8491,3.1688,3.1817,3.2775,3.5731,3.5359,3.4919,3.4919,3.5729,3.5822,3.4974,3.6084,3.6557,3.6204,3.6021,3.6335,3.7192,3.6819,3.6567,3.6411,3.7096,3.7336,3.7204,3.736,3.7336,3.7168,3.6627,0.0,0.0,3.4138,3.3369,3.2659,3.1972,3.1705,3.1705,3.1705,3.1705,3.1705,3.1705,3.1705,3.1705,3.1705,3.1705,3.1827,3.2597,3.2838,3.2838,3.2838,3.2539,3.2454,3.3333,3.32,3.2646,3.1875,3.1705,3.1705,3.1705,3.1705,3.1803,3.22,3.225,3.2393,3.2766,3.297,3.3102,3.3239,3.3217,3.323,3.341,3.3099,3.2695,3.2287,3.2258,3.1747,3.0508,3.0528,3.0525,3.0362,3.0005,2.9792,2.9792,2.9792,2.9792,2.9792,2.9792,2.9792,2.9792,2.9792,2.9792,2.9792,2.9792,2.9792,2.5901,2.6726,2.7932,2.8394,2.7358,2.6034,2.5409,2.5282,2.4772,2.2965,2.2811,2.2984,2.3013,2.236,2.2197,2.3383,2.4035,2.5234,2.7609,2.7855,2.8958,3.211,3.1305,3.1862,3.5284,3.594,3.6177,3.6177,3.6177,0.0,3.6177,3.7334,3.7429,3.6231,3.6852,3.7192,3.7192,3.718,3.6928,3.6423,3.7469,3.7697,3.7216,3.776,3.7685,3.7168,3.6627,0.0,0.0,3.3933,3.3284,3.3199,3.2116,3.1705,3.1705,3.1705,3.1705,3.1705,3.1705,3.1705,3.1705,3.1705,3.1705,3.1705,3.1695,3.1729,3.1729,3.1729,3.1695,3.1827,3.237,3.2116,3.1695,3.1705,3.1705,3.1705,3.1705,3.1705,3.1705,3.1717,3.1717,3.1717,3.1729,3.2164,3.2515,3.2515,3.3348,3.3998,3.3998,3.3923,3.3684,3.314,3.309,3.2403,3.0738,3.06,3.0362,2.9829,2.9792,2.9792,2.9792,2.9792,2.9792,2.9792,2.9792,2.9792,2.9792,2.9792,2.9792,2.9792,2.9792,2.9792,2.5919,2.6548,2.7119,2.692,2.5939,2.4898,2.4395,2.4271,2.4107,2.3537,2.3601,2.392,2.4474,2.392,2.362,2.4367,2.5401,2.6093,2.6084,2.8292,3.0467,3.1914,3.4193,3.6055,3.7152,3.7369,3.7429,3.7429,3.7429,3.7429,3.7429,3.7788,3.7814,3.7429,3.7632,3.776,3.776,3.776,3.7649,3.7507,3.7856,3.7916,3.7733,3.7529,3.7156,3.6603,3.5688,0.0,0.0,3.3104,3.2549,3.2164,3.1837,3.1924,3.2212,3.1827,3.1924,3.2178,3.1837,3.1705,3.1705,3.1705,3.1705,3.1705,3.1705,3.1705,3.1705,3.1705,3.196,3.2212,3.2008,3.2104,3.2152,3.1801,3.1705,3.1705,3.1705,3.1705,3.1705,3.1705,3.1705,3.1705,3.1705,3.1827,3.2071,3.2381,3.2705,3.3015,3.3333,3.3358,3.3291,3.3115,3.3102,3.2726,3.1767,3.1361,3.1072,3.0896,3.0213,2.9792,2.9792,2.9792,2.9967,3.0344,3.0357,3.0357,3.0357,3.0357,3.0168,2.9792,2.9792,2.9792,2.5023,2.5757,2.6219,2.5889,2.5011,2.4157,2.3878,2.3649,2.3565,2.3758,2.3826,2.4146,2.5122,2.4636,2.4314,2.4948,2.6085,2.6795,2.6491,2.9016,3.1352,3.2535,3.5305,3.7168,3.7372,3.7772,3.8012,3.8012,3.8012,3.8012,3.8012,3.8012,3.8012,3.8012,3.8012,3.8012,3.8012,3.8012,3.8012,3.8012,3.7808,3.7711,3.7661,3.6928,3.6423,3.605,3.4967,0.0,0.0,3.3092,3.2707,3.2527,3.2152,3.2224,3.243,3.1887,3.1912,3.2152,3.1815,3.1705,3.1705,3.1705,3.1705,3.1705,3.1705,3.1705,3.1731,3.1948,3.2104,3.2176,3.2044,3.2104,3.2116,3.1767,3.1705,3.1705,3.1705,3.1761,3.1805,3.1805,3.1893,3.1959,3.1959,3.1959,3.2047,3.2344,3.2453,3.2627,3.2896,3.3038,3.3102,3.3102,3.3102,3.2952,3.2566,3.2014,3.1612,3.1399,3.0771,3.0394,3.0394,3.0394,3.047,3.06,3.06,3.05,3.0306,3.0306,3.0131,2.9792,2.9792,2.9792,0.0,2.4379,2.5066,2.5066,2.4379,2.3697,2.3697,2.3336,0.0,2.3649,2.3608,2.3857,2.5063,2.4689,2.4473,2.5332,2.6279,2.7301,2.8394,3.0025,3.1865,3.3886,3.5087,3.593,3.6314,3.7336,3.8012,3.8012,3.8012,3.8012,3.8012,3.8012,3.8012,3.8012,3.8012,3.8012,3.8012,3.8012,3.8012,3.8,3.7445,3.7192,3.7156,3.6062,3.5508,0.0,0.0,0.0,0.0,3.3609,3.3489,3.3754,3.284,3.2503,3.243,3.1887,3.1729,3.1743,3.1695,3.1705,3.1705,3.1705,3.1705,3.1705,3.1705,3.1705,3.1791,3.2298,3.2092,3.1815,3.2333,3.2102,3.1727,3.1761,3.1749,3.1749,3.1749,3.1893,3.2038,3.2038,3.2235,3.24,3.24,3.2425,3.2449,3.2471,3.267,3.2823,3.2785,3.3002,3.314,3.3102,3.3102,3.3102,3.3102,3.2554,3.1976,3.1424,3.1406,3.1373,3.1336,3.1336,3.1135,3.0713,3.0676,3.0432,2.9967,2.9892,2.9867,2.9905,2.9905,2.9905,2.2514,0.0,2.2931,2.2931,2.2754,2.2586,0.0,2.2791,2.3047,2.3151,2.3747,2.4467,2.518,2.5141,2.5481,2.691,2.6994,2.7421,2.8907,3.1507,3.3766,3.5063,3.6531,3.7,3.5905,3.712,3.8012,3.8012,3.8012,3.8012,3.8012,3.8012,3.8012,3.8012,3.8012,3.8012,3.8012,3.8012,3.8012,3.8,3.7445,3.7192,3.7144,3.5652,3.4775,0.0,0.0,0.0,3.2441,3.2611,3.2503,3.226,3.243,3.2503,3.243,3.1887,3.196,3.2238,3.1839,3.1705,3.1705,3.1705,3.1705,3.1727,3.1871,3.1827,3.1741,3.1839,3.1813,3.1763,3.2041,3.2025,3.1981,3.2191,3.2235,3.2235,3.2235,3.2279,3.23,3.23,3.2344,3.24,3.24,3.2744,3.3069,3.3212,3.3672,3.3908,3.3649,3.3674,3.3545,3.314,3.3102,3.3102,3.3102,3.2554,3.1976,3.1424,3.1406,3.121,3.0789,3.0796,3.1102,3.1805,3.1424,3.1348,3.1617,3.0801,3.062,3.1009,3.1009,3.1009,2.2197,2.2197,2.2197,2.2197,2.2197,2.2197,2.2197,2.243,2.2778,2.3276,2.3801,2.4482,2.548,2.5673,2.6027,2.7157,2.7505,2.837,3.047,3.2454,3.4246,3.5772,3.6519,3.6843,0.0,3.7481,3.8012,3.8012,3.8012,3.8012,3.8012,3.8012,3.8012,3.8012,3.8012,3.8012,3.8012,3.8012,3.7892,3.7639,3.7084,3.6699,3.6423,3.5051,3.4258,0.0,0.0,0.0,3.2453,3.2754,3.2706,3.2441,3.2478,3.2503,3.243,3.1887,3.1875,3.2092,3.1791,3.1705,3.1705,3.1705,3.1705,3.1705,3.1827,3.1849,3.1871,3.1981,3.2025,3.2047,3.2169,3.2191,3.2213,3.2378,3.24,3.24,3.24,3.2475,3.2602,3.2861,3.2999,3.3086,3.3086,3.3546,3.3829,3.3714,3.4172,3.438,3.395,3.3897,3.3684,3.3153,3.3102,3.3102,3.3102,3.2792,3.2478,3.2198,3.2185,3.206,3.175,3.175,3.1775,3.1838,3.1537,3.1424,3.1466,3.1135,3.1122,3.1406,3.1406,3.1406,2.2189,2.2261,2.2294,2.2209,2.2258,2.2294,2.2225,2.2197,2.249,2.3464,2.3746,2.4251,2.5709,2.6045,2.6298,2.691,2.8058,2.9809,3.2478,3.3308,3.4294,3.6074,3.6073,3.6411,3.7517,3.7868,3.8012,3.8012,3.7914,3.7916,3.8,3.7829,3.7808,3.788,3.7808,3.7772,3.7772,3.7928,3.7735,3.718,3.6663,3.6086,3.5436,3.4378,3.3862,3.373,0.0,0.0,3.3067,3.3128,3.3139,3.3031,3.2647,3.2442,3.2322,3.1863,3.1705,3.1761,3.1761,3.1761,3.1727,3.1705,3.1705,3.1717,3.1739,3.1893,3.2125,3.2366,3.241,3.241,3.2431,3.2453,3.2466,3.2509,3.2509,3.2509,3.2509,3.2636,3.2916,3.3476,3.3742,3.3922,3.401,3.4465,3.4665,3.4223,3.4603,3.4753,3.4223,3.4126,3.3909,3.3291,3.3228,3.319,3.3102,3.3102,3.3102,3.3102,3.3102,3.3052,3.2977,3.3052,3.26,3.1537,3.1436,3.1223,3.0839,3.1223,3.1436,3.1524,3.1633,3.167,2.2077,2.2538,2.2766,2.2306,2.255,2.2766,2.2294,2.2197,2.2381,2.2995,2.3493,2.4126,2.5228,2.5793,2.643,2.7421,2.9232,3.1454,3.4078,3.4907,3.5376,3.5676,3.6855,3.718,3.6086,3.7192,3.8012,3.8012,3.7591,3.7505,3.7988,3.7132,3.6855,3.73,3.6879,3.6651,3.6651,3.7555,3.7735,3.718,3.6663,3.5893,3.4895,3.3873,3.3164,3.2707,0.0,3.1958,3.1972,3.243,3.2369,3.1972,3.2346,3.2214,3.1803,3.1741,3.1805,3.1937,3.1937,3.1937,3.1928,3.1761,3.1705,3.1727,3.1893,3.2125,3.2388,3.2593,3.254,3.2431,3.2615,3.2658,3.2723,3.2952,3.2995,3.2995,3.2995,3.3016,3.3188,3.3718,3.3875,3.4048,3.449,3.5029,3.5345,3.5257,3.5768,3.5906,3.5343,3.5245,3.4879,3.3884,3.3771,3.3583,3.314,3.3102,3.3102,3.3102,3.3102,3.2876,3.2365,3.2839,3.2788,3.2102,3.1625,3.1574,3.1943,3.1574,3.1625,3.2102,3.2591,3.2839,2.1704,2.2369,2.2935,2.2694,2.3047,2.3284,2.2754,2.2863,2.3284,2.4073,2.4434,2.5011,2.634,2.7043,2.8041,2.9989,3.136,3.2803,3.4559,3.4763,3.5063,3.5942,0.0,3.6747,3.6879,3.7579,3.8012,3.8012,3.7493,3.73,3.7541,3.6819,3.6519,3.6759,3.6531,3.6411,3.6411,3.6892,3.6867,3.6338,3.5784,3.5123,3.433,3.3633,3.2996,3.2491,0.0,3.1972,3.1729,3.1972,3.1924,3.1741,3.2083,3.2079,3.1871,3.2025,3.2147,3.2213,3.2213,3.2125,3.1981,3.1893,3.1871,3.1871,3.1972,3.2266,3.2571,3.268,3.2745,3.2801,3.2896,3.2918,3.2939,3.3068,3.3102,3.3102,3.3102,3.3329,3.3684,3.4236,3.4565,3.4841,3.5082,3.5606,3.5893,3.5545,3.6006,3.618,3.5571,3.5495,3.5082,3.401,3.3897,3.3671,3.3153,3.3102,3.3102,3.3102,3.3102,3.2977,3.2692,3.2952,3.2826,3.2206,3.2265,3.2265,3.2194,3.2265,3.2449,3.2692,3.2977,3.3102,2.1368,2.2173,2.2971,2.2839,2.3228,2.3577,2.3392,2.3573,2.4131,2.5252,2.5492,2.5895,2.7265,2.8154,2.9532,3.2082,3.3044,3.3909,3.5171,3.5015,3.5256,3.6615,3.6423,3.6651,3.7892,3.8012,3.8012,3.8012,3.7399,3.706,3.718,3.6459,3.6086,3.6218,3.6098,3.6038,3.6038,3.6038,3.5893,3.5617,3.5183,3.4643,3.397,3.3525,3.2996,3.2491,3.2403,3.2125,3.1705,3.1827,3.1827,3.1783,3.2016,3.2081,3.2125,3.2388,3.2475,3.2475,3.2475,3.2344,3.2169,3.2125,3.2081,3.2081,3.2081,3.2376,3.2689,3.2689,3.2896,3.3102,3.3102,3.3102,3.3102,3.3102,3.3203,3.3291,3.3291,3.3709,3.4261,3.4778,3.5207,3.5533,3.5694,3.6081,3.6243,3.5782,3.6094,3.623,3.5769,3.5707,3.5343,3.4387,3.4264,3.401,3.3341,3.3291,3.3241,3.3102,3.3102,3.3102,3.3102,3.3102,3.2889,3.2416,3.2738,3.2654,3.2194,3.2654,3.2901,3.2901,3.304,3.3102,2.126,2.2173,2.2875,2.2378,2.267,2.3296,2.4177,2.4073,2.4239,2.5721,2.6045,2.6238,2.6837,2.8202,2.9953,3.2142,3.3309,3.4667,3.6735,3.6988,3.7192,3.782,3.7856,3.788,3.8,3.8012,3.8012,3.8012,3.7036,3.6675,3.7168,3.5761,3.5135,3.5628,3.5171,3.4919,3.4919,3.4919,3.5147,3.5592,3.5556,3.5003,3.397,3.3525,3.2996,3.2466,3.2162,3.1908,3.1727,3.2169,3.2191,3.2003,3.2257,3.2366,3.24,3.2593,3.268,3.268,3.268,3.268,3.2615,3.2431,3.2366,3.2366,3.2366,3.254,3.2689,3.2689,3.2896,3.3102,3.3102,3.3102,3.3102,3.3102,3.347,3.3847,3.3847,3.4274,3.4803,3.5332,3.547,3.5682,3.6243,3.638,3.6405,3.6331,3.638,3.6392,3.6331,3.6331,3.6092,3.5445,3.5382,3.4979,3.3935,3.3847,3.3621,3.3128,3.3102,3.3102,3.3102,3.3102,3.3077,3.304,3.2528,3.2231,3.2194,3.2231,3.2256,3.229,3.2851,3.3102,2.0851,2.1921,2.2947,2.2754,2.3103,2.3669,2.4345,2.4879,2.5594,2.6851,2.7633,2.8354,2.922,3.0434,3.1877,3.3633,3.4799,3.6014,3.7481,3.7711,3.7757,3.7988,3.8012,3.8012,3.8012,3.8012,3.7868,3.7517,3.6819,3.635,3.6218,3.5304,3.4895,3.5099,3.4907,3.4799,3.4799,3.4799,3.4907,3.5099,3.4775,3.4234,3.3561,3.3032,3.2503,3.1984,3.199,3.1972,3.1915,3.2257,3.2344,3.2279,3.2484,3.2692,3.2844,3.2918,3.2939,3.2939,3.2939,3.2831,3.2689,3.2615,3.2593,3.2593,3.2593,3.2766,3.2939,3.2939,3.3025,3.3102,3.3102,3.3102,3.319,3.353,3.3746,3.3985,3.4336,3.4828,3.5257,3.5458,3.5794,3.6143,3.6367,3.6405,3.6405,3.6405,3.6405,3.6405,3.6405,3.6405,3.618,3.5558,3.5194,3.4841,3.4427,3.4389,3.4173,3.3621,3.3291,3.3102,3.3102,3.3102,3.3102,3.3102,3.2889,3.2776,3.2776,3.2776,3.2776,3.2776,3.2989,3.3102,2.0596,2.1644,2.2791,2.2959,2.3408,2.4054,2.503,2.5823,2.6736,2.8174,2.9039,2.9869,3.0949,3.1755,3.2803,3.4523,3.5688,3.6771,3.7856,3.8012,3.8012,3.8012,3.8012,3.8012,3.8012,3.7856,3.7603,3.7216,3.6619,3.6102,3.574,3.5295,3.5005,3.492,3.5005,3.4921,3.4679,3.4752,3.4667,3.4426,3.4123,3.3893,3.3617,3.293,3.2444,3.218,3.2208,3.2179,3.2147,3.2475,3.2627,3.2627,3.2766,3.2939,3.3102,3.3102,3.3102,3.3102,3.3102,3.2982,3.2831,3.2831,3.2831,3.2831,3.2831,3.2939,3.314,3.3303,3.3228,3.3178,3.353,3.3492,3.3454,3.3809,3.4161,3.4502,3.4879,3.5393,3.5782,3.5782,3.613,3.6405,3.6405,3.6405,3.6405,3.6405,3.6405,3.6405,3.6405,3.6405,3.6243,3.582,3.5466,3.5165,3.4979,3.4966,3.4728,3.4198,3.3809,3.3454,3.3115,3.3102,3.3102,3.3102,3.3102,3.3178,3.3354,3.3354,3.3442,3.3617,3.3617,3.3617,2.0596,2.1392,2.2345,2.2875,2.3421,2.4367,2.6448,2.6898,2.7517,2.9653,3.0131,3.0456,3.1524,3.1729,3.2393,3.4462,3.5688,3.6771,3.7844,3.8,3.8,3.8,3.8,3.8,3.8,3.7519,3.7206,3.7206,3.647,3.5989,3.5989,3.5734,3.5476,3.5199,3.5464,3.5207,3.4409,3.4656,3.4399,3.3607,3.386,3.413,3.4348,3.3291,3.294,3.3162,3.285,3.2593,3.2444,3.2909,3.3102,3.3102,3.3102,3.3102,3.3102,3.3102,3.3102,3.3102,3.3102,3.3102,3.3102,3.3102,3.3102,3.3102,3.3102,3.3102,3.3228,3.3746,3.3508,3.3366,3.4414,3.4324,3.3922,3.3922,3.4728,3.5495,3.5508,3.5981,3.6405,3.6405,3.6405,3.6405,3.6405,3.6405,3.6405,3.6405,3.6405,3.6405,3.6405,3.6405,3.6405,3.6405,3.6405,3.6168,3.5558,3.5508,3.527,3.4741,3.4703,3.4223,3.3153,3.3102,3.3102,3.3102,3.3102,3.3379,3.3897,3.3909,3.4186,3.4703,3.4703,3.4703,2.0704,2.1656,2.2887,2.3428,2.4499,2.5769,2.7145,2.7162,2.7613,3.0143,3.1252,3.1997,3.2706,3.3092,3.3633,3.4643,3.5376,3.6086,3.6771,3.7348,3.7496,3.6941,3.7541,3.7927,3.7745,3.7389,3.7211,3.7211,3.6639,3.6113,3.5733,3.5634,3.5572,3.5476,3.5204,3.4922,3.4668,3.4394,3.4124,3.3883,3.3572,3.3383,3.3267,3.3132,3.2923,3.2643,3.2677,3.268,3.2636,3.2961,3.3102,3.3102,3.3102,3.3102,3.3102,3.3102,3.3102,3.3102,3.3102,3.3102,3.3102,3.3102,3.3102,3.3102,3.3102,3.3366,3.3684,3.3859,3.406,3.4289,3.4615,3.4866,3.5042,3.5042,3.5257,3.5631,3.6031,3.6268,3.6405,3.6405,3.6405,3.6405,3.6405,3.6405,3.6405,3.6405,3.6405,3.6405,3.6405,3.6405,3.6405,3.6405,3.6405,3.6318,3.6155,3.6143,3.5881,3.5295,3.4916,3.4377,3.3684,3.3658,3.3492,3.3102,3.3479,3.3734,3.3897,3.4286,3.454,3.4703,3.4703,3.4703,2.1004,2.1933,2.3164,2.3898,2.5264,2.6808,2.8298,2.8899,2.9692,3.1721,3.2491,3.3032,3.3765,3.379,3.403,3.4967,3.5388,3.5797,3.6326,3.6905,3.7104,3.6624,3.7235,3.7608,3.7455,3.7105,3.6886,3.6886,3.6481,3.6086,3.5789,3.5847,3.5772,3.5456,3.5216,3.4833,3.4285,3.4066,3.3793,3.3481,3.3249,3.3022,3.2779,3.2934,3.2893,3.2692,3.281,3.2853,3.2874,3.3025,3.3102,3.3102,3.3102,3.3102,3.3102,3.3102,3.3102,3.3102,3.3102,3.3241,3.3429,3.3429,3.3558,3.3734,3.3734,3.3809,3.3985,3.4424,3.4452,3.455,3.5203,3.5443,3.5495,3.5495,3.5682,3.5968,3.6306,3.6405,3.6405,3.6405,3.6405,3.6405,3.6405,3.6405,3.6405,3.6405,3.6405,3.6405,3.6405,3.6405,3.6405,3.6405,3.6405,3.6405,3.6405,3.6405,3.6243,3.5893,3.5554,3.5127,3.4552,3.4135,3.3746,3.3407,3.3947,3.4314,3.454,3.4866,3.5142,3.5378,3.5378,3.5378,2.1476,2.2261,2.3332,2.4381,2.5931,2.7757,2.9893,3.1517,3.2827,3.3693,3.3657,3.3717,3.4631,3.4054,3.3885,3.5341,3.557,3.5738,3.627,3.6606,3.6769,3.6707,3.6995,3.7182,3.7182,3.669,3.6419,3.6468,3.6193,3.6039,3.6039,3.6275,3.6049,3.5267,3.5365,3.4828,3.3543,3.3737,3.3461,3.2745,3.2982,3.2961,3.2745,3.2745,3.2874,3.3102,3.3102,3.3102,3.3102,3.3102,3.3102,3.3102,3.3102,3.3102,3.3102,3.3102,3.3102,3.3102,3.3153,3.3467,3.3847,3.3935,3.4274,3.464,3.469,3.4389,3.4261,3.5219,3.4841,3.4474,3.5992,3.5994,3.5571,3.5571,3.5994,3.6405,3.6405,3.6405,3.6405,3.6405,3.6405,3.6405,3.6405,3.6405,3.6405,3.6405,3.6405,3.6405,3.6405,3.6405,3.6405,3.6405,3.6405,3.6405,3.6405,3.6405,3.6405,3.6405,3.6344,3.6056,3.552,3.4515,3.3947,3.3897,3.4377,3.4891,3.542,3.547,3.5807,3.6405,3.6405,3.6405,2.2032,2.2815,2.3958,2.5396,2.7596,2.9965,3.2106,3.2886,3.3068,3.2875,3.3717,3.4535,3.4763,3.4619,3.4655,3.5187,3.5296,3.5405,3.5722,3.6358,3.6566,3.5941,3.6651,3.7119,3.6923,3.6596,3.6578,3.7016,3.6576,3.6323,3.6323,3.6358,3.6107,3.5451,3.5082,3.453,3.3809,3.3448,3.3194,0.0,3.3068,3.3068,3.3004,3.3004,3.3059,3.3102,3.3102,3.3102,3.3102,3.3102,3.3102,3.3102,3.3102,3.3102,3.3102,3.3102,3.3102,3.3165,3.3571,3.3542,3.3416,3.4261,3.4314,3.4161,3.4565,3.4916,3.5194,3.5433,3.568,3.5965,3.6317,3.6293,3.6218,3.6218,3.6306,3.6405,3.6405,3.6405,3.6405,3.6405,3.6405,3.6405,3.6405,3.6405,3.6405,3.6405,3.6405,3.6405,3.6405,3.6405,3.6405,3.6405,3.6405,3.6405,3.6405,3.6405,3.6405,3.6405,3.5968,3.5644,3.5508,3.4879,3.4327,3.3909,3.401,3.4327,3.4879,3.5282,3.5807,3.6405,3.6405,3.6405,2.2514,2.3176,2.436,2.6671,2.8871,3.0985,3.2863,3.3284,3.3356,3.3549,3.4234,3.4799,3.4799,3.4896,3.5054,3.5175,3.5295,3.544,3.5596,3.6071,3.6265,3.5849,3.6383,3.6761,3.6617,3.6473,3.6531,3.6796,3.6545,3.6405,3.6405,3.6143,3.5717,3.5142,3.459,3.406,3.3508,3.3241,3.3102,3.3102,3.3102,3.3102,3.3102,3.3102,3.3102,3.3102,3.3102,3.3102,3.3102,3.3102,3.3102,3.3102,3.3102,3.3102,3.3102,3.3102,3.3266,3.3492,3.3517,3.3658,3.396,3.4515,3.4502,3.4449,3.5265,3.5318,3.5242,3.5793,3.5956,3.6031,3.6342,3.6405,3.6405,3.6405,3.6405,3.6405,3.6405,3.6405,3.6405,3.6405,3.6405,3.6405,3.6405,3.6405,3.6405,3.6405,3.6405,3.6405,3.6405,3.6405,3.6405,3.6405,3.6405,3.6405,3.6405,3.6405,3.6405,3.6405,3.6094,3.5931,3.5931,3.5393,3.4954,3.4665,3.4939,3.5238,3.5504,3.5793,3.6081,3.6405,3.6405,3.6405,2.2851,2.3512,2.48,2.7873,2.9629,3.1045,3.267,3.3115,3.3416,3.4342,3.4679,3.4799,3.4799,3.503,3.5223,3.5271,3.5415,3.5582,3.5728,3.5833,3.5951,3.6074,3.6252,3.6405,3.6405,3.6405,3.6405,3.6405,3.6405,3.6344,3.6243,3.5682,3.513,3.4577,3.3947,3.3395,3.2952,3.2952,3.2952,3.2952,3.3052,3.3102,3.3102,3.3102,3.3102,3.3102,3.3102,3.3102,3.3102,3.3102,3.3102,3.3102,3.3102,3.3102,3.3102,3.3203,3.353,3.3859,3.3596,3.4035,3.4715,3.4803,3.4778,3.4879,3.5828,3.5516,3.5029,3.5992,3.5968,3.5769,3.6268,3.6405,3.6405,3.6405,3.6405,3.6405,3.6405,3.6405,3.6405,3.6405,3.6405,3.6405,3.6405,3.6405,3.6405,3.6405,3.6405,3.6405,3.6405,3.6405,3.6405,3.6405,3.6405,3.6405,3.6405,3.6405,3.6405,3.6405,3.6405,3.6405,3.6405,3.5931,3.5669,3.5669,3.5943,3.6143,3.6243,3.6243,3.6293,3.6405,3.6405,3.6405,2.2851,2.4025,2.5769,2.851,2.9352,2.9929,3.1539,3.2273,3.2779,3.3368,3.4174,3.4799,3.4799,3.503,3.5271,3.5524,3.5369,3.5492,3.62,3.5862,3.576,3.6284,3.6381,3.6405,3.6405,3.6405,3.6405,3.6405,3.6405,3.618,3.5656,3.5104,3.4552,3.4022,3.2993,3.2403,3.2328,3.2328,3.2328,3.234,3.2851,3.3102,3.3102,3.3102,3.3102,3.3102,3.3102,3.3102,3.3102,3.3102,3.3102,3.3102,3.3102,3.3102,3.3153,3.3608,3.3834,3.4022,3.4891,3.4979,3.4778,3.5232,3.5092,3.4728,3.4879,3.5155,3.542,3.5594,3.5943,3.6293,3.6392,3.6405,3.6405,3.6405,3.6405,3.6405,3.6405,3.6405,3.6405,3.6405,3.6405,3.6405,3.6405,3.6405,3.6405,3.6405,3.6405,3.6405,3.6405,3.6405,3.6405,3.6405,3.6405,3.6405,3.6405,3.6405,3.6405,3.6405,3.6405,3.6405,3.6405,3.6306,3.6281,3.6281,3.5391,3.5155,3.5631,3.5631,3.5893,3.6405,3.6405,3.6405,2.3212,2.4583,2.6105,2.7589,2.8871,3.0043,3.1148,3.2065,3.2862,3.3556,3.4031,3.4494,3.4945,3.5247,3.5414,3.5393,3.5368,3.539,3.5431,3.4964,3.4803,3.5378,3.5188,3.5125,3.5416,3.5441,3.5441,3.5441,3.5441,3.5341,3.5079,3.454,3.401,3.3479,3.2641,3.2064,3.175,3.175,3.175,3.1763,3.2328,3.2591,3.2604,3.2952,3.3102,3.3102,3.3102,3.3102,3.3102,3.3102,3.3102,3.3102,3.3102,3.3102,3.3165,3.3696,3.3897,3.401,3.4778,3.4703,3.4327,3.4879,3.4477,3.3922,3.4515,3.4653,3.4728,3.532,3.5694,3.5968,3.6306,3.6405,3.6405,3.6405,3.6405,3.6405,3.6405,3.6405,3.6405,3.6405,3.6405,3.6405,3.6405,3.6405,3.6405,3.6405,3.6405,3.6405,3.6405,3.6405,3.6405,3.6405,3.6405,3.6405,3.6405,3.6405,3.6405,3.6405,3.6405,3.6405,3.6405,3.6405,3.6405,3.6405,3.5916,3.5755,3.5994,3.5994,3.6143,3.6405,3.6405,3.6405,2.3517,2.4644,2.5733,2.6676,2.8133,2.9608,3.0561,3.1548,3.2525,3.3412,3.3703,3.4087,3.5025,3.5364,3.5382,3.5025,3.5044,3.4966,3.4552,3.3909,3.3671,3.4236,3.3935,3.3909,3.4439,3.449,3.4552,3.469,3.4703,3.464,3.449,3.3847,3.3282,3.2889,3.2039,3.1461,3.1198,3.1198,3.126,3.1399,3.1813,3.2001,3.2026,3.2591,3.2876,3.2889,3.304,3.3102,3.3102,3.3102,3.3102,3.3102,3.3102,3.3102,3.3178,3.3859,3.4022,3.3997,3.4665,3.4552,3.4161,3.4402,3.4048,3.3621,3.4311,3.4424,3.4465,3.527,3.5596,3.582,3.6281,3.6405,3.6405,3.6405,3.6405,3.6405,3.6405,3.6405,3.6405,3.6405,3.6405,3.6405,3.6405,3.6405,3.6405,3.6405,3.6405,3.6405,3.6405,3.6405,3.6405,3.6405,3.6405,3.6405,3.6405,3.6405,3.6405,3.6405,3.6405,3.6405,3.6405,3.6405,3.6405,3.6405,3.6405,3.6405,3.6405,3.6405,3.6405,3.6405,3.6405,3.6405,2.3517,2.3866,2.4403,2.64,2.7139,2.7751,2.9326,3.0261,3.1141,3.2253,3.2892,3.3648,3.4964,3.5209,3.5023,3.4429,3.4145,3.3972,3.3947,3.2993,3.2516,3.3115,3.3153,3.3354,3.3884,3.3935,3.4161,3.4653,3.4703,3.4477,3.3972,3.2893,3.229,3.2252,3.0733,3.0156,3.0638,3.0638,3.0896,3.1406,3.1424,3.1436,3.1469,3.2001,3.2252,3.229,3.2851,3.3102,3.3102,3.3102,3.3102,3.3102,3.3102,3.3102,3.3228,3.4264,3.4327,3.406,3.5104,3.5117,3.4577,3.411,3.4261,3.4527,3.4085,3.4628,3.542,3.5483,3.5918,3.6367,3.6405,3.6405,3.6405,3.6405,3.6405,3.6405,3.6405,3.6405,3.6405,3.6405,3.6405,3.6405,3.6405,3.6405,3.6405,3.6405,3.6405,3.6405,3.6405,3.6405,3.6405,3.6405,3.6405,3.6405,3.6405,3.6405,3.6405,3.6405,3.6405,3.6405,3.6405,3.6405,3.6405,3.6405,3.6405,3.6405,3.6405,3.6405,3.6405,3.6405,3.6405,3.6405,2.3079,2.3541,2.4075,2.5259,2.6372,2.7432,2.8252,2.9186,3.023,3.1506,3.19,3.2395,3.3627,3.4267,3.4498,3.4107,3.3655,3.314,3.239,3.165,3.1386,3.1947,3.17,3.1712,3.224,3.2311,3.2516,3.3068,3.3084,3.3009,3.283,3.2407,3.188,3.119,3.06,3.0244,3.0093,3.0093,3.0181,3.0369,3.0721,3.0896,3.0909,3.1436,3.1876,3.2206,3.2428,3.2729,3.3102,3.3102,3.3102,3.3102,3.3102,3.3102,3.319,3.3922,3.3847,3.3533,3.4603,3.4402,3.3696,3.3847,3.3796,3.3696,3.3847,3.4173,3.4615,3.5307,3.5669,3.5918,3.6293,3.6405,3.6405,3.6405,3.6405,3.6405,3.6405,3.6405,3.6405,3.6405,3.6405,3.6405,3.6405,3.6405,3.6405,3.6405,3.6405,3.6405,3.6405,3.6405,3.6405,3.6405,3.6405,3.6556,3.6884,3.6595,3.6683,3.7374,3.711,3.7072,3.74,3.7436,3.7273,3.6921,3.6909,3.6733,3.6405,3.6405,3.6405,3.6405,3.6405,3.6405,2.2851,2.3296,2.3796,2.4599,2.5688,2.6778,2.7612,2.8413,2.9316,3.06,3.0997,3.1474,3.2579,3.3102,3.3399,3.3599,3.3341,3.27,3.157,3.1085,3.0871,3.0859,3.0721,3.0738,3.1097,3.1286,3.1537,3.1901,3.229,0.0,3.1951,3.1938,3.1449,3.0369,3.0331,3.0168,2.9792,2.9792,2.9792,2.9792,3.0168,3.0331,3.0369,3.1072,3.1499,3.1692,3.2265,3.2717,3.3102,3.3102,3.3102,3.3102,3.3102,3.3102,3.3165,3.3696,3.3558,3.3228,3.4123,3.3847,3.3153,3.353,3.3621,3.3696,3.406,3.4437,3.4876,3.5594,3.5794,3.5893,3.6293,3.6405,3.6405,3.6405,3.6405,3.6405,3.6405,3.6405,3.6405,3.6405,3.6405,3.6405,3.6405,3.6405,3.6405,3.6405,3.6405,3.6405,3.6405,3.6545,3.6595,3.643,3.6708,3.7009,3.7198,3.7047,3.7248,3.7952,3.7663,3.7626,3.799,3.8002,3.7751,3.7223,3.721,3.6934,3.6405,3.6405,3.6405,3.6405,3.6405,3.6405,0.0,0.0,0.0,2.4499,2.5016,2.572,2.7362,2.7894,2.836,2.9503,3.0168,3.0851,3.1918,3.17,3.17,3.2826,3.3027,3.265,3.152,3.1356,3.0959,2.9917,3.0269,3.0588,3.0613,3.1085,3.1373,3.1406,3.2411,3.255,3.1444,3.1369,3.0891,2.9829,2.9792,2.9792,2.9792,2.9779,2.9779,2.9792,2.9779,2.9779,2.9849,3.0891,3.1085,3.0688,3.2315,3.304,3.3052,3.309,3.3102,3.3102,3.3102,3.3102,3.3165,3.3671,3.3555,3.3178,3.3684,3.3542,3.3102,3.3102,3.3809,3.4678,3.469,3.5479,3.6392,3.6405,3.6405,3.6405,3.6405,3.6405,3.6405,3.6405,3.6405,3.6405,3.6405,3.6405,3.6405,3.6405,3.6405,3.6405,3.6405,3.6405,3.6405,3.6405,3.6405,3.6405,3.6405,3.6871,3.6997,3.6468,3.7361,3.7776,3.7273,3.7688,3.8002,3.8052,3.804,3.804,3.8052,3.8052,3.7801,3.7273,3.7261,3.6984,3.6455,3.643,3.6417,3.643,3.6455,3.6455,2.2637,0.0,0.0,0.0,0.0,0.0,2.5969,2.6255,2.6728,2.826,2.8699,2.9139,3.0256,3.0331,3.0344,3.0645,3.1369,3.1494,3.0394,3.0231,3.0118,2.9849,2.993,3.0331,3.1097,3.0972,3.0984,0.0,3.1336,3.116,3.0846,3.0444,3.0112,2.9804,2.9792,2.9792,2.9792,2.9377,2.9377,2.9779,2.9346,2.939,2.9804,3.0112,3.0369,3.0625,3.1097,3.1512,3.1934,3.2763,3.3102,3.3102,3.3102,3.3102,3.3115,3.3278,3.3228,3.3128,3.3278,3.3228,3.3102,3.3102,3.3558,3.4176,3.4577,3.5192,3.5832,3.6281,3.6405,3.6405,3.6405,3.6405,3.6405,3.6405,3.6405,3.6405,3.6405,3.6405,3.6405,3.6405,3.6405,3.6405,3.6405,3.6405,3.6405,3.6405,3.6405,3.6405,3.6405,3.6871,3.6997,3.6468,3.7022,3.7513,3.7764,3.755,3.7927,3.9145,3.8881,3.8843,3.9207,3.9233,3.8969,3.8441,3.8429,3.8153,3.755,3.6771,3.6595,3.6997,3.7386,3.755,0.0,0.0,0.0,2.3588,0.0,0.0,2.5114,2.5272,2.5611,2.6804,2.7256,2.7758,2.8888,2.9089,2.9252,2.9716,3.0118,3.0143,2.9496,2.9641,2.9616,2.9151,2.9289,2.9679,3.0306,3.0306,3.0394,3.0696,3.0859,3.0746,3.0294,2.9515,2.9189,2.9428,2.9428,2.9553,2.9792,2.9195,2.9082,2.9428,2.907,2.9082,2.9453,2.9917,3.0181,3.0294,3.0746,3.111,3.1482,3.2353,3.2717,3.2717,3.2717,3.2889,3.3102,3.3102,3.3102,3.3102,3.3102,3.3253,3.3404,3.3178,3.3759,3.4577,3.4678,3.5242,3.5956,3.6293,3.6405,3.6405,3.6405,3.6405,3.6405,3.6405,3.6405,3.6405,3.6405,3.6405,3.6405,3.6405,3.6405,3.6405,3.6405,3.6405,3.6405,3.6405,3.6405,3.6493,3.6695,3.721,3.74,3.711,3.7776,3.8266,3.8366,3.8278,3.8642,3.9634,3.9421,3.9384,3.9685,3.9697,3.9459,3.8906,3.8894,3.8605,3.8002,3.7362,3.7235,3.7538,3.7852,3.8002,0.0,0.0,0.0,2.3884,2.4051,0.0,2.472,2.4904,2.5118,2.5598,2.6118,2.6788,2.7745,2.7921,2.8247,2.9283,2.8969,2.8681,2.8787,2.9277,2.9239,2.8222,2.8518,2.8869,2.8994,2.9428,2.9691,2.9691,3.052,3.0628,2.9654,2.8649,2.8317,2.8806,2.8819,2.907,2.9603,2.9019,2.8781,2.8888,2.8844,2.8881,2.9032,3.0048,3.0256,2.9842,3.0796,3.121,3.1248,3.18,3.2118,3.2303,3.2303,3.2629,3.3102,3.3102,3.3102,3.3102,3.3102,3.3454,3.3809,3.3278,3.4198,3.5395,3.4866,3.5491,3.6405,3.6405,3.6405,3.6405,3.6405,3.6405,3.6405,3.6405,3.6405,3.6405,3.6405,3.6405,3.6405,3.6405,3.6405,3.6405,3.6405,3.6455,3.648,3.6417,3.6494,3.672,3.7148,3.7726,3.8078,3.8015,3.8969,3.9434,3.8931,3.9346,3.9634,3.9697,3.9697,3.9697,3.9697,3.9697,3.9497,3.8994,3.8982,3.8705,3.8191,3.8065,3.804,3.8103,3.8165,3.8191,0.0,0.0,0.0,0.0,2.5394,0.0,2.5009,2.5498,2.6197,2.6298,2.6411,2.6562,2.6776,2.6813,2.6889,2.7115,2.7052,2.7273,2.8134,2.836,2.8348,2.8134,2.8179,2.8624,2.9541,2.9283,2.9082,2.9082,2.8869,2.8649,2.8448,2.8222,2.816,2.8242,2.8254,2.8304,2.8436,2.7883,2.8047,2.8888,2.8455,2.875,2.9628,2.9854,2.9892,2.9804,3.0018,3.0105,3.0143,3.0696,3.1712,3.2927,3.2927,3.3002,3.3102,3.3102,3.3102,3.3102,3.3102,3.3454,3.3809,3.3278,3.4198,3.5395,3.4866,3.5491,3.6405,3.6405,3.6405,3.6405,3.6405,3.6405,3.6405,3.6405,3.6405,3.6405,3.6405,3.6405,3.6405,3.6405,3.6405,3.6405,3.6405,3.6758,3.6896,3.6444,3.7135,3.7563,3.7248,3.8102,3.8555,3.8052,3.8617,3.9007,3.8906,3.8994,3.9245,3.9672,3.9697,3.9697,3.9697,3.9697,3.9647,3.9534,3.9534,3.9484,3.9371,3.8454,3.8253,3.8743,3.9157,3.9371,0.0,0.0,0.0,2.6089,2.6327,0.0,0.0,2.573,2.6134,2.6047,2.6042,2.6042,2.6042,2.6298,2.6399,2.6092,2.6298,2.6688,2.7223,2.7298,2.7298,2.7298,2.7298,2.7638,2.8479,2.8273,2.8204,2.848,2.8009,2.7695,2.7695,2.7449,2.7406,2.7682,2.7695,2.7821,2.8109,2.7557,2.7695,2.8493,2.8235,2.8549,2.9346,2.9666,2.9792,2.9792,2.9792,3.0093,3.0628,3.0884,3.165,3.2641,3.2641,3.2851,3.3102,3.3102,3.3102,3.3102,3.3102,3.3454,3.3809,3.3278,3.4198,3.5395,3.4866,3.5491,3.6405,3.6405,3.6405,3.6405,3.6405,3.6405,3.6405,3.6405,3.6405,3.6405,3.6405,3.6405,3.6405,3.6405,3.6405,3.6405,3.6405,3.6607,3.6708,3.6455,3.6859,3.7311,3.7563,3.809,3.8542,3.8818,3.9107,3.9308,3.9308,3.9308,3.9421,3.9672,3.9697,3.9697,3.9697,3.9697,3.9697,3.9697,3.9446,3.9421,3.9697,3.8843,3.8756,3.9321,3.9559,3.9697,0.0,0.0,0.0,0.0,0.0,2.746,0.0,0.0,0.0,2.6006,2.5966,2.5933,2.5795,2.6274,2.6439,2.572,2.6122,2.6449,2.6348,2.6424,2.6499,2.6499,2.6499,2.6663,2.7097,2.7148,2.7324,2.7758,2.7386,2.7148,2.7148,2.6738,2.67,2.7123,2.7148,2.7361,2.7783,2.7361,2.7474,2.8109,2.8109,2.843,2.9095,2.9578,2.9792,2.9804,2.9905,3.0444,3.126,3.1461,3.175,3.2077,3.229,3.2591,3.2939,3.3052,3.3102,3.3102,3.3102,3.3454,3.3809,3.3278,3.4123,3.527,3.4966,3.5579,3.6405,3.6405,3.6405,3.6405,3.6405,3.6405,3.6405,3.6405,3.6405,3.6405,3.6405,3.6405,3.6405,3.6405,3.6405,3.6405,3.6405,3.6505,3.6531,3.643,3.6658,3.7148,3.7902,3.8203,3.868,3.9597,3.9697,3.9697,3.9697,3.9697,3.9697,3.9697,3.9697,3.9697,3.9697,3.9697,3.9697,3.9697,3.9283,3.9271,3.9697,3.9271,3.9283,3.9697,3.9697,3.9697,0.0,0.0,0.0,0.0,2.9647,0.0,0.0,0.0,2.7881,2.7388,0.0,2.7109,2.6506,0.0,0.0,2.579,2.6122,2.6311,2.5791,2.6155,2.6499,2.6499,2.6499,2.6512,2.6587,2.6587,2.6612,2.6675,2.6625,2.6587,2.6587,2.6524,2.6524,2.6587,2.6587,2.6612,2.6688,2.6612,2.7097,2.8109,2.8109,2.8662,2.9691,2.9767,2.9792,2.9836,3.0306,3.0575,3.0751,3.1725,3.1863,3.1587,3.26,3.2704,3.2378,3.2901,3.3102,3.3102,3.3102,3.3454,3.3809,3.3278,3.3872,3.4879,3.527,3.5881,3.6405,3.6405,3.6405,3.6405,3.6405,3.6405,3.6405,3.6405,3.6405,3.6405,3.6405,3.6405,3.6405,3.6405,3.6405,3.6405,3.6405,3.6783,3.6947,3.648,3.765,3.8467,3.8052,3.8881,3.9546,3.9685,3.9697,3.9697,3.9697,3.9697,3.9697,3.9697,3.9697,3.9697,3.9697,3.9697,3.9697,3.9697,3.9634,3.9634,3.9697,3.9634,3.9634,3.9697,3.9697,3.9697,0.0,0.0,0.0,0.0,0.0,0.0,2.912,0.0,2.8866,0.0,0.0,0.0,0.0,0.0,0.0,0.0,2.6396,2.6411,2.6172,2.6336,2.6499,2.6499,2.6499,0.0,2.6499,2.6499,2.6499,2.6499,2.6499,2.6499,2.6499,2.6499,2.6499,2.6499,2.6499,2.6499,2.6499,2.6499,2.7052,2.8109,2.8109,2.8699,2.9792,2.9792,2.9792,2.9804,3.0043,3.0495,3.1097,3.1549,3.1788,3.1951,3.2788,3.2717,3.2256,3.2889,3.3102,3.3102,3.3102,3.3253,3.3454,3.3533,3.4085,3.4803,3.5332,3.5931,3.6405,3.6405,3.6405,3.6405,3.6405,3.6405,3.6405,3.6405,3.6405,3.6405,3.6405,3.6405,3.6405,3.6405,3.6405,3.6405,3.6405,3.6846,3.7235,3.7323,3.7914,3.8404,3.8492,3.8944,3.9371,3.9659,3.9697,3.9697,3.9697,3.9697,3.9697,3.9697,3.9697,3.9697,3.9697,3.9697,3.9697,3.9697,3.9697,3.9697,3.9697,3.9697,3.9697,3.9697,3.9697,3.9697,3.0598,0.0,0.0,0.0,0.0,0.0,0.0,0.0,0.0,0.0,0.0,0.0,0.0,0.0,0.0,0.0,0.0,2.6731,2.6578,2.6523,2.6499,2.6499,2.6499,0.0,0.0,2.6499,2.6499,2.6499,2.6499,2.6499,2.6499,2.6499,2.6499,2.6499,2.6499,2.6499,2.6499,2.6499,2.7052,2.8109,2.8109,2.8699,2.9792,2.9792,2.9792,2.9804,2.9955,3.0457,3.1198,3.1499,3.1763,3.2064,3.2813,3.2717,3.2256,3.2889,3.3102,3.3102,3.3102,3.3102,3.319,3.3721,3.4274,3.4803,3.5332,3.5931,3.6405,3.6405,3.6405,3.6405,3.6405,3.6405,3.6405,3.6405,3.6405,3.6405,3.6405,3.6405,3.6405,3.6405,3.6531,3.6607,3.6607,3.6821,3.7173,3.7701,3.7914,3.8216,3.8818,3.9032,3.9271,3.9647,3.9697,3.9697,3.9697,3.9697,3.9697,3.9697,3.9697,3.9697,3.9697,3.9697,3.9697,3.9697,3.9697,3.9697,3.9697,3.9697,3.9697,3.9697,3.9697,3.9697,0.0,0.0,0.0,3.0902,0.0,0.0,0.0,0.0,3.0309,0.0,0.0,0.0,0.0,0.0,0.0,0.0,0.0,0.0,0.0,2.6577,2.6499,2.6499,2.6499,2.6499,0.0,2.6499,2.6499,2.6499,2.6499,2.6499,2.6499,2.6499,2.6499,2.6499,2.6499,2.6499,2.6499,2.6499,2.7052,2.8109,2.8109,2.8699,2.9792,2.9792,2.9792,2.9829,3.0337,3.0588,3.0701,3.1742,3.1888,3.1545,3.2663,3.2717,3.2256,3.2889,3.3102,3.3102,3.3102,3.3102,3.319,3.3721,3.4274,3.4803,3.5332,3.5931,3.6405,3.6405,3.6405,3.6405,3.6405,3.6405,3.6405,3.6405,3.6405,3.6405,3.6405,3.6405,3.6405,3.6405,3.6808,3.7185,3.7185,3.6758,3.6595,3.7148,3.7663,3.8216,3.8818,3.9333,3.9672,3.9697,3.9697,3.9697,3.9697,3.9697,3.9697,3.9697,3.9697,3.9697,3.9697,3.9697,3.9697,3.9697,3.9697,3.9697,3.9697,3.9697,3.9697,3.9697,3.9697,3.9697,0.0,0.0,3.1844,3.1859,0.0,0.0,0.0,0.0,0.0,0.0,0.0,0.0,0.0,0.0,0.0,0.0,0.0,0.0,0.0,2.7469,2.7007,2.6538,2.6499,2.6499,2.6499,2.6147,2.6067,2.6461,2.6118,2.6067,2.6474,2.6499,2.6499,2.6499,2.6499,2.6499,2.6499,2.6851,2.7211,2.7587,2.8279,2.8831,2.922,2.9616,2.9792,2.9804,2.9993,3.0281,3.0651,3.1373,3.1775,3.2014,3.2801,3.2977,3.2826,3.3027,3.3102,3.3102,3.3102,3.3102,3.3128,3.3316,3.3721,3.4211,3.4377,3.5079,3.5794,3.5794,3.6081,3.6405,3.6405,3.6405,3.6405,3.6405,3.6405,3.6405,3.6405,3.6405,3.6405,3.6405,3.6833,3.721,3.721,3.7324,3.7675,3.824,3.8793,3.9195,3.9383,3.9584,3.9697,3.9697,3.9697,3.9697,3.9697,3.9697,3.9697,3.9697,3.9697,3.9697,3.9697,3.9697,3.9697,3.9697,3.9697,3.9697,3.9697,3.9697,3.9788,3.9955,3.9955,3.9865,3.1061,3.1336,0.0,3.2047,3.2003,0.0,3.1554,0.0,3.1627,0.0,0.0,0.0,0.0,0.0,0.0,0.0,0.0,0.0,0.0,2.792,2.7334,2.6905,2.6658,2.6499,2.6499,2.6354,2.6341,2.6479,2.6371,2.6337,2.6491,2.6499,2.6499,2.6499,2.6688,2.6688,2.6499,2.7223,2.7499,2.7311,2.8179,2.8718,2.8919,2.9296,2.9591,2.9792,2.9792,2.9993,3.0382,3.1097,3.1599,3.1989,3.2801,3.3102,3.3102,3.3102,3.3102,3.3102,3.3102,3.3102,3.3128,3.3329,3.3608,3.3972,3.4339,3.4954,3.5533,3.5757,3.6094,3.6405,3.6405,3.6405,3.6405,3.6405,3.6405,3.6405,3.6405,3.6545,3.6683,3.6683,3.7286,3.7751,3.7513,3.8103,3.8668,3.8869,3.9195,3.9471,3.9672,3.9697,3.9697,3.9697,3.9697,3.9697,3.9697,3.9697,3.9697,3.9697,3.9697,3.9736,3.9839,3.9736,3.9736,3.9839,3.9736,3.9736,3.9839,3.9839,3.9981,4.0236,4.0236,4.0147]}]]